<?xml version="1.0" encoding="UTF-8" standalone="no" ?>
<gpx xmlns="http://www.topografix.com/GPX/1/1" xmlns:xsi="http://www.w3.org/2001/XMLSchema-instance" xsi:schemaLocation="http://www.topografix.com/GPX/1/1 http://www.topografix.com/GPX/1/1/gpx.xsd" version="1.1" creator="VisuGPX - https://www.visugpx.com">
  <metadata>
    <name>rando 4 chateaux 8 avril 2012</name>
    <desc><![CDATA[Vallée de Chevreuse]]></desc>
  </metadata>
  <trk>
    <name><![CDATA[8 avr. 2012 09:39:50]]></name>
    <cmt><![CDATA[8 avr. 2012 09:39:50]]></cmt>
    <trkseg>
      <trkpt lat="48.70619" lon="2.04066">
        <ele>29</ele>
        <time>2012-04-08T07:39:50Z</time>
      </trkpt>
      <trkpt lat="48.70625" lon="2.04071">
        <ele>29</ele>
        <time>2012-04-08T07:39:58Z</time>
      </trkpt>
      <trkpt lat="48.70629" lon="2.0407">
        <ele>31</ele>
        <time>2012-04-08T07:40:04Z</time>
      </trkpt>
      <trkpt lat="48.70632" lon="2.04063">
        <ele>31</ele>
        <time>2012-04-08T07:40:09Z</time>
      </trkpt>
      <trkpt lat="48.70634" lon="2.04057">
        <ele>30</ele>
        <time>2012-04-08T07:40:14Z</time>
      </trkpt>
      <trkpt lat="48.70631" lon="2.04049">
        <ele>31</ele>
        <time>2012-04-08T07:40:18Z</time>
      </trkpt>
      <trkpt lat="48.70631" lon="2.04042">
        <ele>31</ele>
        <time>2012-04-08T07:40:21Z</time>
      </trkpt>
      <trkpt lat="48.70632" lon="2.04035">
        <ele>33</ele>
        <time>2012-04-08T07:40:27Z</time>
      </trkpt>
      <trkpt lat="48.70629" lon="2.04027">
        <ele>33</ele>
        <time>2012-04-08T07:40:31Z</time>
      </trkpt>
      <trkpt lat="48.70627" lon="2.04021">
        <ele>32</ele>
        <time>2012-04-08T07:40:37Z</time>
      </trkpt>
      <trkpt lat="48.70626" lon="2.04014">
        <ele>32</ele>
        <time>2012-04-08T07:40:42Z</time>
      </trkpt>
      <trkpt lat="48.70624" lon="2.04007">
        <ele>31</ele>
        <time>2012-04-08T07:40:46Z</time>
      </trkpt>
      <trkpt lat="48.70624" lon="2.04">
        <ele>32</ele>
        <time>2012-04-08T07:40:50Z</time>
      </trkpt>
      <trkpt lat="48.70622" lon="2.03984">
        <ele>28</ele>
        <time>2012-04-08T07:41:00Z</time>
      </trkpt>
      <trkpt lat="48.70621" lon="2.03962">
        <ele>28</ele>
        <time>2012-04-08T07:41:11Z</time>
      </trkpt>
      <trkpt lat="48.70622" lon="2.03955">
        <ele>26</ele>
        <time>2012-04-08T07:41:13Z</time>
      </trkpt>
      <trkpt lat="48.70625" lon="2.03951">
        <ele>28</ele>
        <time>2012-04-08T07:41:17Z</time>
      </trkpt>
      <trkpt lat="48.70629" lon="2.03946">
        <ele>28</ele>
        <time>2012-04-08T07:41:22Z</time>
      </trkpt>
      <trkpt lat="48.70633" lon="2.03942">
        <ele>26</ele>
        <time>2012-04-08T07:41:27Z</time>
      </trkpt>
      <trkpt lat="48.70638" lon="2.03943">
        <ele>26</ele>
        <time>2012-04-08T07:41:33Z</time>
      </trkpt>
      <trkpt lat="48.70642" lon="2.03945">
        <ele>26</ele>
        <time>2012-04-08T07:41:37Z</time>
      </trkpt>
      <trkpt lat="48.7065" lon="2.03953">
        <ele>24</ele>
        <time>2012-04-08T07:41:47Z</time>
      </trkpt>
      <trkpt lat="48.70653" lon="2.03959">
        <ele>25</ele>
        <time>2012-04-08T07:41:50Z</time>
      </trkpt>
      <trkpt lat="48.70658" lon="2.03973">
        <ele>22</ele>
        <time>2012-04-08T07:41:58Z</time>
      </trkpt>
      <trkpt lat="48.70666" lon="2.03984">
        <ele>27</ele>
        <time>2012-04-08T07:42:04Z</time>
      </trkpt>
      <trkpt lat="48.70668" lon="2.03989">
        <ele>27</ele>
        <time>2012-04-08T07:42:08Z</time>
      </trkpt>
      <trkpt lat="48.70669" lon="2.03996">
        <ele>28</ele>
        <time>2012-04-08T07:42:11Z</time>
      </trkpt>
      <trkpt lat="48.70666" lon="2.04017">
        <ele>28</ele>
        <time>2012-04-08T07:42:23Z</time>
      </trkpt>
      <trkpt lat="48.70667" lon="2.04024">
        <ele>29</ele>
        <time>2012-04-08T07:42:28Z</time>
      </trkpt>
      <trkpt lat="48.70669" lon="2.04031">
        <ele>27</ele>
        <time>2012-04-08T07:42:33Z</time>
      </trkpt>
      <trkpt lat="48.70673" lon="2.04059">
        <ele>27</ele>
        <time>2012-04-08T07:42:52Z</time>
      </trkpt>
      <trkpt lat="48.70673" lon="2.04067">
        <ele>25</ele>
        <time>2012-04-08T07:42:56Z</time>
      </trkpt>
      <trkpt lat="48.70672" lon="2.04081">
        <ele>25</ele>
        <time>2012-04-08T07:43:07Z</time>
      </trkpt>
      <trkpt lat="48.70673" lon="2.04097">
        <ele>27</ele>
        <time>2012-04-08T07:43:16Z</time>
      </trkpt>
      <trkpt lat="48.70674" lon="2.04106">
        <ele>27</ele>
        <time>2012-04-08T07:43:20Z</time>
      </trkpt>
      <trkpt lat="48.70673" lon="2.04112">
        <ele>26</ele>
        <time>2012-04-08T07:43:23Z</time>
      </trkpt>
      <trkpt lat="48.70671" lon="2.04119">
        <ele>27</ele>
        <time>2012-04-08T07:43:27Z</time>
      </trkpt>
      <trkpt lat="48.70672" lon="2.04133">
        <ele>27</ele>
        <time>2012-04-08T07:43:36Z</time>
      </trkpt>
      <trkpt lat="48.70674" lon="2.04139">
        <ele>28</ele>
        <time>2012-04-08T07:43:39Z</time>
      </trkpt>
      <trkpt lat="48.70678" lon="2.04153">
        <ele>28</ele>
        <time>2012-04-08T07:43:47Z</time>
      </trkpt>
      <trkpt lat="48.70677" lon="2.0416">
        <ele>27</ele>
        <time>2012-04-08T07:43:53Z</time>
      </trkpt>
      <trkpt lat="48.70675" lon="2.04167">
        <ele>27</ele>
        <time>2012-04-08T07:43:57Z</time>
      </trkpt>
      <trkpt lat="48.70674" lon="2.04174">
        <ele>28</ele>
        <time>2012-04-08T07:43:59Z</time>
      </trkpt>
      <trkpt lat="48.70673" lon="2.04182">
        <ele>28</ele>
        <time>2012-04-08T07:44:03Z</time>
      </trkpt>
      <trkpt lat="48.70673" lon="2.04189">
        <ele>26</ele>
        <time>2012-04-08T07:44:06Z</time>
      </trkpt>
      <trkpt lat="48.70677" lon="2.04202">
        <ele>26</ele>
        <time>2012-04-08T07:44:12Z</time>
      </trkpt>
      <trkpt lat="48.7068" lon="2.04215">
        <ele>29</ele>
        <time>2012-04-08T07:44:21Z</time>
      </trkpt>
      <trkpt lat="48.7068" lon="2.04223">
        <ele>29</ele>
        <time>2012-04-08T07:44:25Z</time>
      </trkpt>
      <trkpt lat="48.70678" lon="2.04238">
        <ele>26</ele>
        <time>2012-04-08T07:44:35Z</time>
      </trkpt>
      <trkpt lat="48.70678" lon="2.04247">
        <ele>27</ele>
        <time>2012-04-08T07:44:40Z</time>
      </trkpt>
      <trkpt lat="48.70677" lon="2.04255">
        <ele>27</ele>
        <time>2012-04-08T07:44:45Z</time>
      </trkpt>
      <trkpt lat="48.70675" lon="2.04264">
        <ele>28</ele>
        <time>2012-04-08T07:44:49Z</time>
      </trkpt>
      <trkpt lat="48.70674" lon="2.0427">
        <ele>28</ele>
        <time>2012-04-08T07:44:53Z</time>
      </trkpt>
      <trkpt lat="48.70672" lon="2.0428">
        <ele>23</ele>
        <time>2012-04-08T07:45:01Z</time>
      </trkpt>
      <trkpt lat="48.70675" lon="2.04287">
        <ele>23</ele>
        <time>2012-04-08T07:45:06Z</time>
      </trkpt>
      <trkpt lat="48.70677" lon="2.04301">
        <ele>25</ele>
        <time>2012-04-08T07:45:14Z</time>
      </trkpt>
      <trkpt lat="48.70678" lon="2.04309">
        <ele>24</ele>
        <time>2012-04-08T07:45:17Z</time>
      </trkpt>
      <trkpt lat="48.7068" lon="2.04316">
        <ele>25</ele>
        <time>2012-04-08T07:45:20Z</time>
      </trkpt>
      <trkpt lat="48.70681" lon="2.04324">
        <ele>25</ele>
        <time>2012-04-08T07:45:23Z</time>
      </trkpt>
      <trkpt lat="48.70681" lon="2.04332">
        <ele>26</ele>
        <time>2012-04-08T07:45:26Z</time>
      </trkpt>
      <trkpt lat="48.70682" lon="2.04353">
        <ele>22</ele>
        <time>2012-04-08T07:45:38Z</time>
      </trkpt>
      <trkpt lat="48.70685" lon="2.04374">
        <ele>28</ele>
        <time>2012-04-08T07:45:58Z</time>
      </trkpt>
      <trkpt lat="48.70681" lon="2.0438">
        <ele>29</ele>
        <time>2012-04-08T07:46:05Z</time>
      </trkpt>
      <trkpt lat="48.70677" lon="2.04396">
        <ele>29</ele>
        <time>2012-04-08T07:46:14Z</time>
      </trkpt>
      <trkpt lat="48.70677" lon="2.04403">
        <ele>27</ele>
        <time>2012-04-08T07:46:18Z</time>
      </trkpt>
      <trkpt lat="48.70676" lon="2.0441">
        <ele>28</ele>
        <time>2012-04-08T07:46:22Z</time>
      </trkpt>
      <trkpt lat="48.70674" lon="2.04417">
        <ele>28</ele>
        <time>2012-04-08T07:46:27Z</time>
      </trkpt>
      <trkpt lat="48.70673" lon="2.04425">
        <ele>27</ele>
        <time>2012-04-08T07:46:32Z</time>
      </trkpt>
      <trkpt lat="48.70671" lon="2.04431">
        <ele>28</ele>
        <time>2012-04-08T07:46:37Z</time>
      </trkpt>
      <trkpt lat="48.70666" lon="2.04444">
        <ele>28</ele>
        <time>2012-04-08T07:46:46Z</time>
      </trkpt>
      <trkpt lat="48.70666" lon="2.04452">
        <ele>28</ele>
        <time>2012-04-08T07:46:51Z</time>
      </trkpt>
      <trkpt lat="48.70665" lon="2.04459">
        <ele>27</ele>
        <time>2012-04-08T07:46:53Z</time>
      </trkpt>
      <trkpt lat="48.70665" lon="2.04473">
        <ele>27</ele>
        <time>2012-04-08T07:47:02Z</time>
      </trkpt>
      <trkpt lat="48.70666" lon="2.04479">
        <ele>29</ele>
        <time>2012-04-08T07:47:10Z</time>
      </trkpt>
      <trkpt lat="48.70668" lon="2.04486">
        <ele>29</ele>
        <time>2012-04-08T07:47:16Z</time>
      </trkpt>
      <trkpt lat="48.70671" lon="2.04491">
        <ele>26</ele>
        <time>2012-04-08T07:47:22Z</time>
      </trkpt>
      <trkpt lat="48.70669" lon="2.04497">
        <ele>26</ele>
        <time>2012-04-08T07:47:27Z</time>
      </trkpt>
      <trkpt lat="48.70667" lon="2.04506">
        <ele>26</ele>
        <time>2012-04-08T07:47:30Z</time>
      </trkpt>
      <trkpt lat="48.70666" lon="2.04524">
        <ele>28</ele>
        <time>2012-04-08T07:47:37Z</time>
      </trkpt>
      <trkpt lat="48.70666" lon="2.04531">
        <ele>25</ele>
        <time>2012-04-08T07:47:39Z</time>
      </trkpt>
      <trkpt lat="48.70666" lon="2.04539">
        <ele>26</ele>
        <time>2012-04-08T07:47:41Z</time>
      </trkpt>
      <trkpt lat="48.70663" lon="2.04543">
        <ele>25</ele>
        <time>2012-04-08T07:47:48Z</time>
      </trkpt>
      <trkpt lat="48.70658" lon="2.04572">
        <ele>25</ele>
        <time>2012-04-08T07:47:59Z</time>
      </trkpt>
      <trkpt lat="48.70657" lon="2.04596">
        <ele>30</ele>
        <time>2012-04-08T07:48:09Z</time>
      </trkpt>
      <trkpt lat="48.70656" lon="2.04603">
        <ele>30</ele>
        <time>2012-04-08T07:48:12Z</time>
      </trkpt>
      <trkpt lat="48.70656" lon="2.04612">
        <ele>34</ele>
        <time>2012-04-08T07:48:16Z</time>
      </trkpt>
      <trkpt lat="48.70655" lon="2.0462">
        <ele>34</ele>
        <time>2012-04-08T07:48:19Z</time>
      </trkpt>
      <trkpt lat="48.70655" lon="2.04627">
        <ele>35</ele>
        <time>2012-04-08T07:48:23Z</time>
      </trkpt>
      <trkpt lat="48.70654" lon="2.04635">
        <ele>35</ele>
        <time>2012-04-08T07:48:28Z</time>
      </trkpt>
      <trkpt lat="48.70652" lon="2.04641">
        <ele>34</ele>
        <time>2012-04-08T07:48:33Z</time>
      </trkpt>
      <trkpt lat="48.7065" lon="2.04647">
        <ele>34</ele>
        <time>2012-04-08T07:48:37Z</time>
      </trkpt>
      <trkpt lat="48.70646" lon="2.04652">
        <ele>33</ele>
        <time>2012-04-08T07:48:45Z</time>
      </trkpt>
      <trkpt lat="48.70644" lon="2.04658">
        <ele>33</ele>
        <time>2012-04-08T07:48:50Z</time>
      </trkpt>
      <trkpt lat="48.70646" lon="2.04664">
        <ele>33</ele>
        <time>2012-04-08T07:48:58Z</time>
      </trkpt>
      <trkpt lat="48.70649" lon="2.0467">
        <ele>33</ele>
        <time>2012-04-08T07:49:01Z</time>
      </trkpt>
      <trkpt lat="48.7065" lon="2.04701">
        <ele>25</ele>
        <time>2012-04-08T07:49:17Z</time>
      </trkpt>
      <trkpt lat="48.70651" lon="2.04708">
        <ele>25</ele>
        <time>2012-04-08T07:49:19Z</time>
      </trkpt>
      <trkpt lat="48.70652" lon="2.04714">
        <ele>20</ele>
        <time>2012-04-08T07:49:24Z</time>
      </trkpt>
      <trkpt lat="48.70652" lon="2.04722">
        <ele>26</ele>
        <time>2012-04-08T07:49:29Z</time>
      </trkpt>
      <trkpt lat="48.70653" lon="2.0473">
        <ele>25</ele>
        <time>2012-04-08T07:49:32Z</time>
      </trkpt>
      <trkpt lat="48.70654" lon="2.04738">
        <ele>25</ele>
        <time>2012-04-08T07:49:37Z</time>
      </trkpt>
      <trkpt lat="48.70654" lon="2.04745">
        <ele>24</ele>
        <time>2012-04-08T07:49:39Z</time>
      </trkpt>
      <trkpt lat="48.70655" lon="2.04752">
        <ele>24</ele>
        <time>2012-04-08T07:49:42Z</time>
      </trkpt>
      <trkpt lat="48.70655" lon="2.04759">
        <ele>26</ele>
        <time>2012-04-08T07:49:45Z</time>
      </trkpt>
      <trkpt lat="48.70656" lon="2.04766">
        <ele>25</ele>
        <time>2012-04-08T07:49:49Z</time>
      </trkpt>
      <trkpt lat="48.70659" lon="2.04773">
        <ele>25</ele>
        <time>2012-04-08T07:49:52Z</time>
      </trkpt>
      <trkpt lat="48.70659" lon="2.0478">
        <ele>26</ele>
        <time>2012-04-08T07:49:57Z</time>
      </trkpt>
      <trkpt lat="48.70661" lon="2.04787">
        <ele>26</ele>
        <time>2012-04-08T07:50:00Z</time>
      </trkpt>
      <trkpt lat="48.70658" lon="2.04794">
        <ele>27</ele>
        <time>2012-04-08T07:50:03Z</time>
      </trkpt>
      <trkpt lat="48.70657" lon="2.04816">
        <ele>29</ele>
        <time>2012-04-08T07:50:15Z</time>
      </trkpt>
      <trkpt lat="48.70659" lon="2.04822">
        <ele>31</ele>
        <time>2012-04-08T07:50:18Z</time>
      </trkpt>
      <trkpt lat="48.70657" lon="2.04828">
        <ele>26</ele>
        <time>2012-04-08T07:50:26Z</time>
      </trkpt>
      <trkpt lat="48.70649" lon="2.04848">
        <ele>20</ele>
        <time>2012-04-08T07:50:36Z</time>
      </trkpt>
      <trkpt lat="48.70646" lon="2.04854">
        <ele>25</ele>
        <time>2012-04-08T07:50:39Z</time>
      </trkpt>
      <trkpt lat="48.70644" lon="2.0486">
        <ele>24</ele>
        <time>2012-04-08T07:50:42Z</time>
      </trkpt>
      <trkpt lat="48.70644" lon="2.04867">
        <ele>24</ele>
        <time>2012-04-08T07:50:44Z</time>
      </trkpt>
      <trkpt lat="48.70644" lon="2.04875">
        <ele>23</ele>
        <time>2012-04-08T07:50:48Z</time>
      </trkpt>
      <trkpt lat="48.70646" lon="2.04881">
        <ele>27</ele>
        <time>2012-04-08T07:50:54Z</time>
      </trkpt>
      <trkpt lat="48.70644" lon="2.04888">
        <ele>27</ele>
        <time>2012-04-08T07:50:59Z</time>
      </trkpt>
      <trkpt lat="48.70641" lon="2.04904">
        <ele>24</ele>
        <time>2012-04-08T07:51:07Z</time>
      </trkpt>
      <trkpt lat="48.7064" lon="2.04918">
        <ele>24</ele>
        <time>2012-04-08T07:51:17Z</time>
      </trkpt>
      <trkpt lat="48.70638" lon="2.04924">
        <ele>23</ele>
        <time>2012-04-08T07:51:20Z</time>
      </trkpt>
      <trkpt lat="48.70633" lon="2.0493">
        <ele>24</ele>
        <time>2012-04-08T07:51:23Z</time>
      </trkpt>
      <trkpt lat="48.70635" lon="2.04936">
        <ele>23</ele>
        <time>2012-04-08T07:51:29Z</time>
      </trkpt>
      <trkpt lat="48.70639" lon="2.0494">
        <ele>26</ele>
        <time>2012-04-08T07:51:34Z</time>
      </trkpt>
      <trkpt lat="48.70638" lon="2.04947">
        <ele>26</ele>
        <time>2012-04-08T07:51:37Z</time>
      </trkpt>
      <trkpt lat="48.70635" lon="2.04955">
        <ele>25</ele>
        <time>2012-04-08T07:51:41Z</time>
      </trkpt>
      <trkpt lat="48.70633" lon="2.04962">
        <ele>25</ele>
        <time>2012-04-08T07:51:43Z</time>
      </trkpt>
      <trkpt lat="48.70633" lon="2.04978">
        <ele>28</ele>
        <time>2012-04-08T07:51:51Z</time>
      </trkpt>
      <trkpt lat="48.70631" lon="2.04984">
        <ele>28</ele>
        <time>2012-04-08T07:51:54Z</time>
      </trkpt>
      <trkpt lat="48.7063" lon="2.04991">
        <ele>27</ele>
        <time>2012-04-08T07:51:58Z</time>
      </trkpt>
      <trkpt lat="48.70631" lon="2.04998">
        <ele>30</ele>
        <time>2012-04-08T07:52:05Z</time>
      </trkpt>
      <trkpt lat="48.70624" lon="2.05028">
        <ele>26</ele>
        <time>2012-04-08T07:52:19Z</time>
      </trkpt>
      <trkpt lat="48.70624" lon="2.05035">
        <ele>26</ele>
        <time>2012-04-08T07:52:24Z</time>
      </trkpt>
      <trkpt lat="48.70622" lon="2.05042">
        <ele>25</ele>
        <time>2012-04-08T07:52:29Z</time>
      </trkpt>
      <trkpt lat="48.7062" lon="2.05063">
        <ele>25</ele>
        <time>2012-04-08T07:52:37Z</time>
      </trkpt>
      <trkpt lat="48.70618" lon="2.05069">
        <ele>27</ele>
        <time>2012-04-08T07:52:41Z</time>
      </trkpt>
      <trkpt lat="48.70615" lon="2.05085">
        <ele>27</ele>
        <time>2012-04-08T07:52:48Z</time>
      </trkpt>
      <trkpt lat="48.70611" lon="2.05089">
        <ele>23</ele>
        <time>2012-04-08T07:52:55Z</time>
      </trkpt>
      <trkpt lat="48.70609" lon="2.05114">
        <ele>23</ele>
        <time>2012-04-08T07:53:08Z</time>
      </trkpt>
      <trkpt lat="48.70608" lon="2.05123">
        <ele>26</ele>
        <time>2012-04-08T07:53:12Z</time>
      </trkpt>
      <trkpt lat="48.70609" lon="2.05131">
        <ele>26</ele>
        <time>2012-04-08T07:53:15Z</time>
      </trkpt>
      <trkpt lat="48.70609" lon="2.05137">
        <ele>27</ele>
        <time>2012-04-08T07:53:19Z</time>
      </trkpt>
      <trkpt lat="48.70603" lon="2.05149">
        <ele>22</ele>
        <time>2012-04-08T07:53:28Z</time>
      </trkpt>
      <trkpt lat="48.70593" lon="2.05156">
        <ele>26</ele>
        <time>2012-04-08T07:53:35Z</time>
      </trkpt>
      <trkpt lat="48.70588" lon="2.05156">
        <ele>24</ele>
        <time>2012-04-08T07:53:40Z</time>
      </trkpt>
      <trkpt lat="48.70582" lon="2.05155">
        <ele>24</ele>
        <time>2012-04-08T07:53:44Z</time>
      </trkpt>
      <trkpt lat="48.70577" lon="2.05155">
        <ele>25</ele>
        <time>2012-04-08T07:53:48Z</time>
      </trkpt>
      <trkpt lat="48.70572" lon="2.05159">
        <ele>26</ele>
        <time>2012-04-08T07:53:52Z</time>
      </trkpt>
      <trkpt lat="48.70568" lon="2.05165">
        <ele>27</ele>
        <time>2012-04-08T07:53:56Z</time>
      </trkpt>
      <trkpt lat="48.70565" lon="2.05172">
        <ele>26</ele>
        <time>2012-04-08T07:54:00Z</time>
      </trkpt>
      <trkpt lat="48.70562" lon="2.05178">
        <ele>27</ele>
        <time>2012-04-08T07:54:02Z</time>
      </trkpt>
      <trkpt lat="48.70561" lon="2.05178">
        <ele>21</ele>
        <time>2012-04-08T07:54:34Z</time>
      </trkpt>
      <trkpt lat="48.70561" lon="2.05185">
        <ele>21</ele>
        <time>2012-04-08T07:54:38Z</time>
      </trkpt>
      <trkpt lat="48.70565" lon="2.05189">
        <ele>24</ele>
        <time>2012-04-08T07:54:42Z</time>
      </trkpt>
      <trkpt lat="48.70568" lon="2.0519">
        <ele>23</ele>
        <time>2012-04-08T07:54:52Z</time>
      </trkpt>
      <trkpt lat="48.70567" lon="2.05198">
        <ele>24</ele>
        <time>2012-04-08T07:54:57Z</time>
      </trkpt>
      <trkpt lat="48.70564" lon="2.05196">
        <ele>24</ele>
        <time>2012-04-08T07:55:06Z</time>
      </trkpt>
      <trkpt lat="48.7056" lon="2.05202">
        <ele>20</ele>
        <time>2012-04-08T07:55:09Z</time>
      </trkpt>
      <trkpt lat="48.70557" lon="2.05207">
        <ele>18</ele>
        <time>2012-04-08T07:55:13Z</time>
      </trkpt>
      <trkpt lat="48.70536" lon="2.0524">
        <ele>26</ele>
        <time>2012-04-08T07:55:38Z</time>
      </trkpt>
      <trkpt lat="48.70533" lon="2.05248">
        <ele>25</ele>
        <time>2012-04-08T07:55:41Z</time>
      </trkpt>
      <trkpt lat="48.7053" lon="2.05254">
        <ele>28</ele>
        <time>2012-04-08T07:55:45Z</time>
      </trkpt>
      <trkpt lat="48.70526" lon="2.05258">
        <ele>28</ele>
        <time>2012-04-08T07:55:50Z</time>
      </trkpt>
      <trkpt lat="48.70523" lon="2.05263">
        <ele>29</ele>
        <time>2012-04-08T07:55:55Z</time>
      </trkpt>
      <trkpt lat="48.70519" lon="2.0527">
        <ele>29</ele>
        <time>2012-04-08T07:56:00Z</time>
      </trkpt>
      <trkpt lat="48.70514" lon="2.05283">
        <ele>26</ele>
        <time>2012-04-08T07:56:07Z</time>
      </trkpt>
      <trkpt lat="48.70513" lon="2.05289">
        <ele>27</ele>
        <time>2012-04-08T07:56:11Z</time>
      </trkpt>
      <trkpt lat="48.70514" lon="2.05297">
        <ele>26</ele>
        <time>2012-04-08T07:56:15Z</time>
      </trkpt>
      <trkpt lat="48.70511" lon="2.05304">
        <ele>28</ele>
        <time>2012-04-08T07:56:20Z</time>
      </trkpt>
      <trkpt lat="48.70508" lon="2.0531">
        <ele>27</ele>
        <time>2012-04-08T07:56:23Z</time>
      </trkpt>
      <trkpt lat="48.70509" lon="2.05316">
        <ele>30</ele>
        <time>2012-04-08T07:56:28Z</time>
      </trkpt>
      <trkpt lat="48.70512" lon="2.05323">
        <ele>28</ele>
        <time>2012-04-08T07:56:33Z</time>
      </trkpt>
      <trkpt lat="48.7051" lon="2.0533">
        <ele>28</ele>
        <time>2012-04-08T07:56:36Z</time>
      </trkpt>
      <trkpt lat="48.70505" lon="2.05342">
        <ele>28</ele>
        <time>2012-04-08T07:56:43Z</time>
      </trkpt>
      <trkpt lat="48.70501" lon="2.05347">
        <ele>27</ele>
        <time>2012-04-08T07:56:48Z</time>
      </trkpt>
      <trkpt lat="48.70498" lon="2.05353">
        <ele>27</ele>
        <time>2012-04-08T07:56:52Z</time>
      </trkpt>
      <trkpt lat="48.70491" lon="2.05367">
        <ele>31</ele>
        <time>2012-04-08T07:56:59Z</time>
      </trkpt>
      <trkpt lat="48.70488" lon="2.05372">
        <ele>30</ele>
        <time>2012-04-08T07:57:04Z</time>
      </trkpt>
      <trkpt lat="48.70485" lon="2.05377">
        <ele>32</ele>
        <time>2012-04-08T07:57:09Z</time>
      </trkpt>
      <trkpt lat="48.70481" lon="2.05382">
        <ele>30</ele>
        <time>2012-04-08T07:57:14Z</time>
      </trkpt>
      <trkpt lat="48.70478" lon="2.05389">
        <ele>30</ele>
        <time>2012-04-08T07:57:19Z</time>
      </trkpt>
      <trkpt lat="48.70476" lon="2.05396">
        <ele>31</ele>
        <time>2012-04-08T07:57:24Z</time>
      </trkpt>
      <trkpt lat="48.70474" lon="2.05403">
        <ele>31</ele>
        <time>2012-04-08T07:57:27Z</time>
      </trkpt>
      <trkpt lat="48.70471" lon="2.0541">
        <ele>33</ele>
        <time>2012-04-08T07:57:31Z</time>
      </trkpt>
      <trkpt lat="48.70468" lon="2.05416">
        <ele>33</ele>
        <time>2012-04-08T07:57:35Z</time>
      </trkpt>
      <trkpt lat="48.70458" lon="2.05443">
        <ele>28</ele>
        <time>2012-04-08T07:57:54Z</time>
      </trkpt>
      <trkpt lat="48.70454" lon="2.05447">
        <ele>30</ele>
        <time>2012-04-08T07:57:59Z</time>
      </trkpt>
      <trkpt lat="48.7045" lon="2.05453">
        <ele>29</ele>
        <time>2012-04-08T07:58:02Z</time>
      </trkpt>
      <trkpt lat="48.70448" lon="2.05458">
        <ele>29</ele>
        <time>2012-04-08T07:58:05Z</time>
      </trkpt>
      <trkpt lat="48.70442" lon="2.05479">
        <ele>25</ele>
        <time>2012-04-08T07:58:18Z</time>
      </trkpt>
      <trkpt lat="48.70439" lon="2.05483">
        <ele>27</ele>
        <time>2012-04-08T07:58:22Z</time>
      </trkpt>
      <trkpt lat="48.70437" lon="2.05489">
        <ele>26</ele>
        <time>2012-04-08T07:58:25Z</time>
      </trkpt>
      <trkpt lat="48.70435" lon="2.05497">
        <ele>27</ele>
        <time>2012-04-08T07:58:28Z</time>
      </trkpt>
      <trkpt lat="48.70434" lon="2.05504">
        <ele>26</ele>
        <time>2012-04-08T07:58:34Z</time>
      </trkpt>
      <trkpt lat="48.70434" lon="2.05512">
        <ele>31</ele>
        <time>2012-04-08T07:58:39Z</time>
      </trkpt>
      <trkpt lat="48.70433" lon="2.05518">
        <ele>29</ele>
        <time>2012-04-08T07:58:42Z</time>
      </trkpt>
      <trkpt lat="48.7043" lon="2.05525">
        <ele>29</ele>
        <time>2012-04-08T07:58:47Z</time>
      </trkpt>
      <trkpt lat="48.70427" lon="2.0553">
        <ele>31</ele>
        <time>2012-04-08T07:58:50Z</time>
      </trkpt>
      <trkpt lat="48.70424" lon="2.05537">
        <ele>26</ele>
        <time>2012-04-08T07:58:53Z</time>
      </trkpt>
      <trkpt lat="48.70424" lon="2.05544">
        <ele>27</ele>
        <time>2012-04-08T07:59:01Z</time>
      </trkpt>
      <trkpt lat="48.7042" lon="2.05546">
        <ele>29</ele>
        <time>2012-04-08T07:59:17Z</time>
      </trkpt>
      <trkpt lat="48.7041" lon="2.05548">
        <ele>31</ele>
        <time>2012-04-08T07:59:26Z</time>
      </trkpt>
      <trkpt lat="48.70394" lon="2.05548">
        <ele>31</ele>
        <time>2012-04-08T07:59:44Z</time>
      </trkpt>
      <trkpt lat="48.70389" lon="2.0555">
        <ele>30</ele>
        <time>2012-04-08T07:59:48Z</time>
      </trkpt>
      <trkpt lat="48.7037" lon="2.05549">
        <ele>34</ele>
        <time>2012-04-08T08:00:05Z</time>
      </trkpt>
      <trkpt lat="48.70365" lon="2.0555">
        <ele>34</ele>
        <time>2012-04-08T08:00:10Z</time>
      </trkpt>
      <trkpt lat="48.70363" lon="2.05557">
        <ele>34</ele>
        <time>2012-04-08T08:00:15Z</time>
      </trkpt>
      <trkpt lat="48.7036" lon="2.05563">
        <ele>31</ele>
        <time>2012-04-08T08:00:21Z</time>
      </trkpt>
      <trkpt lat="48.70355" lon="2.05563">
        <ele>31</ele>
        <time>2012-04-08T08:00:25Z</time>
      </trkpt>
      <trkpt lat="48.70345" lon="2.05561">
        <ele>24</ele>
        <time>2012-04-08T08:00:37Z</time>
      </trkpt>
      <trkpt lat="48.70335" lon="2.05559">
        <ele>26</ele>
        <time>2012-04-08T08:00:46Z</time>
      </trkpt>
      <trkpt lat="48.7033" lon="2.05558">
        <ele>25</ele>
        <time>2012-04-08T08:00:50Z</time>
      </trkpt>
      <trkpt lat="48.70325" lon="2.05557">
        <ele>27</ele>
        <time>2012-04-08T08:00:54Z</time>
      </trkpt>
      <trkpt lat="48.70315" lon="2.05555">
        <ele>27</ele>
        <time>2012-04-08T08:01:02Z</time>
      </trkpt>
      <trkpt lat="48.70281" lon="2.05541">
        <ele>39</ele>
        <time>2012-04-08T08:01:33Z</time>
      </trkpt>
      <trkpt lat="48.70276" lon="2.05541">
        <ele>38</ele>
        <time>2012-04-08T08:01:37Z</time>
      </trkpt>
      <trkpt lat="48.70265" lon="2.05545">
        <ele>40</ele>
        <time>2012-04-08T08:01:45Z</time>
      </trkpt>
      <trkpt lat="48.70255" lon="2.05545">
        <ele>36</ele>
        <time>2012-04-08T08:01:55Z</time>
      </trkpt>
      <trkpt lat="48.70245" lon="2.05542">
        <ele>40</ele>
        <time>2012-04-08T08:02:04Z</time>
      </trkpt>
      <trkpt lat="48.70241" lon="2.05541">
        <ele>39</ele>
        <time>2012-04-08T08:02:09Z</time>
      </trkpt>
      <trkpt lat="48.70239" lon="2.05548">
        <ele>41</ele>
        <time>2012-04-08T08:02:14Z</time>
      </trkpt>
      <trkpt lat="48.70238" lon="2.05555">
        <ele>39</ele>
        <time>2012-04-08T08:02:19Z</time>
      </trkpt>
      <trkpt lat="48.70235" lon="2.0556">
        <ele>40</ele>
        <time>2012-04-08T08:02:23Z</time>
      </trkpt>
      <trkpt lat="48.7023" lon="2.0556">
        <ele>39</ele>
        <time>2012-04-08T08:02:27Z</time>
      </trkpt>
      <trkpt lat="48.70219" lon="2.05561">
        <ele>42</ele>
        <time>2012-04-08T08:02:41Z</time>
      </trkpt>
      <trkpt lat="48.70216" lon="2.05557">
        <ele>42</ele>
        <time>2012-04-08T08:02:46Z</time>
      </trkpt>
      <trkpt lat="48.70211" lon="2.05558">
        <ele>42</ele>
        <time>2012-04-08T08:02:51Z</time>
      </trkpt>
      <trkpt lat="48.70202" lon="2.05565">
        <ele>45</ele>
        <time>2012-04-08T08:02:56Z</time>
      </trkpt>
      <trkpt lat="48.70197" lon="2.05569">
        <ele>45</ele>
        <time>2012-04-08T08:03:00Z</time>
      </trkpt>
      <trkpt lat="48.70193" lon="2.05573">
        <ele>46</ele>
        <time>2012-04-08T08:03:03Z</time>
      </trkpt>
      <trkpt lat="48.70186" lon="2.05583">
        <ele>43</ele>
        <time>2012-04-08T08:03:11Z</time>
      </trkpt>
      <trkpt lat="48.70182" lon="2.05586">
        <ele>49</ele>
        <time>2012-04-08T08:03:16Z</time>
      </trkpt>
      <trkpt lat="48.70183" lon="2.05588">
        <ele>52</ele>
        <time>2012-04-08T08:03:24Z</time>
      </trkpt>
      <trkpt lat="48.70177" lon="2.05592">
        <ele>53</ele>
        <time>2012-04-08T08:03:30Z</time>
      </trkpt>
      <trkpt lat="48.70168" lon="2.056">
        <ele>48</ele>
        <time>2012-04-08T08:03:36Z</time>
      </trkpt>
      <trkpt lat="48.70164" lon="2.05603">
        <ele>48</ele>
        <time>2012-04-08T08:03:38Z</time>
      </trkpt>
      <trkpt lat="48.70159" lon="2.05606">
        <ele>46</ele>
        <time>2012-04-08T08:03:44Z</time>
      </trkpt>
      <trkpt lat="48.70149" lon="2.05611">
        <ele>49</ele>
        <time>2012-04-08T08:03:51Z</time>
      </trkpt>
      <trkpt lat="48.70144" lon="2.05614">
        <ele>47</ele>
        <time>2012-04-08T08:03:54Z</time>
      </trkpt>
      <trkpt lat="48.70129" lon="2.05625">
        <ele>47</ele>
        <time>2012-04-08T08:04:09Z</time>
      </trkpt>
      <trkpt lat="48.70104" lon="2.05632">
        <ele>54</ele>
        <time>2012-04-08T08:04:25Z</time>
      </trkpt>
      <trkpt lat="48.70098" lon="2.05634">
        <ele>52</ele>
        <time>2012-04-08T08:04:29Z</time>
      </trkpt>
      <trkpt lat="48.70087" lon="2.05638">
        <ele>54</ele>
        <time>2012-04-08T08:04:38Z</time>
      </trkpt>
      <trkpt lat="48.70082" lon="2.05637">
        <ele>55</ele>
        <time>2012-04-08T08:04:43Z</time>
      </trkpt>
      <trkpt lat="48.70066" lon="2.05618">
        <ele>66</ele>
        <time>2012-04-08T08:04:59Z</time>
      </trkpt>
      <trkpt lat="48.70062" lon="2.05614">
        <ele>65</ele>
        <time>2012-04-08T08:05:06Z</time>
      </trkpt>
      <trkpt lat="48.70047" lon="2.05609">
        <ele>65</ele>
        <time>2012-04-08T08:05:19Z</time>
      </trkpt>
      <trkpt lat="48.70038" lon="2.05607">
        <ele>70</ele>
        <time>2012-04-08T08:05:25Z</time>
      </trkpt>
      <trkpt lat="48.70033" lon="2.05605">
        <ele>67</ele>
        <time>2012-04-08T08:05:30Z</time>
      </trkpt>
      <trkpt lat="48.70031" lon="2.05599">
        <ele>66</ele>
        <time>2012-04-08T08:05:38Z</time>
      </trkpt>
      <trkpt lat="48.70027" lon="2.05601">
        <ele>68</ele>
        <time>2012-04-08T08:05:41Z</time>
      </trkpt>
      <trkpt lat="48.70022" lon="2.05602">
        <ele>70</ele>
        <time>2012-04-08T08:05:44Z</time>
      </trkpt>
      <trkpt lat="48.70018" lon="2.05599">
        <ele>69</ele>
        <time>2012-04-08T08:05:49Z</time>
      </trkpt>
      <trkpt lat="48.70013" lon="2.056">
        <ele>69</ele>
        <time>2012-04-08T08:05:52Z</time>
      </trkpt>
      <trkpt lat="48.70007" lon="2.05599">
        <ele>68</ele>
        <time>2012-04-08T08:05:55Z</time>
      </trkpt>
      <trkpt lat="48.70002" lon="2.05596">
        <ele>68</ele>
        <time>2012-04-08T08:05:58Z</time>
      </trkpt>
      <trkpt lat="48.69997" lon="2.05596">
        <ele>70</ele>
        <time>2012-04-08T08:06:03Z</time>
      </trkpt>
      <trkpt lat="48.69991" lon="2.05594">
        <ele>70</ele>
        <time>2012-04-08T08:06:06Z</time>
      </trkpt>
      <trkpt lat="48.69987" lon="2.05592">
        <ele>69</ele>
        <time>2012-04-08T08:06:14Z</time>
      </trkpt>
      <trkpt lat="48.69973" lon="2.05585">
        <ele>69</ele>
        <time>2012-04-08T08:06:26Z</time>
      </trkpt>
      <trkpt lat="48.69957" lon="2.05583">
        <ele>77</ele>
        <time>2012-04-08T08:06:37Z</time>
      </trkpt>
      <trkpt lat="48.69952" lon="2.05582">
        <ele>77</ele>
        <time>2012-04-08T08:06:42Z</time>
      </trkpt>
      <trkpt lat="48.69947" lon="2.05581">
        <ele>83</ele>
        <time>2012-04-08T08:06:46Z</time>
      </trkpt>
      <trkpt lat="48.69943" lon="2.0558">
        <ele>81</ele>
        <time>2012-04-08T08:06:50Z</time>
      </trkpt>
      <trkpt lat="48.69937" lon="2.0558">
        <ele>82</ele>
        <time>2012-04-08T08:06:56Z</time>
      </trkpt>
      <trkpt lat="48.69933" lon="2.0558">
        <ele>82</ele>
        <time>2012-04-08T08:07:00Z</time>
      </trkpt>
      <trkpt lat="48.69928" lon="2.05581">
        <ele>84</ele>
        <time>2012-04-08T08:07:04Z</time>
      </trkpt>
      <trkpt lat="48.69924" lon="2.05579">
        <ele>90</ele>
        <time>2012-04-08T08:07:13Z</time>
      </trkpt>
      <trkpt lat="48.69919" lon="2.05579">
        <ele>87</ele>
        <time>2012-04-08T08:07:19Z</time>
      </trkpt>
      <trkpt lat="48.69914" lon="2.05579">
        <ele>90</ele>
        <time>2012-04-08T08:07:23Z</time>
      </trkpt>
      <trkpt lat="48.69909" lon="2.05578">
        <ele>85</ele>
        <time>2012-04-08T08:07:27Z</time>
      </trkpt>
      <trkpt lat="48.69904" lon="2.05578">
        <ele>89</ele>
        <time>2012-04-08T08:07:30Z</time>
      </trkpt>
      <trkpt lat="48.69899" lon="2.05575">
        <ele>87</ele>
        <time>2012-04-08T08:07:39Z</time>
      </trkpt>
      <trkpt lat="48.69896" lon="2.05575">
        <ele>90</ele>
        <time>2012-04-08T08:07:45Z</time>
      </trkpt>
      <trkpt lat="48.69891" lon="2.05575">
        <ele>90</ele>
        <time>2012-04-08T08:07:48Z</time>
      </trkpt>
      <trkpt lat="48.69886" lon="2.05574">
        <ele>89</ele>
        <time>2012-04-08T08:07:50Z</time>
      </trkpt>
      <trkpt lat="48.69871" lon="2.05572">
        <ele>96</ele>
        <time>2012-04-08T08:08:03Z</time>
      </trkpt>
      <trkpt lat="48.69866" lon="2.0557">
        <ele>96</ele>
        <time>2012-04-08T08:08:07Z</time>
      </trkpt>
      <trkpt lat="48.69861" lon="2.05568">
        <ele>95</ele>
        <time>2012-04-08T08:08:12Z</time>
      </trkpt>
      <trkpt lat="48.69863" lon="2.05566">
        <ele>96</ele>
        <time>2012-04-08T08:08:17Z</time>
      </trkpt>
      <trkpt lat="48.69863" lon="2.05559">
        <ele>97</ele>
        <time>2012-04-08T08:08:38Z</time>
      </trkpt>
      <trkpt lat="48.69857" lon="2.05561">
        <ele>94</ele>
        <time>2012-04-08T08:08:49Z</time>
      </trkpt>
      <trkpt lat="48.69855" lon="2.05563">
        <ele>91</ele>
        <time>2012-04-08T08:10:08Z</time>
      </trkpt>
      <trkpt lat="48.69849" lon="2.0555">
        <ele>94</ele>
        <time>2012-04-08T08:10:19Z</time>
      </trkpt>
      <trkpt lat="48.69845" lon="2.05546">
        <ele>94</ele>
        <time>2012-04-08T08:10:28Z</time>
      </trkpt>
      <trkpt lat="48.69844" lon="2.05538">
        <ele>94</ele>
        <time>2012-04-08T08:10:32Z</time>
      </trkpt>
      <trkpt lat="48.6984" lon="2.05534">
        <ele>94</ele>
        <time>2012-04-08T08:10:38Z</time>
      </trkpt>
      <trkpt lat="48.69838" lon="2.05529">
        <ele>96</ele>
        <time>2012-04-08T08:10:42Z</time>
      </trkpt>
      <trkpt lat="48.69836" lon="2.05514">
        <ele>99</ele>
        <time>2012-04-08T08:10:47Z</time>
      </trkpt>
      <trkpt lat="48.69836" lon="2.05507">
        <ele>95</ele>
        <time>2012-04-08T08:10:52Z</time>
      </trkpt>
      <trkpt lat="48.69834" lon="2.055">
        <ele>96</ele>
        <time>2012-04-08T08:10:59Z</time>
      </trkpt>
      <trkpt lat="48.69834" lon="2.05492">
        <ele>100</ele>
        <time>2012-04-08T08:11:03Z</time>
      </trkpt>
      <trkpt lat="48.69839" lon="2.05489">
        <ele>101</ele>
        <time>2012-04-08T08:11:14Z</time>
      </trkpt>
      <trkpt lat="48.6984" lon="2.05482">
        <ele>100</ele>
        <time>2012-04-08T08:11:19Z</time>
      </trkpt>
      <trkpt lat="48.69837" lon="2.05475">
        <ele>99</ele>
        <time>2012-04-08T08:11:23Z</time>
      </trkpt>
      <trkpt lat="48.69834" lon="2.05462">
        <ele>99</ele>
        <time>2012-04-08T08:11:30Z</time>
      </trkpt>
      <trkpt lat="48.69832" lon="2.05432">
        <ele>90</ele>
        <time>2012-04-08T08:11:45Z</time>
      </trkpt>
      <trkpt lat="48.69832" lon="2.05426">
        <ele>91</ele>
        <time>2012-04-08T08:11:48Z</time>
      </trkpt>
      <trkpt lat="48.69831" lon="2.05419">
        <ele>91</ele>
        <time>2012-04-08T08:11:51Z</time>
      </trkpt>
      <trkpt lat="48.69826" lon="2.05398">
        <ele>87</ele>
        <time>2012-04-08T08:12:07Z</time>
      </trkpt>
      <trkpt lat="48.69824" lon="2.0539">
        <ele>89</ele>
        <time>2012-04-08T08:12:12Z</time>
      </trkpt>
      <trkpt lat="48.69825" lon="2.05384">
        <ele>90</ele>
        <time>2012-04-08T08:12:16Z</time>
      </trkpt>
      <trkpt lat="48.69823" lon="2.05369">
        <ele>88</ele>
        <time>2012-04-08T08:12:25Z</time>
      </trkpt>
      <trkpt lat="48.69821" lon="2.05354">
        <ele>92</ele>
        <time>2012-04-08T08:12:30Z</time>
      </trkpt>
      <trkpt lat="48.6982" lon="2.05346">
        <ele>92</ele>
        <time>2012-04-08T08:12:34Z</time>
      </trkpt>
      <trkpt lat="48.69818" lon="2.0533">
        <ele>95</ele>
        <time>2012-04-08T08:12:45Z</time>
      </trkpt>
      <trkpt lat="48.69818" lon="2.05324">
        <ele>95</ele>
        <time>2012-04-08T08:12:48Z</time>
      </trkpt>
      <trkpt lat="48.69817" lon="2.05317">
        <ele>92</ele>
        <time>2012-04-08T08:12:53Z</time>
      </trkpt>
      <trkpt lat="48.69811" lon="2.05305">
        <ele>89</ele>
        <time>2012-04-08T08:13:04Z</time>
      </trkpt>
      <trkpt lat="48.69808" lon="2.05299">
        <ele>90</ele>
        <time>2012-04-08T08:13:07Z</time>
      </trkpt>
      <trkpt lat="48.69808" lon="2.05292">
        <ele>89</ele>
        <time>2012-04-08T08:13:10Z</time>
      </trkpt>
      <trkpt lat="48.69808" lon="2.05285">
        <ele>92</ele>
        <time>2012-04-08T08:13:15Z</time>
      </trkpt>
      <trkpt lat="48.6981" lon="2.05279">
        <ele>86</ele>
        <time>2012-04-08T08:13:20Z</time>
      </trkpt>
      <trkpt lat="48.69811" lon="2.05271">
        <ele>87</ele>
        <time>2012-04-08T08:13:25Z</time>
      </trkpt>
      <trkpt lat="48.6981" lon="2.05264">
        <ele>86</ele>
        <time>2012-04-08T08:13:29Z</time>
      </trkpt>
      <trkpt lat="48.69809" lon="2.05251">
        <ele>87</ele>
        <time>2012-04-08T08:13:35Z</time>
      </trkpt>
      <trkpt lat="48.6981" lon="2.05245">
        <ele>86</ele>
        <time>2012-04-08T08:13:37Z</time>
      </trkpt>
      <trkpt lat="48.69809" lon="2.05238">
        <ele>86</ele>
        <time>2012-04-08T08:13:44Z</time>
      </trkpt>
      <trkpt lat="48.6981" lon="2.05231">
        <ele>86</ele>
        <time>2012-04-08T08:13:49Z</time>
      </trkpt>
      <trkpt lat="48.69812" lon="2.05224">
        <ele>81</ele>
        <time>2012-04-08T08:13:54Z</time>
      </trkpt>
      <trkpt lat="48.69814" lon="2.05211">
        <ele>81</ele>
        <time>2012-04-08T08:14:02Z</time>
      </trkpt>
      <trkpt lat="48.69817" lon="2.05205">
        <ele>81</ele>
        <time>2012-04-08T08:14:05Z</time>
      </trkpt>
      <trkpt lat="48.69821" lon="2.052">
        <ele>83</ele>
        <time>2012-04-08T08:14:12Z</time>
      </trkpt>
      <trkpt lat="48.69825" lon="2.05179">
        <ele>83</ele>
        <time>2012-04-08T08:14:21Z</time>
      </trkpt>
      <trkpt lat="48.69824" lon="2.05172">
        <ele>85</ele>
        <time>2012-04-08T08:14:25Z</time>
      </trkpt>
      <trkpt lat="48.6982" lon="2.05158">
        <ele>83</ele>
        <time>2012-04-08T08:14:31Z</time>
      </trkpt>
      <trkpt lat="48.69818" lon="2.05143">
        <ele>87</ele>
        <time>2012-04-08T08:14:40Z</time>
      </trkpt>
      <trkpt lat="48.69815" lon="2.05137">
        <ele>88</ele>
        <time>2012-04-08T08:14:45Z</time>
      </trkpt>
      <trkpt lat="48.69814" lon="2.05129">
        <ele>86</ele>
        <time>2012-04-08T08:14:49Z</time>
      </trkpt>
      <trkpt lat="48.69816" lon="2.05099">
        <ele>92</ele>
        <time>2012-04-08T08:15:06Z</time>
      </trkpt>
      <trkpt lat="48.6982" lon="2.05095">
        <ele>93</ele>
        <time>2012-04-08T08:15:09Z</time>
      </trkpt>
      <trkpt lat="48.69823" lon="2.05087">
        <ele>94</ele>
        <time>2012-04-08T08:15:13Z</time>
      </trkpt>
      <trkpt lat="48.69824" lon="2.05079">
        <ele>94</ele>
        <time>2012-04-08T08:15:18Z</time>
      </trkpt>
      <trkpt lat="48.69827" lon="2.05064">
        <ele>96</ele>
        <time>2012-04-08T08:15:23Z</time>
      </trkpt>
      <trkpt lat="48.6983" lon="2.05058">
        <ele>96</ele>
        <time>2012-04-08T08:15:27Z</time>
      </trkpt>
      <trkpt lat="48.69833" lon="2.05045">
        <ele>99</ele>
        <time>2012-04-08T08:15:39Z</time>
      </trkpt>
      <trkpt lat="48.69837" lon="2.05029">
        <ele>99</ele>
        <time>2012-04-08T08:15:50Z</time>
      </trkpt>
      <trkpt lat="48.69838" lon="2.05023">
        <ele>98</ele>
        <time>2012-04-08T08:15:54Z</time>
      </trkpt>
      <trkpt lat="48.69842" lon="2.05021">
        <ele>93</ele>
        <time>2012-04-08T08:15:59Z</time>
      </trkpt>
      <trkpt lat="48.69848" lon="2.05023">
        <ele>94</ele>
        <time>2012-04-08T08:16:03Z</time>
      </trkpt>
      <trkpt lat="48.69852" lon="2.05029">
        <ele>92</ele>
        <time>2012-04-08T08:16:06Z</time>
      </trkpt>
      <trkpt lat="48.69852" lon="2.05037">
        <ele>89</ele>
        <time>2012-04-08T08:16:10Z</time>
      </trkpt>
      <trkpt lat="48.6985" lon="2.05034">
        <ele>84</ele>
        <time>2012-04-08T08:16:46Z</time>
      </trkpt>
      <trkpt lat="48.69846" lon="2.05029">
        <ele>84</ele>
        <time>2012-04-08T08:16:50Z</time>
      </trkpt>
      <trkpt lat="48.69843" lon="2.05025">
        <ele>83</ele>
        <time>2012-04-08T08:16:53Z</time>
      </trkpt>
      <trkpt lat="48.69844" lon="2.05018">
        <ele>82</ele>
        <time>2012-04-08T08:16:58Z</time>
      </trkpt>
      <trkpt lat="48.69846" lon="2.05002">
        <ele>84</ele>
        <time>2012-04-08T08:17:05Z</time>
      </trkpt>
      <trkpt lat="48.69848" lon="2.04994">
        <ele>84</ele>
        <time>2012-04-08T08:17:08Z</time>
      </trkpt>
      <trkpt lat="48.69849" lon="2.04987">
        <ele>83</ele>
        <time>2012-04-08T08:17:11Z</time>
      </trkpt>
      <trkpt lat="48.69855" lon="2.04973">
        <ele>87</ele>
        <time>2012-04-08T08:17:17Z</time>
      </trkpt>
      <trkpt lat="48.69857" lon="2.04966">
        <ele>87</ele>
        <time>2012-04-08T08:17:19Z</time>
      </trkpt>
      <trkpt lat="48.69865" lon="2.04947">
        <ele>92</ele>
        <time>2012-04-08T08:17:28Z</time>
      </trkpt>
      <trkpt lat="48.69868" lon="2.04942">
        <ele>92</ele>
        <time>2012-04-08T08:17:30Z</time>
      </trkpt>
      <trkpt lat="48.69871" lon="2.04936">
        <ele>90</ele>
        <time>2012-04-08T08:17:34Z</time>
      </trkpt>
      <trkpt lat="48.69875" lon="2.04932">
        <ele>93</ele>
        <time>2012-04-08T08:17:38Z</time>
      </trkpt>
      <trkpt lat="48.69891" lon="2.04927">
        <ele>88</ele>
        <time>2012-04-08T08:17:52Z</time>
      </trkpt>
      <trkpt lat="48.69896" lon="2.04925">
        <ele>89</ele>
        <time>2012-04-08T08:17:55Z</time>
      </trkpt>
      <trkpt lat="48.69905" lon="2.04915">
        <ele>87</ele>
        <time>2012-04-08T08:18:00Z</time>
      </trkpt>
      <trkpt lat="48.69907" lon="2.04908">
        <ele>86</ele>
        <time>2012-04-08T08:18:05Z</time>
      </trkpt>
      <trkpt lat="48.69911" lon="2.04892">
        <ele>88</ele>
        <time>2012-04-08T08:18:10Z</time>
      </trkpt>
      <trkpt lat="48.69915" lon="2.04878">
        <ele>88</ele>
        <time>2012-04-08T08:18:16Z</time>
      </trkpt>
      <trkpt lat="48.69918" lon="2.04873">
        <ele>89</ele>
        <time>2012-04-08T08:18:22Z</time>
      </trkpt>
      <trkpt lat="48.6992" lon="2.04866">
        <ele>89</ele>
        <time>2012-04-08T08:18:27Z</time>
      </trkpt>
      <trkpt lat="48.69922" lon="2.0486">
        <ele>88</ele>
        <time>2012-04-08T08:18:30Z</time>
      </trkpt>
      <trkpt lat="48.69923" lon="2.04852">
        <ele>84</ele>
        <time>2012-04-08T08:18:33Z</time>
      </trkpt>
      <trkpt lat="48.69919" lon="2.04847">
        <ele>81</ele>
        <time>2012-04-08T08:18:37Z</time>
      </trkpt>
      <trkpt lat="48.69918" lon="2.04841">
        <ele>87</ele>
        <time>2012-04-08T08:18:42Z</time>
      </trkpt>
      <trkpt lat="48.69917" lon="2.04834">
        <ele>87</ele>
        <time>2012-04-08T08:18:45Z</time>
      </trkpt>
      <trkpt lat="48.69917" lon="2.0482">
        <ele>89</ele>
        <time>2012-04-08T08:18:51Z</time>
      </trkpt>
      <trkpt lat="48.69915" lon="2.04812">
        <ele>89</ele>
        <time>2012-04-08T08:18:55Z</time>
      </trkpt>
      <trkpt lat="48.69915" lon="2.04806">
        <ele>86</ele>
        <time>2012-04-08T08:18:59Z</time>
      </trkpt>
      <trkpt lat="48.69917" lon="2.04798">
        <ele>86</ele>
        <time>2012-04-08T08:19:07Z</time>
      </trkpt>
      <trkpt lat="48.69921" lon="2.04792">
        <ele>86</ele>
        <time>2012-04-08T08:19:10Z</time>
      </trkpt>
      <trkpt lat="48.69922" lon="2.04786">
        <ele>87</ele>
        <time>2012-04-08T08:19:13Z</time>
      </trkpt>
      <trkpt lat="48.6992" lon="2.04779">
        <ele>84</ele>
        <time>2012-04-08T08:19:17Z</time>
      </trkpt>
      <trkpt lat="48.69912" lon="2.04767">
        <ele>81</ele>
        <time>2012-04-08T08:19:27Z</time>
      </trkpt>
      <trkpt lat="48.69911" lon="2.0476">
        <ele>82</ele>
        <time>2012-04-08T08:19:31Z</time>
      </trkpt>
      <trkpt lat="48.69909" lon="2.04731">
        <ele>75</ele>
        <time>2012-04-08T08:19:50Z</time>
      </trkpt>
      <trkpt lat="48.69911" lon="2.04723">
        <ele>75</ele>
        <time>2012-04-08T08:19:54Z</time>
      </trkpt>
      <trkpt lat="48.69911" lon="2.04669">
        <ele>87</ele>
        <time>2012-04-08T08:20:23Z</time>
      </trkpt>
      <trkpt lat="48.69913" lon="2.04663">
        <ele>85</ele>
        <time>2012-04-08T08:20:28Z</time>
      </trkpt>
      <trkpt lat="48.69913" lon="2.04649">
        <ele>90</ele>
        <time>2012-04-08T08:20:37Z</time>
      </trkpt>
      <trkpt lat="48.69914" lon="2.04641">
        <ele>89</ele>
        <time>2012-04-08T08:20:42Z</time>
      </trkpt>
      <trkpt lat="48.69916" lon="2.04635">
        <ele>90</ele>
        <time>2012-04-08T08:20:45Z</time>
      </trkpt>
      <trkpt lat="48.69919" lon="2.04627">
        <ele>89</ele>
        <time>2012-04-08T08:20:49Z</time>
      </trkpt>
      <trkpt lat="48.69926" lon="2.04617">
        <ele>89</ele>
        <time>2012-04-08T08:20:58Z</time>
      </trkpt>
      <trkpt lat="48.69932" lon="2.04606">
        <ele>83</ele>
        <time>2012-04-08T08:21:11Z</time>
      </trkpt>
      <trkpt lat="48.69936" lon="2.04601">
        <ele>83</ele>
        <time>2012-04-08T08:21:15Z</time>
      </trkpt>
      <trkpt lat="48.69939" lon="2.04597">
        <ele>85</ele>
        <time>2012-04-08T08:21:22Z</time>
      </trkpt>
      <trkpt lat="48.69939" lon="2.04589">
        <ele>83</ele>
        <time>2012-04-08T08:21:38Z</time>
      </trkpt>
      <trkpt lat="48.69943" lon="2.04581">
        <ele>83</ele>
        <time>2012-04-08T08:21:41Z</time>
      </trkpt>
      <trkpt lat="48.69946" lon="2.04577">
        <ele>82</ele>
        <time>2012-04-08T08:21:48Z</time>
      </trkpt>
      <trkpt lat="48.6995" lon="2.04572">
        <ele>82</ele>
        <time>2012-04-08T08:21:53Z</time>
      </trkpt>
      <trkpt lat="48.69952" lon="2.04564">
        <ele>84</ele>
        <time>2012-04-08T08:21:58Z</time>
      </trkpt>
      <trkpt lat="48.69955" lon="2.0456">
        <ele>84</ele>
        <time>2012-04-08T08:22:05Z</time>
      </trkpt>
      <trkpt lat="48.6996" lon="2.04558">
        <ele>83</ele>
        <time>2012-04-08T08:22:07Z</time>
      </trkpt>
      <trkpt lat="48.69965" lon="2.04555">
        <ele>83</ele>
        <time>2012-04-08T08:22:10Z</time>
      </trkpt>
      <trkpt lat="48.69969" lon="2.0455">
        <ele>85</ele>
        <time>2012-04-08T08:22:13Z</time>
      </trkpt>
      <trkpt lat="48.6997" lon="2.04543">
        <ele>84</ele>
        <time>2012-04-08T08:22:23Z</time>
      </trkpt>
      <trkpt lat="48.69974" lon="2.04539">
        <ele>81</ele>
        <time>2012-04-08T08:22:28Z</time>
      </trkpt>
      <trkpt lat="48.69978" lon="2.04537">
        <ele>79</ele>
        <time>2012-04-08T08:22:31Z</time>
      </trkpt>
      <trkpt lat="48.69982" lon="2.04533">
        <ele>82</ele>
        <time>2012-04-08T08:22:36Z</time>
      </trkpt>
      <trkpt lat="48.69986" lon="2.04528">
        <ele>77</ele>
        <time>2012-04-08T08:22:43Z</time>
      </trkpt>
      <trkpt lat="48.69994" lon="2.04515">
        <ele>82</ele>
        <time>2012-04-08T08:22:50Z</time>
      </trkpt>
      <trkpt lat="48.7" lon="2.04512">
        <ele>81</ele>
        <time>2012-04-08T08:22:55Z</time>
      </trkpt>
      <trkpt lat="48.70013" lon="2.04499">
        <ele>74</ele>
        <time>2012-04-08T08:23:09Z</time>
      </trkpt>
      <trkpt lat="48.70018" lon="2.04497">
        <ele>74</ele>
        <time>2012-04-08T08:23:11Z</time>
      </trkpt>
      <trkpt lat="48.70026" lon="2.04487">
        <ele>77</ele>
        <time>2012-04-08T08:23:22Z</time>
      </trkpt>
      <trkpt lat="48.70033" lon="2.04478">
        <ele>77</ele>
        <time>2012-04-08T08:23:30Z</time>
      </trkpt>
      <trkpt lat="48.70033" lon="2.0447">
        <ele>78</ele>
        <time>2012-04-08T08:23:38Z</time>
      </trkpt>
      <trkpt lat="48.70032" lon="2.04464">
        <ele>77</ele>
        <time>2012-04-08T08:23:42Z</time>
      </trkpt>
      <trkpt lat="48.70029" lon="2.0445">
        <ele>81</ele>
        <time>2012-04-08T08:23:50Z</time>
      </trkpt>
      <trkpt lat="48.70032" lon="2.04435">
        <ele>83</ele>
        <time>2012-04-08T08:23:58Z</time>
      </trkpt>
      <trkpt lat="48.70031" lon="2.04427">
        <ele>83</ele>
        <time>2012-04-08T08:24:02Z</time>
      </trkpt>
      <trkpt lat="48.70029" lon="2.04398">
        <ele>88</ele>
        <time>2012-04-08T08:24:17Z</time>
      </trkpt>
      <trkpt lat="48.7003" lon="2.04391">
        <ele>88</ele>
        <time>2012-04-08T08:24:20Z</time>
      </trkpt>
      <trkpt lat="48.70033" lon="2.04385">
        <ele>86</ele>
        <time>2012-04-08T08:24:23Z</time>
      </trkpt>
      <trkpt lat="48.70036" lon="2.0438">
        <ele>86</ele>
        <time>2012-04-08T08:24:26Z</time>
      </trkpt>
      <trkpt lat="48.70037" lon="2.04374">
        <ele>87</ele>
        <time>2012-04-08T08:24:31Z</time>
      </trkpt>
      <trkpt lat="48.70036" lon="2.04367">
        <ele>85</ele>
        <time>2012-04-08T08:24:35Z</time>
      </trkpt>
      <trkpt lat="48.70041" lon="2.04354">
        <ele>88</ele>
        <time>2012-04-08T08:24:49Z</time>
      </trkpt>
      <trkpt lat="48.70042" lon="2.04347">
        <ele>88</ele>
        <time>2012-04-08T08:24:52Z</time>
      </trkpt>
      <trkpt lat="48.70043" lon="2.04339">
        <ele>89</ele>
        <time>2012-04-08T08:25:01Z</time>
      </trkpt>
      <trkpt lat="48.70048" lon="2.04324">
        <ele>89</ele>
        <time>2012-04-08T08:25:12Z</time>
      </trkpt>
      <trkpt lat="48.70045" lon="2.04311">
        <ele>83</ele>
        <time>2012-04-08T08:25:25Z</time>
      </trkpt>
      <trkpt lat="48.70046" lon="2.04303">
        <ele>83</ele>
        <time>2012-04-08T08:25:28Z</time>
      </trkpt>
      <trkpt lat="48.70046" lon="2.04286">
        <ele>81</ele>
        <time>2012-04-08T08:25:38Z</time>
      </trkpt>
      <trkpt lat="48.70044" lon="2.0428">
        <ele>84</ele>
        <time>2012-04-08T08:25:46Z</time>
      </trkpt>
      <trkpt lat="48.70048" lon="2.04275">
        <ele>81</ele>
        <time>2012-04-08T08:25:51Z</time>
      </trkpt>
      <trkpt lat="48.70049" lon="2.04267">
        <ele>80</ele>
        <time>2012-04-08T08:25:55Z</time>
      </trkpt>
      <trkpt lat="48.70048" lon="2.04259">
        <ele>79</ele>
        <time>2012-04-08T08:25:59Z</time>
      </trkpt>
      <trkpt lat="48.70046" lon="2.04252">
        <ele>80</ele>
        <time>2012-04-08T08:26:03Z</time>
      </trkpt>
      <trkpt lat="48.70045" lon="2.04244">
        <ele>80</ele>
        <time>2012-04-08T08:26:06Z</time>
      </trkpt>
      <trkpt lat="48.70044" lon="2.04237">
        <ele>82</ele>
        <time>2012-04-08T08:26:09Z</time>
      </trkpt>
      <trkpt lat="48.70047" lon="2.04231">
        <ele>83</ele>
        <time>2012-04-08T08:26:15Z</time>
      </trkpt>
      <trkpt lat="48.70047" lon="2.04224">
        <ele>85</ele>
        <time>2012-04-08T08:26:18Z</time>
      </trkpt>
      <trkpt lat="48.70043" lon="2.04221">
        <ele>73</ele>
        <time>2012-04-08T08:26:24Z</time>
      </trkpt>
      <trkpt lat="48.70041" lon="2.04214">
        <ele>71</ele>
        <time>2012-04-08T08:26:26Z</time>
      </trkpt>
      <trkpt lat="48.70037" lon="2.04164">
        <ele>80</ele>
        <time>2012-04-08T08:26:57Z</time>
      </trkpt>
      <trkpt lat="48.70035" lon="2.04158">
        <ele>77</ele>
        <time>2012-04-08T08:27:02Z</time>
      </trkpt>
      <trkpt lat="48.70028" lon="2.04138">
        <ele>83</ele>
        <time>2012-04-08T08:27:15Z</time>
      </trkpt>
      <trkpt lat="48.70022" lon="2.04125">
        <ele>83</ele>
        <time>2012-04-08T08:27:24Z</time>
      </trkpt>
      <trkpt lat="48.70007" lon="2.04107">
        <ele>94</ele>
        <time>2012-04-08T08:27:43Z</time>
      </trkpt>
      <trkpt lat="48.70004" lon="2.04102">
        <ele>94</ele>
        <time>2012-04-08T08:27:47Z</time>
      </trkpt>
      <trkpt lat="48.69997" lon="2.04089">
        <ele>90</ele>
        <time>2012-04-08T08:27:58Z</time>
      </trkpt>
      <trkpt lat="48.69993" lon="2.04088">
        <ele>89</ele>
        <time>2012-04-08T08:28:05Z</time>
      </trkpt>
      <trkpt lat="48.6999" lon="2.04083">
        <ele>89</ele>
        <time>2012-04-08T08:28:08Z</time>
      </trkpt>
      <trkpt lat="48.69988" lon="2.04071">
        <ele>92</ele>
        <time>2012-04-08T08:28:24Z</time>
      </trkpt>
      <trkpt lat="48.69988" lon="2.04065">
        <ele>95</ele>
        <time>2012-04-08T08:28:50Z</time>
      </trkpt>
      <trkpt lat="48.69987" lon="2.0406">
        <ele>103</ele>
        <time>2012-04-08T08:29:52Z</time>
      </trkpt>
      <trkpt lat="48.69979" lon="2.04054">
        <ele>92</ele>
        <time>2012-04-08T08:30:04Z</time>
      </trkpt>
      <trkpt lat="48.69971" lon="2.04046">
        <ele>96</ele>
        <time>2012-04-08T08:30:15Z</time>
      </trkpt>
      <trkpt lat="48.69966" lon="2.04043">
        <ele>94</ele>
        <time>2012-04-08T08:30:21Z</time>
      </trkpt>
      <trkpt lat="48.69962" lon="2.04038">
        <ele>96</ele>
        <time>2012-04-08T08:30:27Z</time>
      </trkpt>
      <trkpt lat="48.69952" lon="2.04034">
        <ele>99</ele>
        <time>2012-04-08T08:30:36Z</time>
      </trkpt>
      <trkpt lat="48.69948" lon="2.0403">
        <ele>98</ele>
        <time>2012-04-08T08:30:41Z</time>
      </trkpt>
      <trkpt lat="48.69946" lon="2.04023">
        <ele>101</ele>
        <time>2012-04-08T08:30:48Z</time>
      </trkpt>
      <trkpt lat="48.69939" lon="2.0402">
        <ele>101</ele>
        <time>2012-04-08T08:30:59Z</time>
      </trkpt>
      <trkpt lat="48.69934" lon="2.04017">
        <ele>101</ele>
        <time>2012-04-08T08:31:03Z</time>
      </trkpt>
      <trkpt lat="48.69928" lon="2.04018">
        <ele>101</ele>
        <time>2012-04-08T08:31:06Z</time>
      </trkpt>
      <trkpt lat="48.69924" lon="2.04016">
        <ele>103</ele>
        <time>2012-04-08T08:31:10Z</time>
      </trkpt>
      <trkpt lat="48.69916" lon="2.04006">
        <ele>101</ele>
        <time>2012-04-08T08:31:21Z</time>
      </trkpt>
      <trkpt lat="48.69912" lon="2.04008">
        <ele>100</ele>
        <time>2012-04-08T08:31:25Z</time>
      </trkpt>
      <trkpt lat="48.69907" lon="2.04009">
        <ele>101</ele>
        <time>2012-04-08T08:31:28Z</time>
      </trkpt>
      <trkpt lat="48.69898" lon="2.04001">
        <ele>104</ele>
        <time>2012-04-08T08:31:41Z</time>
      </trkpt>
      <trkpt lat="48.69888" lon="2.03996">
        <ele>104</ele>
        <time>2012-04-08T08:31:52Z</time>
      </trkpt>
      <trkpt lat="48.6988" lon="2.03986">
        <ele>106</ele>
        <time>2012-04-08T08:32:01Z</time>
      </trkpt>
      <trkpt lat="48.69879" lon="2.03979">
        <ele>103</ele>
        <time>2012-04-08T08:32:07Z</time>
      </trkpt>
      <trkpt lat="48.69874" lon="2.03978">
        <ele>105</ele>
        <time>2012-04-08T08:32:11Z</time>
      </trkpt>
      <trkpt lat="48.69869" lon="2.03976">
        <ele>108</ele>
        <time>2012-04-08T08:32:16Z</time>
      </trkpt>
      <trkpt lat="48.69865" lon="2.03975">
        <ele>108</ele>
        <time>2012-04-08T08:32:21Z</time>
      </trkpt>
      <trkpt lat="48.6986" lon="2.03975">
        <ele>105</ele>
        <time>2012-04-08T08:32:25Z</time>
      </trkpt>
      <trkpt lat="48.69855" lon="2.03973">
        <ele>105</ele>
        <time>2012-04-08T08:32:29Z</time>
      </trkpt>
      <trkpt lat="48.69839" lon="2.03956">
        <ele>117</ele>
        <time>2012-04-08T08:32:48Z</time>
      </trkpt>
      <trkpt lat="48.69833" lon="2.03955">
        <ele>115</ele>
        <time>2012-04-08T08:32:51Z</time>
      </trkpt>
      <trkpt lat="48.69814" lon="2.03951">
        <ele>126</ele>
        <time>2012-04-08T08:33:13Z</time>
      </trkpt>
      <trkpt lat="48.69809" lon="2.03951">
        <ele>126</ele>
        <time>2012-04-08T08:33:15Z</time>
      </trkpt>
      <trkpt lat="48.69805" lon="2.03948">
        <ele>126</ele>
        <time>2012-04-08T08:33:21Z</time>
      </trkpt>
      <trkpt lat="48.69802" lon="2.03943">
        <ele>130</ele>
        <time>2012-04-08T08:33:28Z</time>
      </trkpt>
      <trkpt lat="48.69797" lon="2.0394">
        <ele>131</ele>
        <time>2012-04-08T08:33:33Z</time>
      </trkpt>
      <trkpt lat="48.69794" lon="2.03934">
        <ele>125</ele>
        <time>2012-04-08T08:33:36Z</time>
      </trkpt>
      <trkpt lat="48.69791" lon="2.03929">
        <ele>129</ele>
        <time>2012-04-08T08:33:41Z</time>
      </trkpt>
      <trkpt lat="48.69786" lon="2.03926">
        <ele>129</ele>
        <time>2012-04-08T08:33:45Z</time>
      </trkpt>
      <trkpt lat="48.69781" lon="2.03922">
        <ele>128</ele>
        <time>2012-04-08T08:33:49Z</time>
      </trkpt>
      <trkpt lat="48.69783" lon="2.03916">
        <ele>128</ele>
        <time>2012-04-08T08:34:00Z</time>
      </trkpt>
      <trkpt lat="48.69781" lon="2.03912">
        <ele>128</ele>
        <time>2012-04-08T08:34:09Z</time>
      </trkpt>
      <trkpt lat="48.6978" lon="2.03907">
        <ele>136</ele>
        <time>2012-04-08T08:34:55Z</time>
      </trkpt>
      <trkpt lat="48.69769" lon="2.03907">
        <ele>136</ele>
        <time>2012-04-08T08:35:01Z</time>
      </trkpt>
      <trkpt lat="48.69763" lon="2.03908">
        <ele>138</ele>
        <time>2012-04-08T08:35:04Z</time>
      </trkpt>
      <trkpt lat="48.69759" lon="2.03904">
        <ele>137</ele>
        <time>2012-04-08T08:35:09Z</time>
      </trkpt>
      <trkpt lat="48.69756" lon="2.03898">
        <ele>135</ele>
        <time>2012-04-08T08:35:13Z</time>
      </trkpt>
      <trkpt lat="48.69753" lon="2.03892">
        <ele>137</ele>
        <time>2012-04-08T08:35:17Z</time>
      </trkpt>
      <trkpt lat="48.69748" lon="2.03888">
        <ele>137</ele>
        <time>2012-04-08T08:35:20Z</time>
      </trkpt>
      <trkpt lat="48.69743" lon="2.03887">
        <ele>136</ele>
        <time>2012-04-08T08:35:23Z</time>
      </trkpt>
      <trkpt lat="48.69739" lon="2.03889">
        <ele>135</ele>
        <time>2012-04-08T08:35:26Z</time>
      </trkpt>
      <trkpt lat="48.69734" lon="2.03888">
        <ele>137</ele>
        <time>2012-04-08T08:35:29Z</time>
      </trkpt>
      <trkpt lat="48.69729" lon="2.03884">
        <ele>136</ele>
        <time>2012-04-08T08:35:32Z</time>
      </trkpt>
      <trkpt lat="48.69725" lon="2.0388">
        <ele>136</ele>
        <time>2012-04-08T08:35:37Z</time>
      </trkpt>
      <trkpt lat="48.69721" lon="2.03877">
        <ele>134</ele>
        <time>2012-04-08T08:35:40Z</time>
      </trkpt>
      <trkpt lat="48.6971" lon="2.03874">
        <ele>137</ele>
        <time>2012-04-08T08:35:47Z</time>
      </trkpt>
      <trkpt lat="48.69705" lon="2.03873">
        <ele>137</ele>
        <time>2012-04-08T08:35:50Z</time>
      </trkpt>
      <trkpt lat="48.69701" lon="2.0387">
        <ele>139</ele>
        <time>2012-04-08T08:35:54Z</time>
      </trkpt>
      <trkpt lat="48.69694" lon="2.03859">
        <ele>141</ele>
        <time>2012-04-08T08:36:03Z</time>
      </trkpt>
      <trkpt lat="48.6969" lon="2.03853">
        <ele>141</ele>
        <time>2012-04-08T08:36:08Z</time>
      </trkpt>
      <trkpt lat="48.69686" lon="2.03852">
        <ele>140</ele>
        <time>2012-04-08T08:36:11Z</time>
      </trkpt>
      <trkpt lat="48.69681" lon="2.03847">
        <ele>143</ele>
        <time>2012-04-08T08:36:14Z</time>
      </trkpt>
      <trkpt lat="48.69679" lon="2.03839">
        <ele>143</ele>
        <time>2012-04-08T08:36:17Z</time>
      </trkpt>
      <trkpt lat="48.69677" lon="2.03833">
        <ele>141</ele>
        <time>2012-04-08T08:36:22Z</time>
      </trkpt>
      <trkpt lat="48.69671" lon="2.03831">
        <ele>142</ele>
        <time>2012-04-08T08:36:28Z</time>
      </trkpt>
      <trkpt lat="48.69666" lon="2.03831">
        <ele>139</ele>
        <time>2012-04-08T08:36:30Z</time>
      </trkpt>
      <trkpt lat="48.69662" lon="2.03827">
        <ele>142</ele>
        <time>2012-04-08T08:36:35Z</time>
      </trkpt>
      <trkpt lat="48.69652" lon="2.03824">
        <ele>139</ele>
        <time>2012-04-08T08:36:44Z</time>
      </trkpt>
      <trkpt lat="48.69643" lon="2.03818">
        <ele>139</ele>
        <time>2012-04-08T08:36:50Z</time>
      </trkpt>
      <trkpt lat="48.69633" lon="2.03816">
        <ele>135</ele>
        <time>2012-04-08T08:36:58Z</time>
      </trkpt>
      <trkpt lat="48.69628" lon="2.03819">
        <ele>135</ele>
        <time>2012-04-08T08:37:05Z</time>
      </trkpt>
      <trkpt lat="48.69616" lon="2.03815">
        <ele>132</ele>
        <time>2012-04-08T08:37:11Z</time>
      </trkpt>
      <trkpt lat="48.69608" lon="2.03808">
        <ele>137</ele>
        <time>2012-04-08T08:37:17Z</time>
      </trkpt>
      <trkpt lat="48.69603" lon="2.03803">
        <ele>136</ele>
        <time>2012-04-08T08:37:20Z</time>
      </trkpt>
      <trkpt lat="48.69596" lon="2.03793">
        <ele>144</ele>
        <time>2012-04-08T08:37:28Z</time>
      </trkpt>
      <trkpt lat="48.69593" lon="2.03787">
        <ele>142</ele>
        <time>2012-04-08T08:37:31Z</time>
      </trkpt>
      <trkpt lat="48.69582" lon="2.0378">
        <ele>139</ele>
        <time>2012-04-08T08:37:40Z</time>
      </trkpt>
      <trkpt lat="48.69577" lon="2.03779">
        <ele>138</ele>
        <time>2012-04-08T08:37:43Z</time>
      </trkpt>
      <trkpt lat="48.69573" lon="2.03775">
        <ele>140</ele>
        <time>2012-04-08T08:37:49Z</time>
      </trkpt>
      <trkpt lat="48.69565" lon="2.03769">
        <ele>137</ele>
        <time>2012-04-08T08:37:55Z</time>
      </trkpt>
      <trkpt lat="48.6956" lon="2.03767">
        <ele>139</ele>
        <time>2012-04-08T08:37:59Z</time>
      </trkpt>
      <trkpt lat="48.69555" lon="2.03762">
        <ele>138</ele>
        <time>2012-04-08T08:38:04Z</time>
      </trkpt>
      <trkpt lat="48.6955" lon="2.0376">
        <ele>138</ele>
        <time>2012-04-08T08:38:06Z</time>
      </trkpt>
      <trkpt lat="48.69544" lon="2.03758">
        <ele>139</ele>
        <time>2012-04-08T08:38:10Z</time>
      </trkpt>
      <trkpt lat="48.69538" lon="2.03747">
        <ele>134</ele>
        <time>2012-04-08T08:38:21Z</time>
      </trkpt>
      <trkpt lat="48.69533" lon="2.03743">
        <ele>133</ele>
        <time>2012-04-08T08:38:24Z</time>
      </trkpt>
      <trkpt lat="48.69529" lon="2.0374">
        <ele>133</ele>
        <time>2012-04-08T08:38:27Z</time>
      </trkpt>
      <trkpt lat="48.69524" lon="2.03742">
        <ele>130</ele>
        <time>2012-04-08T08:38:32Z</time>
      </trkpt>
      <trkpt lat="48.69514" lon="2.03743">
        <ele>134</ele>
        <time>2012-04-08T08:38:39Z</time>
      </trkpt>
      <trkpt lat="48.69509" lon="2.03742">
        <ele>134</ele>
        <time>2012-04-08T08:38:42Z</time>
      </trkpt>
      <trkpt lat="48.69504" lon="2.0374">
        <ele>135</ele>
        <time>2012-04-08T08:38:46Z</time>
      </trkpt>
      <trkpt lat="48.69499" lon="2.03735">
        <ele>134</ele>
        <time>2012-04-08T08:38:53Z</time>
      </trkpt>
      <trkpt lat="48.69495" lon="2.0373">
        <ele>137</ele>
        <time>2012-04-08T08:38:58Z</time>
      </trkpt>
      <trkpt lat="48.69486" lon="2.03717">
        <ele>135</ele>
        <time>2012-04-08T08:39:07Z</time>
      </trkpt>
      <trkpt lat="48.69481" lon="2.03716">
        <ele>135</ele>
        <time>2012-04-08T08:39:13Z</time>
      </trkpt>
      <trkpt lat="48.69477" lon="2.03715">
        <ele>134</ele>
        <time>2012-04-08T08:39:16Z</time>
      </trkpt>
      <trkpt lat="48.69476" lon="2.03722">
        <ele>131</ele>
        <time>2012-04-08T08:39:24Z</time>
      </trkpt>
      <trkpt lat="48.69478" lon="2.03728">
        <ele>132</ele>
        <time>2012-04-08T08:39:35Z</time>
      </trkpt>
      <trkpt lat="48.6948" lon="2.03728">
        <ele>133</ele>
        <time>2012-04-08T08:39:42Z</time>
      </trkpt>
      <trkpt lat="48.69482" lon="2.03732">
        <ele>129</ele>
        <time>2012-04-08T08:40:23Z</time>
      </trkpt>
      <trkpt lat="48.69483" lon="2.03727">
        <ele>134</ele>
        <time>2012-04-08T08:41:00Z</time>
      </trkpt>
      <trkpt lat="48.69488" lon="2.03727">
        <ele>136</ele>
        <time>2012-04-08T08:41:10Z</time>
      </trkpt>
      <trkpt lat="48.6949" lon="2.03728">
        <ele>132</ele>
        <time>2012-04-08T08:41:27Z</time>
      </trkpt>
      <trkpt lat="48.69494" lon="2.03725">
        <ele>136</ele>
        <time>2012-04-08T08:41:37Z</time>
      </trkpt>
      <trkpt lat="48.695" lon="2.03726">
        <ele>136</ele>
        <time>2012-04-08T08:41:44Z</time>
      </trkpt>
      <trkpt lat="48.69499" lon="2.03723">
        <ele>137</ele>
        <time>2012-04-08T08:41:56Z</time>
      </trkpt>
      <trkpt lat="48.69495" lon="2.03725">
        <ele>145</ele>
        <time>2012-04-08T08:42:14Z</time>
      </trkpt>
      <trkpt lat="48.69491" lon="2.03732">
        <ele>146</ele>
        <time>2012-04-08T08:42:18Z</time>
      </trkpt>
      <trkpt lat="48.69487" lon="2.03737">
        <ele>143</ele>
        <time>2012-04-08T08:42:23Z</time>
      </trkpt>
      <trkpt lat="48.69479" lon="2.03743">
        <ele>145</ele>
        <time>2012-04-08T08:42:38Z</time>
      </trkpt>
      <trkpt lat="48.69481" lon="2.03734">
        <ele>148</ele>
        <time>2012-04-08T08:42:50Z</time>
      </trkpt>
      <trkpt lat="48.69476" lon="2.03729">
        <ele>133</ele>
        <time>2012-04-08T08:46:57Z</time>
      </trkpt>
      <trkpt lat="48.69469" lon="2.03727">
        <ele>133</ele>
        <time>2012-04-08T08:47:02Z</time>
      </trkpt>
      <trkpt lat="48.69469" lon="2.03727">
        <ele>128</ele>
        <time>2012-04-08T08:47:14Z</time>
      </trkpt>
      <trkpt lat="48.69479" lon="2.03722">
        <ele>122</ele>
        <time>2012-04-08T08:47:27Z</time>
      </trkpt>
      <trkpt lat="48.69483" lon="2.03719">
        <ele>124</ele>
        <time>2012-04-08T08:47:30Z</time>
      </trkpt>
      <trkpt lat="48.69478" lon="2.03715">
        <ele>122</ele>
        <time>2012-04-08T08:47:33Z</time>
      </trkpt>
      <trkpt lat="48.69474" lon="2.03712">
        <ele>122</ele>
        <time>2012-04-08T08:47:36Z</time>
      </trkpt>
      <trkpt lat="48.6947" lon="2.03706">
        <ele>124</ele>
        <time>2012-04-08T08:47:40Z</time>
      </trkpt>
      <trkpt lat="48.69465" lon="2.03702">
        <ele>123</ele>
        <time>2012-04-08T08:47:44Z</time>
      </trkpt>
      <trkpt lat="48.69456" lon="2.03699">
        <ele>123</ele>
        <time>2012-04-08T08:47:56Z</time>
      </trkpt>
      <trkpt lat="48.69453" lon="2.03694">
        <ele>122</ele>
        <time>2012-04-08T08:48:00Z</time>
      </trkpt>
      <trkpt lat="48.69448" lon="2.03691">
        <ele>122</ele>
        <time>2012-04-08T08:48:08Z</time>
      </trkpt>
      <trkpt lat="48.69443" lon="2.0369">
        <ele>122</ele>
        <time>2012-04-08T08:48:11Z</time>
      </trkpt>
      <trkpt lat="48.69438" lon="2.03688">
        <ele>121</ele>
        <time>2012-04-08T08:48:15Z</time>
      </trkpt>
      <trkpt lat="48.69434" lon="2.03685">
        <ele>121</ele>
        <time>2012-04-08T08:48:18Z</time>
      </trkpt>
      <trkpt lat="48.6943" lon="2.0368">
        <ele>124</ele>
        <time>2012-04-08T08:48:23Z</time>
      </trkpt>
      <trkpt lat="48.69425" lon="2.0368">
        <ele>120</ele>
        <time>2012-04-08T08:48:28Z</time>
      </trkpt>
      <trkpt lat="48.69411" lon="2.03675">
        <ele>114</ele>
        <time>2012-04-08T08:48:42Z</time>
      </trkpt>
      <trkpt lat="48.69407" lon="2.03668">
        <ele>112</ele>
        <time>2012-04-08T08:48:45Z</time>
      </trkpt>
      <trkpt lat="48.69403" lon="2.03662">
        <ele>116</ele>
        <time>2012-04-08T08:48:49Z</time>
      </trkpt>
      <trkpt lat="48.6938" lon="2.03647">
        <ele>108</ele>
        <time>2012-04-08T08:49:12Z</time>
      </trkpt>
      <trkpt lat="48.69372" lon="2.03638">
        <ele>112</ele>
        <time>2012-04-08T08:49:17Z</time>
      </trkpt>
      <trkpt lat="48.69371" lon="2.03634">
        <ele>109</ele>
        <time>2012-04-08T08:49:24Z</time>
      </trkpt>
      <trkpt lat="48.69365" lon="2.03637">
        <ele>107</ele>
        <time>2012-04-08T08:49:31Z</time>
      </trkpt>
      <trkpt lat="48.69359" lon="2.03637">
        <ele>108</ele>
        <time>2012-04-08T08:49:33Z</time>
      </trkpt>
      <trkpt lat="48.69354" lon="2.03636">
        <ele>108</ele>
        <time>2012-04-08T08:49:35Z</time>
      </trkpt>
      <trkpt lat="48.69348" lon="2.03633">
        <ele>109</ele>
        <time>2012-04-08T08:49:37Z</time>
      </trkpt>
      <trkpt lat="48.69338" lon="2.03617">
        <ele>109</ele>
        <time>2012-04-08T08:49:46Z</time>
      </trkpt>
      <trkpt lat="48.69327" lon="2.03616">
        <ele>109</ele>
        <time>2012-04-08T08:49:54Z</time>
      </trkpt>
      <trkpt lat="48.69322" lon="2.03615">
        <ele>110</ele>
        <time>2012-04-08T08:49:57Z</time>
      </trkpt>
      <trkpt lat="48.69317" lon="2.03613">
        <ele>108</ele>
        <time>2012-04-08T08:50:02Z</time>
      </trkpt>
      <trkpt lat="48.6931" lon="2.03603">
        <ele>108</ele>
        <time>2012-04-08T08:50:10Z</time>
      </trkpt>
      <trkpt lat="48.69306" lon="2.03599">
        <ele>109</ele>
        <time>2012-04-08T08:50:12Z</time>
      </trkpt>
      <trkpt lat="48.69302" lon="2.03596">
        <ele>107</ele>
        <time>2012-04-08T08:50:17Z</time>
      </trkpt>
      <trkpt lat="48.69298" lon="2.03591">
        <ele>107</ele>
        <time>2012-04-08T08:50:21Z</time>
      </trkpt>
      <trkpt lat="48.69294" lon="2.03588">
        <ele>108</ele>
        <time>2012-04-08T08:50:24Z</time>
      </trkpt>
      <trkpt lat="48.69289" lon="2.03583">
        <ele>107</ele>
        <time>2012-04-08T08:50:27Z</time>
      </trkpt>
      <trkpt lat="48.69279" lon="2.03581">
        <ele>110</ele>
        <time>2012-04-08T08:50:39Z</time>
      </trkpt>
      <trkpt lat="48.69276" lon="2.03575">
        <ele>109</ele>
        <time>2012-04-08T08:50:42Z</time>
      </trkpt>
      <trkpt lat="48.69272" lon="2.0357">
        <ele>109</ele>
        <time>2012-04-08T08:50:47Z</time>
      </trkpt>
      <trkpt lat="48.69268" lon="2.03569">
        <ele>107</ele>
        <time>2012-04-08T08:50:50Z</time>
      </trkpt>
      <trkpt lat="48.6926" lon="2.03561">
        <ele>109</ele>
        <time>2012-04-08T08:50:57Z</time>
      </trkpt>
      <trkpt lat="48.69255" lon="2.03559">
        <ele>108</ele>
        <time>2012-04-08T08:50:59Z</time>
      </trkpt>
      <trkpt lat="48.6925" lon="2.03556">
        <ele>110</ele>
        <time>2012-04-08T08:51:02Z</time>
      </trkpt>
      <trkpt lat="48.69246" lon="2.03551">
        <ele>107</ele>
        <time>2012-04-08T08:51:06Z</time>
      </trkpt>
      <trkpt lat="48.69242" lon="2.03546">
        <ele>109</ele>
        <time>2012-04-08T08:51:14Z</time>
      </trkpt>
      <trkpt lat="48.69238" lon="2.03541">
        <ele>109</ele>
        <time>2012-04-08T08:51:18Z</time>
      </trkpt>
      <trkpt lat="48.69236" lon="2.03534">
        <ele>106</ele>
        <time>2012-04-08T08:51:26Z</time>
      </trkpt>
      <trkpt lat="48.69229" lon="2.0353">
        <ele>103</ele>
        <time>2012-04-08T08:51:28Z</time>
      </trkpt>
      <trkpt lat="48.69218" lon="2.03526">
        <ele>101</ele>
        <time>2012-04-08T08:51:34Z</time>
      </trkpt>
      <trkpt lat="48.69203" lon="2.03508">
        <ele>108</ele>
        <time>2012-04-08T08:51:50Z</time>
      </trkpt>
      <trkpt lat="48.69206" lon="2.03501">
        <ele>107</ele>
        <time>2012-04-08T08:51:54Z</time>
      </trkpt>
      <trkpt lat="48.69209" lon="2.03504">
        <ele>108</ele>
        <time>2012-04-08T08:52:02Z</time>
      </trkpt>
      <trkpt lat="48.6922" lon="2.03516">
        <ele>120</ele>
        <time>2012-04-08T08:52:22Z</time>
      </trkpt>
      <trkpt lat="48.69216" lon="2.03516">
        <ele>114</ele>
        <time>2012-04-08T08:53:27Z</time>
      </trkpt>
      <trkpt lat="48.69197" lon="2.03512">
        <ele>107</ele>
        <time>2012-04-08T08:53:47Z</time>
      </trkpt>
      <trkpt lat="48.69191" lon="2.03511">
        <ele>108</ele>
        <time>2012-04-08T08:53:51Z</time>
      </trkpt>
      <trkpt lat="48.69181" lon="2.03505">
        <ele>108</ele>
        <time>2012-04-08T08:53:57Z</time>
      </trkpt>
      <trkpt lat="48.69171" lon="2.03498">
        <ele>110</ele>
        <time>2012-04-08T08:54:04Z</time>
      </trkpt>
      <trkpt lat="48.69167" lon="2.03494">
        <ele>110</ele>
        <time>2012-04-08T08:54:07Z</time>
      </trkpt>
      <trkpt lat="48.69163" lon="2.03491">
        <ele>108</ele>
        <time>2012-04-08T08:54:10Z</time>
      </trkpt>
      <trkpt lat="48.6915" lon="2.03477">
        <ele>112</ele>
        <time>2012-04-08T08:54:22Z</time>
      </trkpt>
      <trkpt lat="48.69146" lon="2.03472">
        <ele>112</ele>
        <time>2012-04-08T08:54:25Z</time>
      </trkpt>
      <trkpt lat="48.69143" lon="2.03467">
        <ele>113</ele>
        <time>2012-04-08T08:54:29Z</time>
      </trkpt>
      <trkpt lat="48.69141" lon="2.03461">
        <ele>113</ele>
        <time>2012-04-08T08:54:33Z</time>
      </trkpt>
      <trkpt lat="48.69138" lon="2.03455">
        <ele>114</ele>
        <time>2012-04-08T08:54:37Z</time>
      </trkpt>
      <trkpt lat="48.69131" lon="2.03446">
        <ele>114</ele>
        <time>2012-04-08T08:54:44Z</time>
      </trkpt>
      <trkpt lat="48.69127" lon="2.03441">
        <ele>112</ele>
        <time>2012-04-08T08:54:47Z</time>
      </trkpt>
      <trkpt lat="48.69123" lon="2.03438">
        <ele>113</ele>
        <time>2012-04-08T08:54:50Z</time>
      </trkpt>
      <trkpt lat="48.69115" lon="2.03428">
        <ele>113</ele>
        <time>2012-04-08T08:54:58Z</time>
      </trkpt>
      <trkpt lat="48.69113" lon="2.03421">
        <ele>112</ele>
        <time>2012-04-08T08:55:03Z</time>
      </trkpt>
      <trkpt lat="48.69111" lon="2.03414">
        <ele>114</ele>
        <time>2012-04-08T08:55:08Z</time>
      </trkpt>
      <trkpt lat="48.69111" lon="2.03407">
        <ele>115</ele>
        <time>2012-04-08T08:55:12Z</time>
      </trkpt>
      <trkpt lat="48.69107" lon="2.03387">
        <ele>115</ele>
        <time>2012-04-08T08:55:20Z</time>
      </trkpt>
      <trkpt lat="48.69112" lon="2.03382">
        <ele>112</ele>
        <time>2012-04-08T08:55:25Z</time>
      </trkpt>
      <trkpt lat="48.69121" lon="2.03378">
        <ele>109</ele>
        <time>2012-04-08T08:55:35Z</time>
      </trkpt>
      <trkpt lat="48.69123" lon="2.03371">
        <ele>110</ele>
        <time>2012-04-08T08:55:41Z</time>
      </trkpt>
      <trkpt lat="48.69125" lon="2.03365">
        <ele>108</ele>
        <time>2012-04-08T08:55:48Z</time>
      </trkpt>
      <trkpt lat="48.69128" lon="2.03351">
        <ele>112</ele>
        <time>2012-04-08T08:56:04Z</time>
      </trkpt>
      <trkpt lat="48.6913" lon="2.03328">
        <ele>105</ele>
        <time>2012-04-08T08:56:36Z</time>
      </trkpt>
      <trkpt lat="48.69132" lon="2.03324">
        <ele>105</ele>
        <time>2012-04-08T08:56:47Z</time>
      </trkpt>
      <trkpt lat="48.69135" lon="2.03322">
        <ele>106</ele>
        <time>2012-04-08T08:57:05Z</time>
      </trkpt>
      <trkpt lat="48.69135" lon="2.03317">
        <ele>104</ele>
        <time>2012-04-08T08:57:29Z</time>
      </trkpt>
      <trkpt lat="48.69141" lon="2.03297">
        <ele>104</ele>
        <time>2012-04-08T08:57:47Z</time>
      </trkpt>
      <trkpt lat="48.69139" lon="2.03284">
        <ele>104</ele>
        <time>2012-04-08T08:58:00Z</time>
      </trkpt>
      <trkpt lat="48.69138" lon="2.0327">
        <ele>105</ele>
        <time>2012-04-08T08:58:10Z</time>
      </trkpt>
      <trkpt lat="48.69141" lon="2.03258">
        <ele>103</ele>
        <time>2012-04-08T08:58:14Z</time>
      </trkpt>
      <trkpt lat="48.69143" lon="2.03249">
        <ele>106</ele>
        <time>2012-04-08T08:58:16Z</time>
      </trkpt>
      <trkpt lat="48.69146" lon="2.03243">
        <ele>105</ele>
        <time>2012-04-08T08:58:18Z</time>
      </trkpt>
      <trkpt lat="48.69147" lon="2.03219">
        <ele>105</ele>
        <time>2012-04-08T08:58:26Z</time>
      </trkpt>
      <trkpt lat="48.69147" lon="2.03205">
        <ele>109</ele>
        <time>2012-04-08T08:58:32Z</time>
      </trkpt>
      <trkpt lat="48.69146" lon="2.03198">
        <ele>109</ele>
        <time>2012-04-08T08:58:36Z</time>
      </trkpt>
      <trkpt lat="48.69147" lon="2.0319">
        <ele>106</ele>
        <time>2012-04-08T08:58:41Z</time>
      </trkpt>
      <trkpt lat="48.69149" lon="2.03183">
        <ele>106</ele>
        <time>2012-04-08T08:58:48Z</time>
      </trkpt>
      <trkpt lat="48.69147" lon="2.03175">
        <ele>107</ele>
        <time>2012-04-08T08:58:53Z</time>
      </trkpt>
      <trkpt lat="48.69148" lon="2.03168">
        <ele>107</ele>
        <time>2012-04-08T08:58:59Z</time>
      </trkpt>
      <trkpt lat="48.69148" lon="2.0316">
        <ele>106</ele>
        <time>2012-04-08T08:59:04Z</time>
      </trkpt>
      <trkpt lat="48.69147" lon="2.03152">
        <ele>106</ele>
        <time>2012-04-08T08:59:09Z</time>
      </trkpt>
      <trkpt lat="48.69143" lon="2.03147">
        <ele>107</ele>
        <time>2012-04-08T08:59:13Z</time>
      </trkpt>
      <trkpt lat="48.69134" lon="2.03108">
        <ele>110</ele>
        <time>2012-04-08T08:59:34Z</time>
      </trkpt>
      <trkpt lat="48.69129" lon="2.03096">
        <ele>110</ele>
        <time>2012-04-08T08:59:41Z</time>
      </trkpt>
      <trkpt lat="48.69122" lon="2.03085">
        <ele>108</ele>
        <time>2012-04-08T08:59:49Z</time>
      </trkpt>
      <trkpt lat="48.69112" lon="2.03069">
        <ele>110</ele>
        <time>2012-04-08T08:59:59Z</time>
      </trkpt>
      <trkpt lat="48.69112" lon="2.03055">
        <ele>111</ele>
        <time>2012-04-08T09:00:09Z</time>
      </trkpt>
      <trkpt lat="48.69108" lon="2.03042">
        <ele>110</ele>
        <time>2012-04-08T09:00:16Z</time>
      </trkpt>
      <trkpt lat="48.69101" lon="2.03032">
        <ele>109</ele>
        <time>2012-04-08T09:00:22Z</time>
      </trkpt>
      <trkpt lat="48.69098" lon="2.03024">
        <ele>109</ele>
        <time>2012-04-08T09:00:26Z</time>
      </trkpt>
      <trkpt lat="48.69097" lon="2.03001">
        <ele>109</ele>
        <time>2012-04-08T09:00:36Z</time>
      </trkpt>
      <trkpt lat="48.69082" lon="2.02972">
        <ele>109</ele>
        <time>2012-04-08T09:00:59Z</time>
      </trkpt>
      <trkpt lat="48.69074" lon="2.02963">
        <ele>112</ele>
        <time>2012-04-08T09:01:07Z</time>
      </trkpt>
      <trkpt lat="48.69071" lon="2.02948">
        <ele>115</ele>
        <time>2012-04-08T09:01:16Z</time>
      </trkpt>
      <trkpt lat="48.69072" lon="2.02939">
        <ele>114</ele>
        <time>2012-04-08T09:01:19Z</time>
      </trkpt>
      <trkpt lat="48.69072" lon="2.02931">
        <ele>115</ele>
        <time>2012-04-08T09:01:23Z</time>
      </trkpt>
      <trkpt lat="48.69072" lon="2.02923">
        <ele>113</ele>
        <time>2012-04-08T09:01:27Z</time>
      </trkpt>
      <trkpt lat="48.69066" lon="2.02902">
        <ele>113</ele>
        <time>2012-04-08T09:01:40Z</time>
      </trkpt>
      <trkpt lat="48.69062" lon="2.02899">
        <ele>113</ele>
        <time>2012-04-08T09:01:43Z</time>
      </trkpt>
      <trkpt lat="48.69057" lon="2.02895">
        <ele>112</ele>
        <time>2012-04-08T09:01:45Z</time>
      </trkpt>
      <trkpt lat="48.69051" lon="2.02884">
        <ele>115</ele>
        <time>2012-04-08T09:01:51Z</time>
      </trkpt>
      <trkpt lat="48.6905" lon="2.0287">
        <ele>115</ele>
        <time>2012-04-08T09:01:59Z</time>
      </trkpt>
      <trkpt lat="48.69052" lon="2.02856">
        <ele>117</ele>
        <time>2012-04-08T09:02:06Z</time>
      </trkpt>
      <trkpt lat="48.69045" lon="2.02846">
        <ele>119</ele>
        <time>2012-04-08T09:02:10Z</time>
      </trkpt>
      <trkpt lat="48.69035" lon="2.02838">
        <ele>118</ele>
        <time>2012-04-08T09:02:14Z</time>
      </trkpt>
      <trkpt lat="48.6903" lon="2.02827">
        <ele>117</ele>
        <time>2012-04-08T09:02:21Z</time>
      </trkpt>
      <trkpt lat="48.69028" lon="2.028">
        <ele>117</ele>
        <time>2012-04-08T09:02:38Z</time>
      </trkpt>
      <trkpt lat="48.69024" lon="2.02793">
        <ele>117</ele>
        <time>2012-04-08T09:02:42Z</time>
      </trkpt>
      <trkpt lat="48.69021" lon="2.02787">
        <ele>118</ele>
        <time>2012-04-08T09:02:45Z</time>
      </trkpt>
      <trkpt lat="48.69012" lon="2.02768">
        <ele>118</ele>
        <time>2012-04-08T09:02:56Z</time>
      </trkpt>
      <trkpt lat="48.69004" lon="2.0277">
        <ele>118</ele>
        <time>2012-04-08T09:03:25Z</time>
      </trkpt>
      <trkpt lat="48.68993" lon="2.02779">
        <ele>116</ele>
        <time>2012-04-08T09:03:48Z</time>
      </trkpt>
      <trkpt lat="48.68986" lon="2.02784">
        <ele>117</ele>
        <time>2012-04-08T09:03:55Z</time>
      </trkpt>
      <trkpt lat="48.68979" lon="2.02786">
        <ele>121</ele>
        <time>2012-04-08T09:03:57Z</time>
      </trkpt>
      <trkpt lat="48.68973" lon="2.02786">
        <ele>121</ele>
        <time>2012-04-08T09:03:59Z</time>
      </trkpt>
      <trkpt lat="48.68952" lon="2.0279">
        <ele>126</ele>
        <time>2012-04-08T09:04:09Z</time>
      </trkpt>
      <trkpt lat="48.68946" lon="2.02793">
        <ele>126</ele>
        <time>2012-04-08T09:04:13Z</time>
      </trkpt>
      <trkpt lat="48.68941" lon="2.02796">
        <ele>127</ele>
        <time>2012-04-08T09:04:16Z</time>
      </trkpt>
      <trkpt lat="48.68936" lon="2.02801">
        <ele>126</ele>
        <time>2012-04-08T09:04:22Z</time>
      </trkpt>
      <trkpt lat="48.6893" lon="2.02801">
        <ele>123</ele>
        <time>2012-04-08T09:04:27Z</time>
      </trkpt>
      <trkpt lat="48.6892" lon="2.028">
        <ele>123</ele>
        <time>2012-04-08T09:04:34Z</time>
      </trkpt>
      <trkpt lat="48.68905" lon="2.02793">
        <ele>119</ele>
        <time>2012-04-08T09:04:45Z</time>
      </trkpt>
      <trkpt lat="48.689" lon="2.02793">
        <ele>123</ele>
        <time>2012-04-08T09:04:49Z</time>
      </trkpt>
      <trkpt lat="48.68895" lon="2.02794">
        <ele>122</ele>
        <time>2012-04-08T09:04:53Z</time>
      </trkpt>
      <trkpt lat="48.6889" lon="2.02795">
        <ele>124</ele>
        <time>2012-04-08T09:04:56Z</time>
      </trkpt>
      <trkpt lat="48.6888" lon="2.02795">
        <ele>124</ele>
        <time>2012-04-08T09:05:03Z</time>
      </trkpt>
      <trkpt lat="48.68875" lon="2.02796">
        <ele>125</ele>
        <time>2012-04-08T09:05:09Z</time>
      </trkpt>
      <trkpt lat="48.6887" lon="2.02796">
        <ele>123</ele>
        <time>2012-04-08T09:05:15Z</time>
      </trkpt>
      <trkpt lat="48.68847" lon="2.02811">
        <ele>131</ele>
        <time>2012-04-08T09:05:40Z</time>
      </trkpt>
      <trkpt lat="48.68842" lon="2.02811">
        <ele>130</ele>
        <time>2012-04-08T09:05:45Z</time>
      </trkpt>
      <trkpt lat="48.68836" lon="2.02823">
        <ele>127</ele>
        <time>2012-04-08T09:05:55Z</time>
      </trkpt>
      <trkpt lat="48.68828" lon="2.02832">
        <ele>130</ele>
        <time>2012-04-08T09:06:03Z</time>
      </trkpt>
      <trkpt lat="48.68824" lon="2.02836">
        <ele>128</ele>
        <time>2012-04-08T09:06:07Z</time>
      </trkpt>
      <trkpt lat="48.68821" lon="2.02841">
        <ele>130</ele>
        <time>2012-04-08T09:06:13Z</time>
      </trkpt>
      <trkpt lat="48.68815" lon="2.02843">
        <ele>129</ele>
        <time>2012-04-08T09:06:19Z</time>
      </trkpt>
      <trkpt lat="48.68809" lon="2.02846">
        <ele>130</ele>
        <time>2012-04-08T09:06:22Z</time>
      </trkpt>
      <trkpt lat="48.68803" lon="2.02847">
        <ele>128</ele>
        <time>2012-04-08T09:06:25Z</time>
      </trkpt>
      <trkpt lat="48.68798" lon="2.02847">
        <ele>128</ele>
        <time>2012-04-08T09:06:29Z</time>
      </trkpt>
      <trkpt lat="48.68789" lon="2.02854">
        <ele>122</ele>
        <time>2012-04-08T09:06:41Z</time>
      </trkpt>
      <trkpt lat="48.68784" lon="2.02858">
        <ele>125</ele>
        <time>2012-04-08T09:06:46Z</time>
      </trkpt>
      <trkpt lat="48.68774" lon="2.02861">
        <ele>128</ele>
        <time>2012-04-08T09:06:54Z</time>
      </trkpt>
      <trkpt lat="48.68765" lon="2.02866">
        <ele>123</ele>
        <time>2012-04-08T09:07:02Z</time>
      </trkpt>
      <trkpt lat="48.68758" lon="2.02868">
        <ele>124</ele>
        <time>2012-04-08T09:07:05Z</time>
      </trkpt>
      <trkpt lat="48.68749" lon="2.02875">
        <ele>124</ele>
        <time>2012-04-08T09:07:12Z</time>
      </trkpt>
      <trkpt lat="48.68743" lon="2.02877">
        <ele>126</ele>
        <time>2012-04-08T09:07:16Z</time>
      </trkpt>
      <trkpt lat="48.68732" lon="2.02879">
        <ele>126</ele>
        <time>2012-04-08T09:07:24Z</time>
      </trkpt>
      <trkpt lat="48.68717" lon="2.0288">
        <ele>131</ele>
        <time>2012-04-08T09:07:34Z</time>
      </trkpt>
      <trkpt lat="48.68712" lon="2.02881">
        <ele>131</ele>
        <time>2012-04-08T09:07:42Z</time>
      </trkpt>
      <trkpt lat="48.68708" lon="2.02881">
        <ele>129</ele>
        <time>2012-04-08T09:07:47Z</time>
      </trkpt>
      <trkpt lat="48.68704" lon="2.02886">
        <ele>130</ele>
        <time>2012-04-08T09:07:51Z</time>
      </trkpt>
      <trkpt lat="48.68699" lon="2.02884">
        <ele>127</ele>
        <time>2012-04-08T09:07:56Z</time>
      </trkpt>
      <trkpt lat="48.68694" lon="2.02884">
        <ele>130</ele>
        <time>2012-04-08T09:08:00Z</time>
      </trkpt>
      <trkpt lat="48.68686" lon="2.02879">
        <ele>126</ele>
        <time>2012-04-08T09:08:09Z</time>
      </trkpt>
      <trkpt lat="48.6868" lon="2.02878">
        <ele>127</ele>
        <time>2012-04-08T09:08:12Z</time>
      </trkpt>
      <trkpt lat="48.68676" lon="2.02878">
        <ele>127</ele>
        <time>2012-04-08T09:08:15Z</time>
      </trkpt>
      <trkpt lat="48.68671" lon="2.02879">
        <ele>128</ele>
        <time>2012-04-08T09:08:18Z</time>
      </trkpt>
      <trkpt lat="48.68666" lon="2.02879">
        <ele>128</ele>
        <time>2012-04-08T09:08:22Z</time>
      </trkpt>
      <trkpt lat="48.68661" lon="2.02877">
        <ele>126</ele>
        <time>2012-04-08T09:08:25Z</time>
      </trkpt>
      <trkpt lat="48.68652" lon="2.02872">
        <ele>126</ele>
        <time>2012-04-08T09:08:34Z</time>
      </trkpt>
      <trkpt lat="48.68648" lon="2.02864">
        <ele>126</ele>
        <time>2012-04-08T09:08:37Z</time>
      </trkpt>
      <trkpt lat="48.68644" lon="2.02859">
        <ele>124</ele>
        <time>2012-04-08T09:08:40Z</time>
      </trkpt>
      <trkpt lat="48.68633" lon="2.02859">
        <ele>119</ele>
        <time>2012-04-08T09:08:52Z</time>
      </trkpt>
      <trkpt lat="48.68627" lon="2.02861">
        <ele>120</ele>
        <time>2012-04-08T09:08:55Z</time>
      </trkpt>
      <trkpt lat="48.68621" lon="2.02862">
        <ele>120</ele>
        <time>2012-04-08T09:08:58Z</time>
      </trkpt>
      <trkpt lat="48.68616" lon="2.02864">
        <ele>119</ele>
        <time>2012-04-08T09:09:05Z</time>
      </trkpt>
      <trkpt lat="48.68605" lon="2.0287">
        <ele>126</ele>
        <time>2012-04-08T09:09:14Z</time>
      </trkpt>
      <trkpt lat="48.68601" lon="2.0287">
        <ele>123</ele>
        <time>2012-04-08T09:09:18Z</time>
      </trkpt>
      <trkpt lat="48.68596" lon="2.02873">
        <ele>126</ele>
        <time>2012-04-08T09:09:21Z</time>
      </trkpt>
      <trkpt lat="48.6859" lon="2.02876">
        <ele>124</ele>
        <time>2012-04-08T09:09:24Z</time>
      </trkpt>
      <trkpt lat="48.68576" lon="2.02884">
        <ele>128</ele>
        <time>2012-04-08T09:09:37Z</time>
      </trkpt>
      <trkpt lat="48.68572" lon="2.02878">
        <ele>129</ele>
        <time>2012-04-08T09:09:40Z</time>
      </trkpt>
      <trkpt lat="48.68566" lon="2.02881">
        <ele>130</ele>
        <time>2012-04-08T09:09:45Z</time>
      </trkpt>
      <trkpt lat="48.68562" lon="2.02885">
        <ele>124</ele>
        <time>2012-04-08T09:09:48Z</time>
      </trkpt>
      <trkpt lat="48.68557" lon="2.02887">
        <ele>124</ele>
        <time>2012-04-08T09:09:54Z</time>
      </trkpt>
      <trkpt lat="48.68542" lon="2.02894">
        <ele>131</ele>
        <time>2012-04-08T09:10:05Z</time>
      </trkpt>
      <trkpt lat="48.68538" lon="2.02892">
        <ele>128</ele>
        <time>2012-04-08T09:10:13Z</time>
      </trkpt>
      <trkpt lat="48.68527" lon="2.02895">
        <ele>125</ele>
        <time>2012-04-08T09:10:19Z</time>
      </trkpt>
      <trkpt lat="48.68507" lon="2.02897">
        <ele>132</ele>
        <time>2012-04-08T09:10:31Z</time>
      </trkpt>
      <trkpt lat="48.68496" lon="2.02899">
        <ele>132</ele>
        <time>2012-04-08T09:10:37Z</time>
      </trkpt>
      <trkpt lat="48.68491" lon="2.029">
        <ele>135</ele>
        <time>2012-04-08T09:10:41Z</time>
      </trkpt>
      <trkpt lat="48.68487" lon="2.02896">
        <ele>132</ele>
        <time>2012-04-08T09:10:44Z</time>
      </trkpt>
      <trkpt lat="48.68482" lon="2.02898">
        <ele>126</ele>
        <time>2012-04-08T09:10:51Z</time>
      </trkpt>
      <trkpt lat="48.68476" lon="2.029">
        <ele>124</ele>
        <time>2012-04-08T09:10:55Z</time>
      </trkpt>
      <trkpt lat="48.68462" lon="2.02907">
        <ele>131</ele>
        <time>2012-04-08T09:11:13Z</time>
      </trkpt>
      <trkpt lat="48.68457" lon="2.02906">
        <ele>130</ele>
        <time>2012-04-08T09:11:16Z</time>
      </trkpt>
      <trkpt lat="48.68451" lon="2.02908">
        <ele>133</ele>
        <time>2012-04-08T09:11:19Z</time>
      </trkpt>
      <trkpt lat="48.68441" lon="2.0291">
        <ele>129</ele>
        <time>2012-04-08T09:11:24Z</time>
      </trkpt>
      <trkpt lat="48.68429" lon="2.02912">
        <ele>131</ele>
        <time>2012-04-08T09:11:30Z</time>
      </trkpt>
      <trkpt lat="48.68417" lon="2.02914">
        <ele>128</ele>
        <time>2012-04-08T09:11:34Z</time>
      </trkpt>
      <trkpt lat="48.68411" lon="2.02914">
        <ele>129</ele>
        <time>2012-04-08T09:11:39Z</time>
      </trkpt>
      <trkpt lat="48.68405" lon="2.02917">
        <ele>128</ele>
        <time>2012-04-08T09:11:43Z</time>
      </trkpt>
      <trkpt lat="48.684" lon="2.02917">
        <ele>130</ele>
        <time>2012-04-08T09:11:46Z</time>
      </trkpt>
      <trkpt lat="48.68396" lon="2.02914">
        <ele>127</ele>
        <time>2012-04-08T09:11:53Z</time>
      </trkpt>
      <trkpt lat="48.68386" lon="2.02909">
        <ele>130</ele>
        <time>2012-04-08T09:12:03Z</time>
      </trkpt>
      <trkpt lat="48.68382" lon="2.02911">
        <ele>130</ele>
        <time>2012-04-08T09:12:06Z</time>
      </trkpt>
      <trkpt lat="48.68378" lon="2.02916">
        <ele>123</ele>
        <time>2012-04-08T09:12:11Z</time>
      </trkpt>
      <trkpt lat="48.68374" lon="2.0292">
        <ele>123</ele>
        <time>2012-04-08T09:12:15Z</time>
      </trkpt>
      <trkpt lat="48.68367" lon="2.02923">
        <ele>125</ele>
        <time>2012-04-08T09:12:20Z</time>
      </trkpt>
      <trkpt lat="48.68362" lon="2.02926">
        <ele>121</ele>
        <time>2012-04-08T09:12:24Z</time>
      </trkpt>
      <trkpt lat="48.68359" lon="2.02931">
        <ele>122</ele>
        <time>2012-04-08T09:12:28Z</time>
      </trkpt>
      <trkpt lat="48.68354" lon="2.02934">
        <ele>122</ele>
        <time>2012-04-08T09:12:33Z</time>
      </trkpt>
      <trkpt lat="48.68344" lon="2.02935">
        <ele>119</ele>
        <time>2012-04-08T09:12:40Z</time>
      </trkpt>
      <trkpt lat="48.68339" lon="2.0294">
        <ele>112</ele>
        <time>2012-04-08T09:12:46Z</time>
      </trkpt>
      <trkpt lat="48.68338" lon="2.02947">
        <ele>104</ele>
        <time>2012-04-08T09:12:52Z</time>
      </trkpt>
      <trkpt lat="48.68334" lon="2.02949">
        <ele>111</ele>
        <time>2012-04-08T09:12:55Z</time>
      </trkpt>
      <trkpt lat="48.68323" lon="2.02951">
        <ele>118</ele>
        <time>2012-04-08T09:13:02Z</time>
      </trkpt>
      <trkpt lat="48.68316" lon="2.02952">
        <ele>116</ele>
        <time>2012-04-08T09:13:07Z</time>
      </trkpt>
      <trkpt lat="48.68294" lon="2.02953">
        <ele>121</ele>
        <time>2012-04-08T09:13:20Z</time>
      </trkpt>
      <trkpt lat="48.68272" lon="2.02962">
        <ele>109</ele>
        <time>2012-04-08T09:13:37Z</time>
      </trkpt>
      <trkpt lat="48.68262" lon="2.02962">
        <ele>113</ele>
        <time>2012-04-08T09:13:43Z</time>
      </trkpt>
      <trkpt lat="48.68257" lon="2.02963">
        <ele>110</ele>
        <time>2012-04-08T09:13:45Z</time>
      </trkpt>
      <trkpt lat="48.68247" lon="2.02961">
        <ele>113</ele>
        <time>2012-04-08T09:13:54Z</time>
      </trkpt>
      <trkpt lat="48.68242" lon="2.02966">
        <ele>114</ele>
        <time>2012-04-08T09:13:59Z</time>
      </trkpt>
      <trkpt lat="48.6824" lon="2.02972">
        <ele>116</ele>
        <time>2012-04-08T09:14:02Z</time>
      </trkpt>
      <trkpt lat="48.68235" lon="2.02975">
        <ele>108</ele>
        <time>2012-04-08T09:14:09Z</time>
      </trkpt>
      <trkpt lat="48.68229" lon="2.02976">
        <ele>108</ele>
        <time>2012-04-08T09:14:13Z</time>
      </trkpt>
      <trkpt lat="48.68225" lon="2.02978">
        <ele>106</ele>
        <time>2012-04-08T09:14:16Z</time>
      </trkpt>
      <trkpt lat="48.6822" lon="2.02977">
        <ele>106</ele>
        <time>2012-04-08T09:14:21Z</time>
      </trkpt>
      <trkpt lat="48.6819" lon="2.02988">
        <ele>114</ele>
        <time>2012-04-08T09:14:41Z</time>
      </trkpt>
      <trkpt lat="48.68185" lon="2.02987">
        <ele>112</ele>
        <time>2012-04-08T09:14:46Z</time>
      </trkpt>
      <trkpt lat="48.68181" lon="2.0299">
        <ele>112</ele>
        <time>2012-04-08T09:14:50Z</time>
      </trkpt>
      <trkpt lat="48.6817" lon="2.02992">
        <ele>123</ele>
        <time>2012-04-08T09:14:58Z</time>
      </trkpt>
      <trkpt lat="48.6815" lon="2.02996">
        <ele>109</ele>
        <time>2012-04-08T09:15:15Z</time>
      </trkpt>
      <trkpt lat="48.68145" lon="2.02996">
        <ele>109</ele>
        <time>2012-04-08T09:15:18Z</time>
      </trkpt>
      <trkpt lat="48.68147" lon="2.02991">
        <ele>108</ele>
        <time>2012-04-08T09:15:33Z</time>
      </trkpt>
      <trkpt lat="48.68145" lon="2.02984">
        <ele>109</ele>
        <time>2012-04-08T09:15:39Z</time>
      </trkpt>
      <trkpt lat="48.68141" lon="2.02974">
        <ele>114</ele>
        <time>2012-04-08T09:15:50Z</time>
      </trkpt>
      <trkpt lat="48.68143" lon="2.02978">
        <ele>113</ele>
        <time>2012-04-08T09:16:02Z</time>
      </trkpt>
      <trkpt lat="48.68139" lon="2.02986">
        <ele>111</ele>
        <time>2012-04-08T09:16:12Z</time>
      </trkpt>
      <trkpt lat="48.68133" lon="2.02988">
        <ele>111</ele>
        <time>2012-04-08T09:16:16Z</time>
      </trkpt>
      <trkpt lat="48.68128" lon="2.02987">
        <ele>112</ele>
        <time>2012-04-08T09:16:22Z</time>
      </trkpt>
      <trkpt lat="48.68119" lon="2.02992">
        <ele>110</ele>
        <time>2012-04-08T09:16:28Z</time>
      </trkpt>
      <trkpt lat="48.68113" lon="2.02996">
        <ele>113</ele>
        <time>2012-04-08T09:16:35Z</time>
      </trkpt>
      <trkpt lat="48.68109" lon="2.02994">
        <ele>112</ele>
        <time>2012-04-08T09:16:37Z</time>
      </trkpt>
      <trkpt lat="48.68103" lon="2.02994">
        <ele>114</ele>
        <time>2012-04-08T09:16:40Z</time>
      </trkpt>
      <trkpt lat="48.68098" lon="2.02993">
        <ele>114</ele>
        <time>2012-04-08T09:16:43Z</time>
      </trkpt>
      <trkpt lat="48.68094" lon="2.0299">
        <ele>115</ele>
        <time>2012-04-08T09:16:47Z</time>
      </trkpt>
      <trkpt lat="48.68085" lon="2.02985">
        <ele>109</ele>
        <time>2012-04-08T09:16:57Z</time>
      </trkpt>
      <trkpt lat="48.68082" lon="2.02984">
        <ele>107</ele>
        <time>2012-04-08T09:17:09Z</time>
      </trkpt>
      <trkpt lat="48.68077" lon="2.02986">
        <ele>107</ele>
        <time>2012-04-08T09:17:14Z</time>
      </trkpt>
      <trkpt lat="48.68067" lon="2.02987">
        <ele>104</ele>
        <time>2012-04-08T09:17:20Z</time>
      </trkpt>
      <trkpt lat="48.68061" lon="2.02988">
        <ele>104</ele>
        <time>2012-04-08T09:17:25Z</time>
      </trkpt>
      <trkpt lat="48.68056" lon="2.02987">
        <ele>106</ele>
        <time>2012-04-08T09:17:29Z</time>
      </trkpt>
      <trkpt lat="48.68052" lon="2.02983">
        <ele>105</ele>
        <time>2012-04-08T09:17:33Z</time>
      </trkpt>
      <trkpt lat="48.68048" lon="2.02979">
        <ele>105</ele>
        <time>2012-04-08T09:17:37Z</time>
      </trkpt>
      <trkpt lat="48.68035" lon="2.02968">
        <ele>115</ele>
        <time>2012-04-08T09:17:48Z</time>
      </trkpt>
      <trkpt lat="48.68031" lon="2.02964">
        <ele>114</ele>
        <time>2012-04-08T09:17:52Z</time>
      </trkpt>
      <trkpt lat="48.68026" lon="2.02962">
        <ele>116</ele>
        <time>2012-04-08T09:17:55Z</time>
      </trkpt>
      <trkpt lat="48.68021" lon="2.02958">
        <ele>115</ele>
        <time>2012-04-08T09:17:58Z</time>
      </trkpt>
      <trkpt lat="48.68018" lon="2.02953">
        <ele>115</ele>
        <time>2012-04-08T09:18:01Z</time>
      </trkpt>
      <trkpt lat="48.68014" lon="2.02948">
        <ele>117</ele>
        <time>2012-04-08T09:18:06Z</time>
      </trkpt>
      <trkpt lat="48.68009" lon="2.02946">
        <ele>115</ele>
        <time>2012-04-08T09:18:12Z</time>
      </trkpt>
      <trkpt lat="48.68005" lon="2.02945">
        <ele>115</ele>
        <time>2012-04-08T09:18:15Z</time>
      </trkpt>
      <trkpt lat="48.68" lon="2.02943">
        <ele>111</ele>
        <time>2012-04-08T09:18:19Z</time>
      </trkpt>
      <trkpt lat="48.67996" lon="2.02938">
        <ele>113</ele>
        <time>2012-04-08T09:18:25Z</time>
      </trkpt>
      <trkpt lat="48.67992" lon="2.02936">
        <ele>113</ele>
        <time>2012-04-08T09:18:27Z</time>
      </trkpt>
      <trkpt lat="48.67982" lon="2.02938">
        <ele>113</ele>
        <time>2012-04-08T09:18:33Z</time>
      </trkpt>
      <trkpt lat="48.67977" lon="2.0294">
        <ele>112</ele>
        <time>2012-04-08T09:18:37Z</time>
      </trkpt>
      <trkpt lat="48.67978" lon="2.02935">
        <ele>111</ele>
        <time>2012-04-08T09:18:52Z</time>
      </trkpt>
      <trkpt lat="48.67975" lon="2.02929">
        <ele>113</ele>
        <time>2012-04-08T09:19:03Z</time>
      </trkpt>
      <trkpt lat="48.67971" lon="2.02922">
        <ele>112</ele>
        <time>2012-04-08T09:19:08Z</time>
      </trkpt>
      <trkpt lat="48.6797" lon="2.02916">
        <ele>117</ele>
        <time>2012-04-08T09:19:13Z</time>
      </trkpt>
      <trkpt lat="48.6796" lon="2.02885">
        <ele>108</ele>
        <time>2012-04-08T09:19:26Z</time>
      </trkpt>
      <trkpt lat="48.67964" lon="2.0288">
        <ele>108</ele>
        <time>2012-04-08T09:19:30Z</time>
      </trkpt>
      <trkpt lat="48.67969" lon="2.02877">
        <ele>107</ele>
        <time>2012-04-08T09:19:33Z</time>
      </trkpt>
      <trkpt lat="48.6797" lon="2.02871">
        <ele>105</ele>
        <time>2012-04-08T09:19:38Z</time>
      </trkpt>
      <trkpt lat="48.67979" lon="2.02824">
        <ele>105</ele>
        <time>2012-04-08T09:19:56Z</time>
      </trkpt>
      <trkpt lat="48.67979" lon="2.02815">
        <ele>102</ele>
        <time>2012-04-08T09:20:05Z</time>
      </trkpt>
      <trkpt lat="48.67974" lon="2.02803">
        <ele>98</ele>
        <time>2012-04-08T09:20:15Z</time>
      </trkpt>
      <trkpt lat="48.67976" lon="2.02796">
        <ele>97</ele>
        <time>2012-04-08T09:20:22Z</time>
      </trkpt>
      <trkpt lat="48.67983" lon="2.02783">
        <ele>101</ele>
        <time>2012-04-08T09:20:31Z</time>
      </trkpt>
      <trkpt lat="48.67988" lon="2.0277">
        <ele>101</ele>
        <time>2012-04-08T09:20:38Z</time>
      </trkpt>
      <trkpt lat="48.67987" lon="2.02764">
        <ele>97</ele>
        <time>2012-04-08T09:20:44Z</time>
      </trkpt>
      <trkpt lat="48.67983" lon="2.02751">
        <ele>97</ele>
        <time>2012-04-08T09:20:48Z</time>
      </trkpt>
      <trkpt lat="48.67986" lon="2.02745">
        <ele>96</ele>
        <time>2012-04-08T09:20:52Z</time>
      </trkpt>
      <trkpt lat="48.67989" lon="2.02739">
        <ele>96</ele>
        <time>2012-04-08T09:20:55Z</time>
      </trkpt>
      <trkpt lat="48.6799" lon="2.02732">
        <ele>95</ele>
        <time>2012-04-08T09:20:58Z</time>
      </trkpt>
      <trkpt lat="48.67991" lon="2.02725">
        <ele>99</ele>
        <time>2012-04-08T09:21:05Z</time>
      </trkpt>
      <trkpt lat="48.67987" lon="2.02722">
        <ele>100</ele>
        <time>2012-04-08T09:21:09Z</time>
      </trkpt>
      <trkpt lat="48.67983" lon="2.02718">
        <ele>97</ele>
        <time>2012-04-08T09:21:12Z</time>
      </trkpt>
      <trkpt lat="48.6798" lon="2.02712">
        <ele>97</ele>
        <time>2012-04-08T09:21:15Z</time>
      </trkpt>
      <trkpt lat="48.67982" lon="2.02706">
        <ele>96</ele>
        <time>2012-04-08T09:21:20Z</time>
      </trkpt>
      <trkpt lat="48.67982" lon="2.02698">
        <ele>96</ele>
        <time>2012-04-08T09:21:24Z</time>
      </trkpt>
      <trkpt lat="48.67978" lon="2.02693">
        <ele>96</ele>
        <time>2012-04-08T09:21:28Z</time>
      </trkpt>
      <trkpt lat="48.67974" lon="2.02689">
        <ele>97</ele>
        <time>2012-04-08T09:21:33Z</time>
      </trkpt>
      <trkpt lat="48.67971" lon="2.02683">
        <ele>97</ele>
        <time>2012-04-08T09:21:38Z</time>
      </trkpt>
      <trkpt lat="48.67968" lon="2.02678">
        <ele>98</ele>
        <time>2012-04-08T09:21:44Z</time>
      </trkpt>
      <trkpt lat="48.67963" lon="2.02677">
        <ele>99</ele>
        <time>2012-04-08T09:21:50Z</time>
      </trkpt>
      <trkpt lat="48.67958" lon="2.02674">
        <ele>98</ele>
        <time>2012-04-08T09:21:54Z</time>
      </trkpt>
      <trkpt lat="48.67952" lon="2.0267">
        <ele>98</ele>
        <time>2012-04-08T09:21:57Z</time>
      </trkpt>
      <trkpt lat="48.67948" lon="2.02668">
        <ele>99</ele>
        <time>2012-04-08T09:22:00Z</time>
      </trkpt>
      <trkpt lat="48.67944" lon="2.02663">
        <ele>97</ele>
        <time>2012-04-08T09:22:06Z</time>
      </trkpt>
      <trkpt lat="48.67936" lon="2.02655">
        <ele>97</ele>
        <time>2012-04-08T09:22:16Z</time>
      </trkpt>
      <trkpt lat="48.67926" lon="2.02653">
        <ele>101</ele>
        <time>2012-04-08T09:22:26Z</time>
      </trkpt>
      <trkpt lat="48.67922" lon="2.02649">
        <ele>100</ele>
        <time>2012-04-08T09:22:31Z</time>
      </trkpt>
      <trkpt lat="48.67919" lon="2.02636">
        <ele>103</ele>
        <time>2012-04-08T09:22:44Z</time>
      </trkpt>
      <trkpt lat="48.67909" lon="2.02632">
        <ele>103</ele>
        <time>2012-04-08T09:22:49Z</time>
      </trkpt>
      <trkpt lat="48.67898" lon="2.02629">
        <ele>101</ele>
        <time>2012-04-08T09:22:53Z</time>
      </trkpt>
      <trkpt lat="48.67893" lon="2.02629">
        <ele>102</ele>
        <time>2012-04-08T09:22:55Z</time>
      </trkpt>
      <trkpt lat="48.67888" lon="2.02626">
        <ele>101</ele>
        <time>2012-04-08T09:22:58Z</time>
      </trkpt>
      <trkpt lat="48.67884" lon="2.02623">
        <ele>102</ele>
        <time>2012-04-08T09:23:04Z</time>
      </trkpt>
      <trkpt lat="48.67882" lon="2.02616">
        <ele>101</ele>
        <time>2012-04-08T09:23:08Z</time>
      </trkpt>
      <trkpt lat="48.67879" lon="2.02609">
        <ele>101</ele>
        <time>2012-04-08T09:23:12Z</time>
      </trkpt>
      <trkpt lat="48.67878" lon="2.02603">
        <ele>100</ele>
        <time>2012-04-08T09:23:17Z</time>
      </trkpt>
      <trkpt lat="48.67872" lon="2.02592">
        <ele>100</ele>
        <time>2012-04-08T09:23:25Z</time>
      </trkpt>
      <trkpt lat="48.67867" lon="2.02586">
        <ele>99</ele>
        <time>2012-04-08T09:23:29Z</time>
      </trkpt>
      <trkpt lat="48.67863" lon="2.02581">
        <ele>99</ele>
        <time>2012-04-08T09:23:33Z</time>
      </trkpt>
      <trkpt lat="48.67856" lon="2.02568">
        <ele>96</ele>
        <time>2012-04-08T09:23:42Z</time>
      </trkpt>
      <trkpt lat="48.67852" lon="2.02562">
        <ele>96</ele>
        <time>2012-04-08T09:23:46Z</time>
      </trkpt>
      <trkpt lat="48.67852" lon="2.02555">
        <ele>95</ele>
        <time>2012-04-08T09:23:51Z</time>
      </trkpt>
      <trkpt lat="48.67855" lon="2.02549">
        <ele>95</ele>
        <time>2012-04-08T09:23:56Z</time>
      </trkpt>
      <trkpt lat="48.67857" lon="2.02543">
        <ele>96</ele>
        <time>2012-04-08T09:23:59Z</time>
      </trkpt>
      <trkpt lat="48.67866" lon="2.02536">
        <ele>105</ele>
        <time>2012-04-08T09:24:09Z</time>
      </trkpt>
      <trkpt lat="48.67871" lon="2.02526">
        <ele>105</ele>
        <time>2012-04-08T09:24:15Z</time>
      </trkpt>
      <trkpt lat="48.6787" lon="2.02516">
        <ele>104</ele>
        <time>2012-04-08T09:24:18Z</time>
      </trkpt>
      <trkpt lat="48.6787" lon="2.0251">
        <ele>104</ele>
        <time>2012-04-08T09:24:20Z</time>
      </trkpt>
      <trkpt lat="48.67871" lon="2.02502">
        <ele>103</ele>
        <time>2012-04-08T09:24:26Z</time>
      </trkpt>
      <trkpt lat="48.67869" lon="2.02494">
        <ele>101</ele>
        <time>2012-04-08T09:24:31Z</time>
      </trkpt>
      <trkpt lat="48.67866" lon="2.02487">
        <ele>101</ele>
        <time>2012-04-08T09:24:35Z</time>
      </trkpt>
      <trkpt lat="48.67864" lon="2.02481">
        <ele>102</ele>
        <time>2012-04-08T09:24:40Z</time>
      </trkpt>
      <trkpt lat="48.67865" lon="2.02474">
        <ele>100</ele>
        <time>2012-04-08T09:24:45Z</time>
      </trkpt>
      <trkpt lat="48.67865" lon="2.0246">
        <ele>100</ele>
        <time>2012-04-08T09:24:55Z</time>
      </trkpt>
      <trkpt lat="48.67867" lon="2.02447">
        <ele>103</ele>
        <time>2012-04-08T09:25:04Z</time>
      </trkpt>
      <trkpt lat="48.67864" lon="2.02424">
        <ele>103</ele>
        <time>2012-04-08T09:25:17Z</time>
      </trkpt>
      <trkpt lat="48.67863" lon="2.02411">
        <ele>101</ele>
        <time>2012-04-08T09:25:26Z</time>
      </trkpt>
      <trkpt lat="48.67862" lon="2.02404">
        <ele>104</ele>
        <time>2012-04-08T09:25:29Z</time>
      </trkpt>
      <trkpt lat="48.67864" lon="2.02398">
        <ele>105</ele>
        <time>2012-04-08T09:25:31Z</time>
      </trkpt>
      <trkpt lat="48.67868" lon="2.02392">
        <ele>105</ele>
        <time>2012-04-08T09:25:37Z</time>
      </trkpt>
      <trkpt lat="48.67869" lon="2.02385">
        <ele>108</ele>
        <time>2012-04-08T09:25:43Z</time>
      </trkpt>
      <trkpt lat="48.67865" lon="2.02378">
        <ele>111</ele>
        <time>2012-04-08T09:25:47Z</time>
      </trkpt>
      <trkpt lat="48.67863" lon="2.02371">
        <ele>109</ele>
        <time>2012-04-08T09:25:50Z</time>
      </trkpt>
      <trkpt lat="48.67866" lon="2.02365">
        <ele>108</ele>
        <time>2012-04-08T09:25:54Z</time>
      </trkpt>
      <trkpt lat="48.67877" lon="2.02349">
        <ele>103</ele>
        <time>2012-04-08T09:26:04Z</time>
      </trkpt>
      <trkpt lat="48.67874" lon="2.02342">
        <ele>100</ele>
        <time>2012-04-08T09:26:08Z</time>
      </trkpt>
      <trkpt lat="48.67876" lon="2.02335">
        <ele>99</ele>
        <time>2012-04-08T09:26:15Z</time>
      </trkpt>
      <trkpt lat="48.67881" lon="2.02332">
        <ele>102</ele>
        <time>2012-04-08T09:26:21Z</time>
      </trkpt>
      <trkpt lat="48.67881" lon="2.02336">
        <ele>104</ele>
        <time>2012-04-08T09:26:30Z</time>
      </trkpt>
      <trkpt lat="48.67879" lon="2.0234">
        <ele>94</ele>
        <time>2012-04-08T09:26:57Z</time>
      </trkpt>
      <trkpt lat="48.67883" lon="2.02341">
        <ele>118</ele>
        <time>2012-04-08T09:28:42Z</time>
      </trkpt>
      <trkpt lat="48.67882" lon="2.02339">
        <ele>116</ele>
        <time>2012-04-08T09:28:56Z</time>
      </trkpt>
      <trkpt lat="48.67878" lon="2.0234">
        <ele>118</ele>
        <time>2012-04-08T09:29:16Z</time>
      </trkpt>
      <trkpt lat="48.67877" lon="2.02337">
        <ele>110</ele>
        <time>2012-04-08T09:30:49Z</time>
      </trkpt>
      <trkpt lat="48.67876" lon="2.02334">
        <ele>108</ele>
        <time>2012-04-08T09:31:05Z</time>
      </trkpt>
      <trkpt lat="48.67871" lon="2.02332">
        <ele>105</ele>
        <time>2012-04-08T09:31:13Z</time>
      </trkpt>
      <trkpt lat="48.67866" lon="2.02326">
        <ele>105</ele>
        <time>2012-04-08T09:31:17Z</time>
      </trkpt>
      <trkpt lat="48.67862" lon="2.0232">
        <ele>98</ele>
        <time>2012-04-08T09:31:21Z</time>
      </trkpt>
      <trkpt lat="48.67857" lon="2.02319">
        <ele>94</ele>
        <time>2012-04-08T09:31:23Z</time>
      </trkpt>
      <trkpt lat="48.67851" lon="2.02316">
        <ele>94</ele>
        <time>2012-04-08T09:31:26Z</time>
      </trkpt>
      <trkpt lat="48.6785" lon="2.02309">
        <ele>99</ele>
        <time>2012-04-08T09:31:30Z</time>
      </trkpt>
      <trkpt lat="48.67853" lon="2.02272">
        <ele>112</ele>
        <time>2012-04-08T09:31:50Z</time>
      </trkpt>
      <trkpt lat="48.67856" lon="2.02267">
        <ele>112</ele>
        <time>2012-04-08T09:31:53Z</time>
      </trkpt>
      <trkpt lat="48.67858" lon="2.0226">
        <ele>112</ele>
        <time>2012-04-08T09:31:56Z</time>
      </trkpt>
      <trkpt lat="48.6786" lon="2.02253">
        <ele>111</ele>
        <time>2012-04-08T09:31:59Z</time>
      </trkpt>
      <trkpt lat="48.67864" lon="2.0225">
        <ele>108</ele>
        <time>2012-04-08T09:32:08Z</time>
      </trkpt>
      <trkpt lat="48.67865" lon="2.02243">
        <ele>109</ele>
        <time>2012-04-08T09:32:14Z</time>
      </trkpt>
      <trkpt lat="48.67868" lon="2.0224">
        <ele>107</ele>
        <time>2012-04-08T09:32:20Z</time>
      </trkpt>
      <trkpt lat="48.67874" lon="2.02239">
        <ele>109</ele>
        <time>2012-04-08T09:32:24Z</time>
      </trkpt>
      <trkpt lat="48.67877" lon="2.02232">
        <ele>102</ele>
        <time>2012-04-08T09:32:31Z</time>
      </trkpt>
      <trkpt lat="48.67877" lon="2.02224">
        <ele>102</ele>
        <time>2012-04-08T09:32:34Z</time>
      </trkpt>
      <trkpt lat="48.67874" lon="2.02201">
        <ele>110</ele>
        <time>2012-04-08T09:32:46Z</time>
      </trkpt>
      <trkpt lat="48.67871" lon="2.02194">
        <ele>112</ele>
        <time>2012-04-08T09:32:50Z</time>
      </trkpt>
      <trkpt lat="48.67869" lon="2.02188">
        <ele>110</ele>
        <time>2012-04-08T09:32:53Z</time>
      </trkpt>
      <trkpt lat="48.67869" lon="2.02181">
        <ele>109</ele>
        <time>2012-04-08T09:32:57Z</time>
      </trkpt>
      <trkpt lat="48.6787" lon="2.02174">
        <ele>106</ele>
        <time>2012-04-08T09:33:04Z</time>
      </trkpt>
      <trkpt lat="48.67871" lon="2.0216">
        <ele>110</ele>
        <time>2012-04-08T09:33:14Z</time>
      </trkpt>
      <trkpt lat="48.67872" lon="2.02153">
        <ele>108</ele>
        <time>2012-04-08T09:33:18Z</time>
      </trkpt>
      <trkpt lat="48.67874" lon="2.02146">
        <ele>108</ele>
        <time>2012-04-08T09:33:25Z</time>
      </trkpt>
      <trkpt lat="48.67874" lon="2.02138">
        <ele>109</ele>
        <time>2012-04-08T09:33:29Z</time>
      </trkpt>
      <trkpt lat="48.67874" lon="2.0213">
        <ele>107</ele>
        <time>2012-04-08T09:33:33Z</time>
      </trkpt>
      <trkpt lat="48.67874" lon="2.02123">
        <ele>108</ele>
        <time>2012-04-08T09:33:39Z</time>
      </trkpt>
      <trkpt lat="48.67874" lon="2.02116">
        <ele>104</ele>
        <time>2012-04-08T09:33:41Z</time>
      </trkpt>
      <trkpt lat="48.67873" lon="2.02108">
        <ele>104</ele>
        <time>2012-04-08T09:33:45Z</time>
      </trkpt>
      <trkpt lat="48.67874" lon="2.02099">
        <ele>103</ele>
        <time>2012-04-08T09:33:48Z</time>
      </trkpt>
      <trkpt lat="48.67872" lon="2.02092">
        <ele>113</ele>
        <time>2012-04-08T09:33:51Z</time>
      </trkpt>
      <trkpt lat="48.67869" lon="2.02087">
        <ele>113</ele>
        <time>2012-04-08T09:33:53Z</time>
      </trkpt>
      <trkpt lat="48.67869" lon="2.02081">
        <ele>109</ele>
        <time>2012-04-08T09:34:02Z</time>
      </trkpt>
      <trkpt lat="48.67865" lon="2.02066">
        <ele>113</ele>
        <time>2012-04-08T09:34:09Z</time>
      </trkpt>
      <trkpt lat="48.67864" lon="2.0206">
        <ele>113</ele>
        <time>2012-04-08T09:34:11Z</time>
      </trkpt>
      <trkpt lat="48.67863" lon="2.02045">
        <ele>116</ele>
        <time>2012-04-08T09:34:18Z</time>
      </trkpt>
      <trkpt lat="48.67859" lon="2.02033">
        <ele>119</ele>
        <time>2012-04-08T09:34:31Z</time>
      </trkpt>
      <trkpt lat="48.67862" lon="2.02027">
        <ele>119</ele>
        <time>2012-04-08T09:34:44Z</time>
      </trkpt>
      <trkpt lat="48.67862" lon="2.02019">
        <ele>118</ele>
        <time>2012-04-08T09:34:48Z</time>
      </trkpt>
      <trkpt lat="48.67864" lon="2.02012">
        <ele>120</ele>
        <time>2012-04-08T09:34:53Z</time>
      </trkpt>
      <trkpt lat="48.67865" lon="2.02005">
        <ele>118</ele>
        <time>2012-04-08T09:34:58Z</time>
      </trkpt>
      <trkpt lat="48.67865" lon="2.01996">
        <ele>119</ele>
        <time>2012-04-08T09:35:08Z</time>
      </trkpt>
      <trkpt lat="48.67868" lon="2.0199">
        <ele>116</ele>
        <time>2012-04-08T09:35:13Z</time>
      </trkpt>
      <trkpt lat="48.6787" lon="2.01984">
        <ele>116</ele>
        <time>2012-04-08T09:35:17Z</time>
      </trkpt>
      <trkpt lat="48.67872" lon="2.01977">
        <ele>114</ele>
        <time>2012-04-08T09:35:21Z</time>
      </trkpt>
      <trkpt lat="48.67874" lon="2.01969">
        <ele>114</ele>
        <time>2012-04-08T09:35:26Z</time>
      </trkpt>
      <trkpt lat="48.67877" lon="2.01956">
        <ele>110</ele>
        <time>2012-04-08T09:35:37Z</time>
      </trkpt>
      <trkpt lat="48.67878" lon="2.01948">
        <ele>110</ele>
        <time>2012-04-08T09:35:41Z</time>
      </trkpt>
      <trkpt lat="48.67882" lon="2.01933">
        <ele>107</ele>
        <time>2012-04-08T09:35:49Z</time>
      </trkpt>
      <trkpt lat="48.67886" lon="2.01929">
        <ele>105</ele>
        <time>2012-04-08T09:35:53Z</time>
      </trkpt>
      <trkpt lat="48.67891" lon="2.01914">
        <ele>102</ele>
        <time>2012-04-08T09:36:02Z</time>
      </trkpt>
      <trkpt lat="48.67891" lon="2.01907">
        <ele>102</ele>
        <time>2012-04-08T09:36:07Z</time>
      </trkpt>
      <trkpt lat="48.67892" lon="2.01892">
        <ele>106</ele>
        <time>2012-04-08T09:36:16Z</time>
      </trkpt>
      <trkpt lat="48.67893" lon="2.01884">
        <ele>106</ele>
        <time>2012-04-08T09:36:19Z</time>
      </trkpt>
      <trkpt lat="48.67894" lon="2.01877">
        <ele>105</ele>
        <time>2012-04-08T09:36:23Z</time>
      </trkpt>
      <trkpt lat="48.67894" lon="2.01861">
        <ele>108</ele>
        <time>2012-04-08T09:36:28Z</time>
      </trkpt>
      <trkpt lat="48.67894" lon="2.01853">
        <ele>108</ele>
        <time>2012-04-08T09:36:32Z</time>
      </trkpt>
      <trkpt lat="48.67896" lon="2.01846">
        <ele>107</ele>
        <time>2012-04-08T09:36:35Z</time>
      </trkpt>
      <trkpt lat="48.679" lon="2.0184">
        <ele>105</ele>
        <time>2012-04-08T09:36:39Z</time>
      </trkpt>
      <trkpt lat="48.67904" lon="2.01837">
        <ele>105</ele>
        <time>2012-04-08T09:36:42Z</time>
      </trkpt>
      <trkpt lat="48.67905" lon="2.0183">
        <ele>107</ele>
        <time>2012-04-08T09:36:46Z</time>
      </trkpt>
      <trkpt lat="48.67902" lon="2.01815">
        <ele>107</ele>
        <time>2012-04-08T09:36:54Z</time>
      </trkpt>
      <trkpt lat="48.67901" lon="2.01806">
        <ele>108</ele>
        <time>2012-04-08T09:36:58Z</time>
      </trkpt>
      <trkpt lat="48.67899" lon="2.018">
        <ele>108</ele>
        <time>2012-04-08T09:37:01Z</time>
      </trkpt>
      <trkpt lat="48.67901" lon="2.01786">
        <ele>104</ele>
        <time>2012-04-08T09:37:09Z</time>
      </trkpt>
      <trkpt lat="48.67901" lon="2.01772">
        <ele>108</ele>
        <time>2012-04-08T09:37:17Z</time>
      </trkpt>
      <trkpt lat="48.679" lon="2.01763">
        <ele>107</ele>
        <time>2012-04-08T09:37:20Z</time>
      </trkpt>
      <trkpt lat="48.67899" lon="2.01757">
        <ele>111</ele>
        <time>2012-04-08T09:37:24Z</time>
      </trkpt>
      <trkpt lat="48.67898" lon="2.0175">
        <ele>110</ele>
        <time>2012-04-08T09:37:26Z</time>
      </trkpt>
      <trkpt lat="48.67896" lon="2.01738">
        <ele>112</ele>
        <time>2012-04-08T09:37:33Z</time>
      </trkpt>
      <trkpt lat="48.67894" lon="2.0173">
        <ele>112</ele>
        <time>2012-04-08T09:37:36Z</time>
      </trkpt>
      <trkpt lat="48.6789" lon="2.01717">
        <ele>111</ele>
        <time>2012-04-08T09:37:43Z</time>
      </trkpt>
      <trkpt lat="48.6789" lon="2.0171">
        <ele>112</ele>
        <time>2012-04-08T09:37:49Z</time>
      </trkpt>
      <trkpt lat="48.67891" lon="2.01703">
        <ele>110</ele>
        <time>2012-04-08T09:37:55Z</time>
      </trkpt>
      <trkpt lat="48.67889" lon="2.01696">
        <ele>110</ele>
        <time>2012-04-08T09:37:59Z</time>
      </trkpt>
      <trkpt lat="48.67889" lon="2.01689">
        <ele>112</ele>
        <time>2012-04-08T09:38:03Z</time>
      </trkpt>
      <trkpt lat="48.67887" lon="2.01683">
        <ele>112</ele>
        <time>2012-04-08T09:38:06Z</time>
      </trkpt>
      <trkpt lat="48.67883" lon="2.01669">
        <ele>119</ele>
        <time>2012-04-08T09:38:15Z</time>
      </trkpt>
      <trkpt lat="48.67882" lon="2.01662">
        <ele>119</ele>
        <time>2012-04-08T09:38:19Z</time>
      </trkpt>
      <trkpt lat="48.6788" lon="2.01653">
        <ele>118</ele>
        <time>2012-04-08T09:38:27Z</time>
      </trkpt>
      <trkpt lat="48.67878" lon="2.01645">
        <ele>118</ele>
        <time>2012-04-08T09:38:30Z</time>
      </trkpt>
      <trkpt lat="48.67873" lon="2.01629">
        <ele>124</ele>
        <time>2012-04-08T09:38:38Z</time>
      </trkpt>
      <trkpt lat="48.67871" lon="2.01615">
        <ele>124</ele>
        <time>2012-04-08T09:38:43Z</time>
      </trkpt>
      <trkpt lat="48.67869" lon="2.01601">
        <ele>126</ele>
        <time>2012-04-08T09:38:52Z</time>
      </trkpt>
      <trkpt lat="48.67868" lon="2.01594">
        <ele>126</ele>
        <time>2012-04-08T09:38:57Z</time>
      </trkpt>
      <trkpt lat="48.67869" lon="2.01587">
        <ele>128</ele>
        <time>2012-04-08T09:39:01Z</time>
      </trkpt>
      <trkpt lat="48.67865" lon="2.01574">
        <ele>125</ele>
        <time>2012-04-08T09:39:09Z</time>
      </trkpt>
      <trkpt lat="48.67864" lon="2.01566">
        <ele>126</ele>
        <time>2012-04-08T09:39:14Z</time>
      </trkpt>
      <trkpt lat="48.67864" lon="2.01559">
        <ele>123</ele>
        <time>2012-04-08T09:39:19Z</time>
      </trkpt>
      <trkpt lat="48.67864" lon="2.01552">
        <ele>124</ele>
        <time>2012-04-08T09:39:25Z</time>
      </trkpt>
      <trkpt lat="48.67863" lon="2.01545">
        <ele>121</ele>
        <time>2012-04-08T09:39:29Z</time>
      </trkpt>
      <trkpt lat="48.67866" lon="2.01532">
        <ele>116</ele>
        <time>2012-04-08T09:39:36Z</time>
      </trkpt>
      <trkpt lat="48.67864" lon="2.01525">
        <ele>115</ele>
        <time>2012-04-08T09:39:40Z</time>
      </trkpt>
      <trkpt lat="48.67865" lon="2.01518">
        <ele>114</ele>
        <time>2012-04-08T09:39:45Z</time>
      </trkpt>
      <trkpt lat="48.67862" lon="2.01512">
        <ele>115</ele>
        <time>2012-04-08T09:39:49Z</time>
      </trkpt>
      <trkpt lat="48.6786" lon="2.01497">
        <ele>115</ele>
        <time>2012-04-08T09:39:56Z</time>
      </trkpt>
      <trkpt lat="48.67862" lon="2.01484">
        <ele>112</ele>
        <time>2012-04-08T09:40:04Z</time>
      </trkpt>
      <trkpt lat="48.67861" lon="2.01469">
        <ele>115</ele>
        <time>2012-04-08T09:40:11Z</time>
      </trkpt>
      <trkpt lat="48.6786" lon="2.01462">
        <ele>114</ele>
        <time>2012-04-08T09:40:14Z</time>
      </trkpt>
      <trkpt lat="48.6786" lon="2.01448">
        <ele>117</ele>
        <time>2012-04-08T09:40:27Z</time>
      </trkpt>
      <trkpt lat="48.67861" lon="2.01439">
        <ele>115</ele>
        <time>2012-04-08T09:40:31Z</time>
      </trkpt>
      <trkpt lat="48.67859" lon="2.01415">
        <ele>115</ele>
        <time>2012-04-08T09:40:41Z</time>
      </trkpt>
      <trkpt lat="48.67859" lon="2.01407">
        <ele>117</ele>
        <time>2012-04-08T09:40:45Z</time>
      </trkpt>
      <trkpt lat="48.67859" lon="2.014">
        <ele>117</ele>
        <time>2012-04-08T09:40:48Z</time>
      </trkpt>
      <trkpt lat="48.67859" lon="2.01393">
        <ele>116</ele>
        <time>2012-04-08T09:40:53Z</time>
      </trkpt>
      <trkpt lat="48.67858" lon="2.01385">
        <ele>117</ele>
        <time>2012-04-08T09:40:56Z</time>
      </trkpt>
      <trkpt lat="48.67859" lon="2.0137">
        <ele>112</ele>
        <time>2012-04-08T09:41:04Z</time>
      </trkpt>
      <trkpt lat="48.67861" lon="2.01356">
        <ele>112</ele>
        <time>2012-04-08T09:41:13Z</time>
      </trkpt>
      <trkpt lat="48.67863" lon="2.0135">
        <ele>108</ele>
        <time>2012-04-08T09:41:16Z</time>
      </trkpt>
      <trkpt lat="48.67867" lon="2.01344">
        <ele>109</ele>
        <time>2012-04-08T09:41:20Z</time>
      </trkpt>
      <trkpt lat="48.6787" lon="2.01336">
        <ele>109</ele>
        <time>2012-04-08T09:41:23Z</time>
      </trkpt>
      <trkpt lat="48.67874" lon="2.0133">
        <ele>110</ele>
        <time>2012-04-08T09:41:25Z</time>
      </trkpt>
      <trkpt lat="48.6788" lon="2.01328">
        <ele>110</ele>
        <time>2012-04-08T09:41:28Z</time>
      </trkpt>
      <trkpt lat="48.67885" lon="2.01328">
        <ele>111</ele>
        <time>2012-04-08T09:41:32Z</time>
      </trkpt>
      <trkpt lat="48.67889" lon="2.01333">
        <ele>113</ele>
        <time>2012-04-08T09:41:38Z</time>
      </trkpt>
      <trkpt lat="48.67892" lon="2.01326">
        <ele>104</ele>
        <time>2012-04-08T09:41:52Z</time>
      </trkpt>
      <trkpt lat="48.67904" lon="2.01305">
        <ele>95</ele>
        <time>2012-04-08T09:42:17Z</time>
      </trkpt>
      <trkpt lat="48.67907" lon="2.01304">
        <ele>97</ele>
        <time>2012-04-08T09:42:25Z</time>
      </trkpt>
      <trkpt lat="48.6791" lon="2.01305">
        <ele>93</ele>
        <time>2012-04-08T09:42:32Z</time>
      </trkpt>
      <trkpt lat="48.67913" lon="2.01305">
        <ele>95</ele>
        <time>2012-04-08T09:42:38Z</time>
      </trkpt>
      <trkpt lat="48.67918" lon="2.01302">
        <ele>95</ele>
        <time>2012-04-08T09:42:52Z</time>
      </trkpt>
      <trkpt lat="48.67921" lon="2.01302">
        <ele>94</ele>
        <time>2012-04-08T09:43:03Z</time>
      </trkpt>
      <trkpt lat="48.67925" lon="2.01306">
        <ele>100</ele>
        <time>2012-04-08T09:43:14Z</time>
      </trkpt>
      <trkpt lat="48.67928" lon="2.01302">
        <ele>99</ele>
        <time>2012-04-08T09:43:25Z</time>
      </trkpt>
      <trkpt lat="48.67933" lon="2.01301">
        <ele>100</ele>
        <time>2012-04-08T09:43:29Z</time>
      </trkpt>
      <trkpt lat="48.67942" lon="2.01292">
        <ele>95</ele>
        <time>2012-04-08T09:43:43Z</time>
      </trkpt>
      <trkpt lat="48.67943" lon="2.01285">
        <ele>92</ele>
        <time>2012-04-08T09:43:50Z</time>
      </trkpt>
      <trkpt lat="48.67947" lon="2.0128">
        <ele>91</ele>
        <time>2012-04-08T09:43:54Z</time>
      </trkpt>
      <trkpt lat="48.67954" lon="2.01269">
        <ele>93</ele>
        <time>2012-04-08T09:44:03Z</time>
      </trkpt>
      <trkpt lat="48.67961" lon="2.01258">
        <ele>88</ele>
        <time>2012-04-08T09:44:11Z</time>
      </trkpt>
      <trkpt lat="48.67965" lon="2.01243">
        <ele>88</ele>
        <time>2012-04-08T09:44:19Z</time>
      </trkpt>
      <trkpt lat="48.67969" lon="2.01238">
        <ele>89</ele>
        <time>2012-04-08T09:44:25Z</time>
      </trkpt>
      <trkpt lat="48.67973" lon="2.01231">
        <ele>89</ele>
        <time>2012-04-08T09:44:29Z</time>
      </trkpt>
      <trkpt lat="48.67973" lon="2.01218">
        <ele>91</ele>
        <time>2012-04-08T09:44:37Z</time>
      </trkpt>
      <trkpt lat="48.67972" lon="2.01211">
        <ele>93</ele>
        <time>2012-04-08T09:44:40Z</time>
      </trkpt>
      <trkpt lat="48.67971" lon="2.01204">
        <ele>93</ele>
        <time>2012-04-08T09:44:45Z</time>
      </trkpt>
      <trkpt lat="48.67974" lon="2.01198">
        <ele>94</ele>
        <time>2012-04-08T09:44:52Z</time>
      </trkpt>
      <trkpt lat="48.67976" lon="2.01191">
        <ele>92</ele>
        <time>2012-04-08T09:45:00Z</time>
      </trkpt>
      <trkpt lat="48.67975" lon="2.01185">
        <ele>95</ele>
        <time>2012-04-08T09:45:03Z</time>
      </trkpt>
      <trkpt lat="48.67974" lon="2.01177">
        <ele>95</ele>
        <time>2012-04-08T09:45:07Z</time>
      </trkpt>
      <trkpt lat="48.67971" lon="2.0117">
        <ele>98</ele>
        <time>2012-04-08T09:45:10Z</time>
      </trkpt>
      <trkpt lat="48.67972" lon="2.01163">
        <ele>98</ele>
        <time>2012-04-08T09:45:13Z</time>
      </trkpt>
      <trkpt lat="48.67972" lon="2.01156">
        <ele>100</ele>
        <time>2012-04-08T09:45:17Z</time>
      </trkpt>
      <trkpt lat="48.6797" lon="2.01148">
        <ele>100</ele>
        <time>2012-04-08T09:45:21Z</time>
      </trkpt>
      <trkpt lat="48.67971" lon="2.01133">
        <ele>95</ele>
        <time>2012-04-08T09:45:31Z</time>
      </trkpt>
      <trkpt lat="48.67969" lon="2.01127">
        <ele>96</ele>
        <time>2012-04-08T09:45:34Z</time>
      </trkpt>
      <trkpt lat="48.67968" lon="2.01119">
        <ele>93</ele>
        <time>2012-04-08T09:45:38Z</time>
      </trkpt>
      <trkpt lat="48.67969" lon="2.01113">
        <ele>93</ele>
        <time>2012-04-08T09:45:41Z</time>
      </trkpt>
      <trkpt lat="48.67971" lon="2.01106">
        <ele>90</ele>
        <time>2012-04-08T09:45:45Z</time>
      </trkpt>
      <trkpt lat="48.67974" lon="2.01094">
        <ele>93</ele>
        <time>2012-04-08T09:45:56Z</time>
      </trkpt>
      <trkpt lat="48.67972" lon="2.01087">
        <ele>90</ele>
        <time>2012-04-08T09:46:01Z</time>
      </trkpt>
      <trkpt lat="48.67973" lon="2.01079">
        <ele>89</ele>
        <time>2012-04-08T09:46:07Z</time>
      </trkpt>
      <trkpt lat="48.67971" lon="2.01072">
        <ele>89</ele>
        <time>2012-04-08T09:46:11Z</time>
      </trkpt>
      <trkpt lat="48.67973" lon="2.01057">
        <ele>93</ele>
        <time>2012-04-08T09:46:22Z</time>
      </trkpt>
      <trkpt lat="48.67974" lon="2.0105">
        <ele>93</ele>
        <time>2012-04-08T09:46:26Z</time>
      </trkpt>
      <trkpt lat="48.67978" lon="2.01037">
        <ele>89</ele>
        <time>2012-04-08T09:46:36Z</time>
      </trkpt>
      <trkpt lat="48.67977" lon="2.01029">
        <ele>87</ele>
        <time>2012-04-08T09:46:40Z</time>
      </trkpt>
      <trkpt lat="48.67976" lon="2.01021">
        <ele>89</ele>
        <time>2012-04-08T09:46:45Z</time>
      </trkpt>
      <trkpt lat="48.67977" lon="2.01015">
        <ele>90</ele>
        <time>2012-04-08T09:46:51Z</time>
      </trkpt>
      <trkpt lat="48.67981" lon="2.0101">
        <ele>93</ele>
        <time>2012-04-08T09:46:57Z</time>
      </trkpt>
      <trkpt lat="48.67983" lon="2.01004">
        <ele>92</ele>
        <time>2012-04-08T09:47:03Z</time>
      </trkpt>
      <trkpt lat="48.67988" lon="2.01">
        <ele>94</ele>
        <time>2012-04-08T09:47:08Z</time>
      </trkpt>
      <trkpt lat="48.67991" lon="2.00995">
        <ele>93</ele>
        <time>2012-04-08T09:47:16Z</time>
      </trkpt>
      <trkpt lat="48.67995" lon="2.00983">
        <ele>103</ele>
        <time>2012-04-08T09:47:30Z</time>
      </trkpt>
      <trkpt lat="48.67995" lon="2.00959">
        <ele>99</ele>
        <time>2012-04-08T09:47:44Z</time>
      </trkpt>
      <trkpt lat="48.67992" lon="2.00951">
        <ele>100</ele>
        <time>2012-04-08T09:47:48Z</time>
      </trkpt>
      <trkpt lat="48.67989" lon="2.00944">
        <ele>100</ele>
        <time>2012-04-08T09:47:51Z</time>
      </trkpt>
      <trkpt lat="48.67991" lon="2.00937">
        <ele>102</ele>
        <time>2012-04-08T09:47:55Z</time>
      </trkpt>
      <trkpt lat="48.6799" lon="2.00929">
        <ele>102</ele>
        <time>2012-04-08T09:47:59Z</time>
      </trkpt>
      <trkpt lat="48.67987" lon="2.00923">
        <ele>102</ele>
        <time>2012-04-08T09:48:03Z</time>
      </trkpt>
      <trkpt lat="48.67984" lon="2.00922">
        <ele>102</ele>
        <time>2012-04-08T09:48:09Z</time>
      </trkpt>
      <trkpt lat="48.67982" lon="2.00916">
        <ele>105</ele>
        <time>2012-04-08T09:48:16Z</time>
      </trkpt>
      <trkpt lat="48.67982" lon="2.00909">
        <ele>103</ele>
        <time>2012-04-08T09:48:21Z</time>
      </trkpt>
      <trkpt lat="48.67985" lon="2.00903">
        <ele>105</ele>
        <time>2012-04-08T09:48:26Z</time>
      </trkpt>
      <trkpt lat="48.67989" lon="2.00897">
        <ele>105</ele>
        <time>2012-04-08T09:48:29Z</time>
      </trkpt>
      <trkpt lat="48.67991" lon="2.0089">
        <ele>104</ele>
        <time>2012-04-08T09:48:31Z</time>
      </trkpt>
      <trkpt lat="48.67994" lon="2.00884">
        <ele>105</ele>
        <time>2012-04-08T09:48:34Z</time>
      </trkpt>
      <trkpt lat="48.67998" lon="2.00881">
        <ele>106</ele>
        <time>2012-04-08T09:48:38Z</time>
      </trkpt>
      <trkpt lat="48.68003" lon="2.0088">
        <ele>103</ele>
        <time>2012-04-08T09:48:44Z</time>
      </trkpt>
      <trkpt lat="48.68008" lon="2.0088">
        <ele>103</ele>
        <time>2012-04-08T09:48:50Z</time>
      </trkpt>
      <trkpt lat="48.68012" lon="2.0088">
        <ele>104</ele>
        <time>2012-04-08T09:48:55Z</time>
      </trkpt>
      <trkpt lat="48.68015" lon="2.00875">
        <ele>106</ele>
        <time>2012-04-08T09:48:59Z</time>
      </trkpt>
      <trkpt lat="48.68014" lon="2.00865">
        <ele>102</ele>
        <time>2012-04-08T09:49:06Z</time>
      </trkpt>
      <trkpt lat="48.68013" lon="2.00858">
        <ele>103</ele>
        <time>2012-04-08T09:49:08Z</time>
      </trkpt>
      <trkpt lat="48.68017" lon="2.00854">
        <ele>104</ele>
        <time>2012-04-08T09:49:15Z</time>
      </trkpt>
      <trkpt lat="48.68021" lon="2.0086">
        <ele>104</ele>
        <time>2012-04-08T09:49:19Z</time>
      </trkpt>
      <trkpt lat="48.68025" lon="2.00864">
        <ele>104</ele>
        <time>2012-04-08T09:49:22Z</time>
      </trkpt>
      <trkpt lat="48.68029" lon="2.00862">
        <ele>106</ele>
        <time>2012-04-08T09:49:29Z</time>
      </trkpt>
      <trkpt lat="48.68035" lon="2.00862">
        <ele>106</ele>
        <time>2012-04-08T09:49:32Z</time>
      </trkpt>
      <trkpt lat="48.6804" lon="2.00863">
        <ele>108</ele>
        <time>2012-04-08T09:49:34Z</time>
      </trkpt>
      <trkpt lat="48.68039" lon="2.0087">
        <ele>108</ele>
        <time>2012-04-08T09:49:40Z</time>
      </trkpt>
      <trkpt lat="48.68042" lon="2.00876">
        <ele>110</ele>
        <time>2012-04-08T09:49:45Z</time>
      </trkpt>
      <trkpt lat="48.68045" lon="2.00871">
        <ele>113</ele>
        <time>2012-04-08T09:49:52Z</time>
      </trkpt>
      <trkpt lat="48.68044" lon="2.00865">
        <ele>112</ele>
        <time>2012-04-08T09:49:55Z</time>
      </trkpt>
      <trkpt lat="48.68041" lon="2.00865">
        <ele>112</ele>
        <time>2012-04-08T09:50:25Z</time>
      </trkpt>
      <trkpt lat="48.68043" lon="2.00868">
        <ele>116</ele>
        <time>2012-04-08T09:51:18Z</time>
      </trkpt>
      <trkpt lat="48.68049" lon="2.00877">
        <ele>113</ele>
        <time>2012-04-08T09:53:08Z</time>
      </trkpt>
      <trkpt lat="48.68052" lon="2.00877">
        <ele>111</ele>
        <time>2012-04-08T09:53:23Z</time>
      </trkpt>
      <trkpt lat="48.68055" lon="2.00876">
        <ele>113</ele>
        <time>2012-04-08T09:53:30Z</time>
      </trkpt>
      <trkpt lat="48.68057" lon="2.00875">
        <ele>110</ele>
        <time>2012-04-08T09:53:55Z</time>
      </trkpt>
      <trkpt lat="48.68062" lon="2.00878">
        <ele>111</ele>
        <time>2012-04-08T09:54:00Z</time>
      </trkpt>
      <trkpt lat="48.68067" lon="2.00875">
        <ele>110</ele>
        <time>2012-04-08T09:54:13Z</time>
      </trkpt>
      <trkpt lat="48.68072" lon="2.00877">
        <ele>104</ele>
        <time>2012-04-08T09:54:39Z</time>
      </trkpt>
      <trkpt lat="48.68073" lon="2.00875">
        <ele>100</ele>
        <time>2012-04-08T09:55:43Z</time>
      </trkpt>
      <trkpt lat="48.68075" lon="2.00883">
        <ele>101</ele>
        <time>2012-04-08T09:56:12Z</time>
      </trkpt>
      <trkpt lat="48.68083" lon="2.0089">
        <ele>103</ele>
        <time>2012-04-08T09:56:22Z</time>
      </trkpt>
      <trkpt lat="48.68088" lon="2.00893">
        <ele>103</ele>
        <time>2012-04-08T09:56:27Z</time>
      </trkpt>
      <trkpt lat="48.68099" lon="2.00908">
        <ele>107</ele>
        <time>2012-04-08T09:56:39Z</time>
      </trkpt>
      <trkpt lat="48.68103" lon="2.00912">
        <ele>107</ele>
        <time>2012-04-08T09:56:43Z</time>
      </trkpt>
      <trkpt lat="48.68117" lon="2.00933">
        <ele>115</ele>
        <time>2012-04-08T09:57:00Z</time>
      </trkpt>
      <trkpt lat="48.6812" lon="2.00938">
        <ele>115</ele>
        <time>2012-04-08T09:57:03Z</time>
      </trkpt>
      <trkpt lat="48.68127" lon="2.00949">
        <ele>120</ele>
        <time>2012-04-08T09:57:10Z</time>
      </trkpt>
      <trkpt lat="48.68131" lon="2.00956">
        <ele>120</ele>
        <time>2012-04-08T09:57:14Z</time>
      </trkpt>
      <trkpt lat="48.68147" lon="2.00977">
        <ele>125</ele>
        <time>2012-04-08T09:57:26Z</time>
      </trkpt>
      <trkpt lat="48.68151" lon="2.00989">
        <ele>125</ele>
        <time>2012-04-08T09:57:34Z</time>
      </trkpt>
      <trkpt lat="48.68152" lon="2.00997">
        <ele>124</ele>
        <time>2012-04-08T09:57:38Z</time>
      </trkpt>
      <trkpt lat="48.68161" lon="2.01015">
        <ele>124</ele>
        <time>2012-04-08T09:57:47Z</time>
      </trkpt>
      <trkpt lat="48.68163" lon="2.01023">
        <ele>123</ele>
        <time>2012-04-08T09:57:50Z</time>
      </trkpt>
      <trkpt lat="48.68166" lon="2.0103">
        <ele>125</ele>
        <time>2012-04-08T09:57:54Z</time>
      </trkpt>
      <trkpt lat="48.68171" lon="2.01032">
        <ele>122</ele>
        <time>2012-04-08T09:58:01Z</time>
      </trkpt>
      <trkpt lat="48.68172" lon="2.01024">
        <ele>122</ele>
        <time>2012-04-08T09:58:06Z</time>
      </trkpt>
      <trkpt lat="48.68169" lon="2.01027">
        <ele>125</ele>
        <time>2012-04-08T09:58:40Z</time>
      </trkpt>
      <trkpt lat="48.6817" lon="2.01035">
        <ele>125</ele>
        <time>2012-04-08T09:58:41Z</time>
      </trkpt>
      <trkpt lat="48.68167" lon="2.01039">
        <ele>124</ele>
        <time>2012-04-08T09:58:53Z</time>
      </trkpt>
      <trkpt lat="48.68164" lon="2.01034">
        <ele>123</ele>
        <time>2012-04-08T09:59:00Z</time>
      </trkpt>
      <trkpt lat="48.68167" lon="2.01033">
        <ele>120</ele>
        <time>2012-04-08T09:59:13Z</time>
      </trkpt>
      <trkpt lat="48.68168" lon="2.01029">
        <ele>119</ele>
        <time>2012-04-08T09:59:19Z</time>
      </trkpt>
      <trkpt lat="48.68173" lon="2.01026">
        <ele>119</ele>
        <time>2012-04-08T09:59:36Z</time>
      </trkpt>
      <trkpt lat="48.68175" lon="2.01021">
        <ele>117</ele>
        <time>2012-04-08T09:59:40Z</time>
      </trkpt>
      <trkpt lat="48.68178" lon="2.01005">
        <ele>117</ele>
        <time>2012-04-08T09:59:47Z</time>
      </trkpt>
      <trkpt lat="48.68181" lon="2.00991">
        <ele>119</ele>
        <time>2012-04-08T09:59:53Z</time>
      </trkpt>
      <trkpt lat="48.68186" lon="2.00979">
        <ele>116</ele>
        <time>2012-04-08T10:00:00Z</time>
      </trkpt>
      <trkpt lat="48.68186" lon="2.00971">
        <ele>117</ele>
        <time>2012-04-08T10:00:03Z</time>
      </trkpt>
      <trkpt lat="48.68181" lon="2.00953">
        <ele>111</ele>
        <time>2012-04-08T10:00:15Z</time>
      </trkpt>
      <trkpt lat="48.68179" lon="2.00944">
        <ele>116</ele>
        <time>2012-04-08T10:00:18Z</time>
      </trkpt>
      <trkpt lat="48.68178" lon="2.00935">
        <ele>115</ele>
        <time>2012-04-08T10:00:21Z</time>
      </trkpt>
      <trkpt lat="48.68178" lon="2.00928">
        <ele>115</ele>
        <time>2012-04-08T10:00:25Z</time>
      </trkpt>
      <trkpt lat="48.68179" lon="2.0092">
        <ele>116</ele>
        <time>2012-04-08T10:00:30Z</time>
      </trkpt>
      <trkpt lat="48.6818" lon="2.00913">
        <ele>116</ele>
        <time>2012-04-08T10:00:34Z</time>
      </trkpt>
      <trkpt lat="48.68181" lon="2.00904">
        <ele>113</ele>
        <time>2012-04-08T10:00:40Z</time>
      </trkpt>
      <trkpt lat="48.6818" lon="2.00897">
        <ele>113</ele>
        <time>2012-04-08T10:00:43Z</time>
      </trkpt>
      <trkpt lat="48.68181" lon="2.00865">
        <ele>123</ele>
        <time>2012-04-08T10:00:55Z</time>
      </trkpt>
      <trkpt lat="48.68179" lon="2.0085">
        <ele>115</ele>
        <time>2012-04-08T10:01:19Z</time>
      </trkpt>
      <trkpt lat="48.68181" lon="2.00844">
        <ele>112</ele>
        <time>2012-04-08T10:01:24Z</time>
      </trkpt>
      <trkpt lat="48.68184" lon="2.00838">
        <ele>112</ele>
        <time>2012-04-08T10:01:28Z</time>
      </trkpt>
      <trkpt lat="48.68186" lon="2.00832">
        <ele>110</ele>
        <time>2012-04-08T10:01:33Z</time>
      </trkpt>
      <trkpt lat="48.6819" lon="2.00826">
        <ele>113</ele>
        <time>2012-04-08T10:01:38Z</time>
      </trkpt>
      <trkpt lat="48.68192" lon="2.00819">
        <ele>114</ele>
        <time>2012-04-08T10:01:41Z</time>
      </trkpt>
      <trkpt lat="48.6819" lon="2.00811">
        <ele>113</ele>
        <time>2012-04-08T10:01:44Z</time>
      </trkpt>
      <trkpt lat="48.68186" lon="2.00795">
        <ele>122</ele>
        <time>2012-04-08T10:01:49Z</time>
      </trkpt>
      <trkpt lat="48.68184" lon="2.00787">
        <ele>122</ele>
        <time>2012-04-08T10:01:51Z</time>
      </trkpt>
      <trkpt lat="48.68184" lon="2.00771">
        <ele>117</ele>
        <time>2012-04-08T10:01:59Z</time>
      </trkpt>
      <trkpt lat="48.68188" lon="2.00765">
        <ele>118</ele>
        <time>2012-04-08T10:02:05Z</time>
      </trkpt>
      <trkpt lat="48.6819" lon="2.00749">
        <ele>118</ele>
        <time>2012-04-08T10:02:14Z</time>
      </trkpt>
      <trkpt lat="48.68192" lon="2.00735">
        <ele>115</ele>
        <time>2012-04-08T10:02:18Z</time>
      </trkpt>
      <trkpt lat="48.68194" lon="2.00721">
        <ele>120</ele>
        <time>2012-04-08T10:02:26Z</time>
      </trkpt>
      <trkpt lat="48.68199" lon="2.00715">
        <ele>119</ele>
        <time>2012-04-08T10:02:33Z</time>
      </trkpt>
      <trkpt lat="48.68202" lon="2.00708">
        <ele>118</ele>
        <time>2012-04-08T10:02:38Z</time>
      </trkpt>
      <trkpt lat="48.68202" lon="2.00699">
        <ele>117</ele>
        <time>2012-04-08T10:02:42Z</time>
      </trkpt>
      <trkpt lat="48.68204" lon="2.0069">
        <ele>117</ele>
        <time>2012-04-08T10:02:46Z</time>
      </trkpt>
      <trkpt lat="48.68206" lon="2.00679">
        <ele>118</ele>
        <time>2012-04-08T10:02:50Z</time>
      </trkpt>
      <trkpt lat="48.68212" lon="2.00653">
        <ele>118</ele>
        <time>2012-04-08T10:03:03Z</time>
      </trkpt>
      <trkpt lat="48.68219" lon="2.00641">
        <ele>122</ele>
        <time>2012-04-08T10:03:12Z</time>
      </trkpt>
      <trkpt lat="48.68219" lon="2.00632">
        <ele>125</ele>
        <time>2012-04-08T10:03:15Z</time>
      </trkpt>
      <trkpt lat="48.68218" lon="2.00625">
        <ele>124</ele>
        <time>2012-04-08T10:03:17Z</time>
      </trkpt>
      <trkpt lat="48.6822" lon="2.00619">
        <ele>124</ele>
        <time>2012-04-08T10:03:22Z</time>
      </trkpt>
      <trkpt lat="48.68229" lon="2.00594">
        <ele>119</ele>
        <time>2012-04-08T10:03:39Z</time>
      </trkpt>
      <trkpt lat="48.68231" lon="2.00587">
        <ele>122</ele>
        <time>2012-04-08T10:03:42Z</time>
      </trkpt>
      <trkpt lat="48.6823" lon="2.00578">
        <ele>119</ele>
        <time>2012-04-08T10:03:45Z</time>
      </trkpt>
      <trkpt lat="48.68232" lon="2.00572">
        <ele>118</ele>
        <time>2012-04-08T10:03:50Z</time>
      </trkpt>
      <trkpt lat="48.68235" lon="2.00565">
        <ele>118</ele>
        <time>2012-04-08T10:03:55Z</time>
      </trkpt>
      <trkpt lat="48.68237" lon="2.00557">
        <ele>120</ele>
        <time>2012-04-08T10:03:59Z</time>
      </trkpt>
      <trkpt lat="48.6824" lon="2.00552">
        <ele>118</ele>
        <time>2012-04-08T10:04:03Z</time>
      </trkpt>
      <trkpt lat="48.68243" lon="2.00546">
        <ele>118</ele>
        <time>2012-04-08T10:04:07Z</time>
      </trkpt>
      <trkpt lat="48.68245" lon="2.00538">
        <ele>119</ele>
        <time>2012-04-08T10:04:11Z</time>
      </trkpt>
      <trkpt lat="48.68247" lon="2.00532">
        <ele>119</ele>
        <time>2012-04-08T10:04:14Z</time>
      </trkpt>
      <trkpt lat="48.68251" lon="2.00527">
        <ele>118</ele>
        <time>2012-04-08T10:04:19Z</time>
      </trkpt>
      <trkpt lat="48.68253" lon="2.0052">
        <ele>118</ele>
        <time>2012-04-08T10:04:24Z</time>
      </trkpt>
      <trkpt lat="48.68253" lon="2.00513">
        <ele>117</ele>
        <time>2012-04-08T10:04:27Z</time>
      </trkpt>
      <trkpt lat="48.68255" lon="2.00498">
        <ele>117</ele>
        <time>2012-04-08T10:04:35Z</time>
      </trkpt>
      <trkpt lat="48.6826" lon="2.00494">
        <ele>118</ele>
        <time>2012-04-08T10:04:40Z</time>
      </trkpt>
      <trkpt lat="48.68262" lon="2.00486">
        <ele>119</ele>
        <time>2012-04-08T10:04:44Z</time>
      </trkpt>
      <trkpt lat="48.68266" lon="2.00472">
        <ele>117</ele>
        <time>2012-04-08T10:04:52Z</time>
      </trkpt>
      <trkpt lat="48.68264" lon="2.00464">
        <ele>118</ele>
        <time>2012-04-08T10:04:56Z</time>
      </trkpt>
      <trkpt lat="48.68267" lon="2.00456">
        <ele>123</ele>
        <time>2012-04-08T10:05:00Z</time>
      </trkpt>
      <trkpt lat="48.68268" lon="2.0045">
        <ele>123</ele>
        <time>2012-04-08T10:05:04Z</time>
      </trkpt>
      <trkpt lat="48.68272" lon="2.00442">
        <ele>122</ele>
        <time>2012-04-08T10:05:08Z</time>
      </trkpt>
      <trkpt lat="48.68274" lon="2.00435">
        <ele>122</ele>
        <time>2012-04-08T10:05:11Z</time>
      </trkpt>
      <trkpt lat="48.68277" lon="2.0043">
        <ele>114</ele>
        <time>2012-04-08T10:05:12Z</time>
      </trkpt>
      <trkpt lat="48.68276" lon="2.0042">
        <ele>117</ele>
        <time>2012-04-08T10:05:14Z</time>
      </trkpt>
      <trkpt lat="48.68277" lon="2.00413">
        <ele>116</ele>
        <time>2012-04-08T10:05:18Z</time>
      </trkpt>
      <trkpt lat="48.68284" lon="2.00395">
        <ele>122</ele>
        <time>2012-04-08T10:05:28Z</time>
      </trkpt>
      <trkpt lat="48.68286" lon="2.00389">
        <ele>121</ele>
        <time>2012-04-08T10:05:32Z</time>
      </trkpt>
      <trkpt lat="48.68288" lon="2.00381">
        <ele>121</ele>
        <time>2012-04-08T10:05:36Z</time>
      </trkpt>
      <trkpt lat="48.68288" lon="2.00373">
        <ele>122</ele>
        <time>2012-04-08T10:05:39Z</time>
      </trkpt>
      <trkpt lat="48.68289" lon="2.00366">
        <ele>120</ele>
        <time>2012-04-08T10:05:42Z</time>
      </trkpt>
      <trkpt lat="48.68292" lon="2.00361">
        <ele>120</ele>
        <time>2012-04-08T10:05:46Z</time>
      </trkpt>
      <trkpt lat="48.68288" lon="2.00351">
        <ele>125</ele>
        <time>2012-04-08T10:05:48Z</time>
      </trkpt>
      <trkpt lat="48.68293" lon="2.0035">
        <ele>124</ele>
        <time>2012-04-08T10:05:53Z</time>
      </trkpt>
      <trkpt lat="48.68299" lon="2.00353">
        <ele>126</ele>
        <time>2012-04-08T10:05:59Z</time>
      </trkpt>
      <trkpt lat="48.68303" lon="2.00355">
        <ele>125</ele>
        <time>2012-04-08T10:06:02Z</time>
      </trkpt>
      <trkpt lat="48.68308" lon="2.00358">
        <ele>125</ele>
        <time>2012-04-08T10:06:05Z</time>
      </trkpt>
      <trkpt lat="48.68313" lon="2.00359">
        <ele>126</ele>
        <time>2012-04-08T10:06:08Z</time>
      </trkpt>
      <trkpt lat="48.68318" lon="2.0036">
        <ele>124</ele>
        <time>2012-04-08T10:06:13Z</time>
      </trkpt>
      <trkpt lat="48.68323" lon="2.00361">
        <ele>125</ele>
        <time>2012-04-08T10:06:19Z</time>
      </trkpt>
      <trkpt lat="48.68328" lon="2.00365">
        <ele>125</ele>
        <time>2012-04-08T10:06:23Z</time>
      </trkpt>
      <trkpt lat="48.68338" lon="2.00369">
        <ele>123</ele>
        <time>2012-04-08T10:06:35Z</time>
      </trkpt>
      <trkpt lat="48.68342" lon="2.00372">
        <ele>124</ele>
        <time>2012-04-08T10:06:38Z</time>
      </trkpt>
      <trkpt lat="48.68358" lon="2.00381">
        <ele>119</ele>
        <time>2012-04-08T10:06:47Z</time>
      </trkpt>
      <trkpt lat="48.68362" lon="2.00382">
        <ele>119</ele>
        <time>2012-04-08T10:06:52Z</time>
      </trkpt>
      <trkpt lat="48.68377" lon="2.0039">
        <ele>123</ele>
        <time>2012-04-08T10:07:05Z</time>
      </trkpt>
      <trkpt lat="48.68381" lon="2.00393">
        <ele>123</ele>
        <time>2012-04-08T10:07:09Z</time>
      </trkpt>
      <trkpt lat="48.68385" lon="2.00397">
        <ele>125</ele>
        <time>2012-04-08T10:07:14Z</time>
      </trkpt>
      <trkpt lat="48.6839" lon="2.00397">
        <ele>125</ele>
        <time>2012-04-08T10:07:19Z</time>
      </trkpt>
      <trkpt lat="48.68404" lon="2.00409">
        <ele>122</ele>
        <time>2012-04-08T10:07:33Z</time>
      </trkpt>
      <trkpt lat="48.68409" lon="2.00411">
        <ele>123</ele>
        <time>2012-04-08T10:07:37Z</time>
      </trkpt>
      <trkpt lat="48.68414" lon="2.00412">
        <ele>122</ele>
        <time>2012-04-08T10:07:42Z</time>
      </trkpt>
      <trkpt lat="48.68419" lon="2.00414">
        <ele>123</ele>
        <time>2012-04-08T10:07:46Z</time>
      </trkpt>
      <trkpt lat="48.68423" lon="2.00413">
        <ele>122</ele>
        <time>2012-04-08T10:07:54Z</time>
      </trkpt>
      <trkpt lat="48.68426" lon="2.00417">
        <ele>122</ele>
        <time>2012-04-08T10:08:00Z</time>
      </trkpt>
      <trkpt lat="48.68431" lon="2.00419">
        <ele>121</ele>
        <time>2012-04-08T10:08:04Z</time>
      </trkpt>
      <trkpt lat="48.6844" lon="2.00422">
        <ele>121</ele>
        <time>2012-04-08T10:08:12Z</time>
      </trkpt>
      <trkpt lat="48.6845" lon="2.00427">
        <ele>123</ele>
        <time>2012-04-08T10:08:20Z</time>
      </trkpt>
      <trkpt lat="48.68455" lon="2.0043">
        <ele>123</ele>
        <time>2012-04-08T10:08:25Z</time>
      </trkpt>
      <trkpt lat="48.68459" lon="2.00434">
        <ele>125</ele>
        <time>2012-04-08T10:08:29Z</time>
      </trkpt>
      <trkpt lat="48.68463" lon="2.0044">
        <ele>125</ele>
        <time>2012-04-08T10:08:33Z</time>
      </trkpt>
      <trkpt lat="48.68467" lon="2.00442">
        <ele>124</ele>
        <time>2012-04-08T10:08:38Z</time>
      </trkpt>
      <trkpt lat="48.68477" lon="2.00447">
        <ele>124</ele>
        <time>2012-04-08T10:08:48Z</time>
      </trkpt>
      <trkpt lat="48.68479" lon="2.00441">
        <ele>122</ele>
        <time>2012-04-08T10:08:54Z</time>
      </trkpt>
      <trkpt lat="48.6848" lon="2.00426">
        <ele>122</ele>
        <time>2012-04-08T10:09:04Z</time>
      </trkpt>
      <trkpt lat="48.68481" lon="2.00419">
        <ele>123</ele>
        <time>2012-04-08T10:09:07Z</time>
      </trkpt>
      <trkpt lat="48.68479" lon="2.00416">
        <ele>122</ele>
        <time>2012-04-08T10:09:26Z</time>
      </trkpt>
      <trkpt lat="48.68482" lon="2.00411">
        <ele>123</ele>
        <time>2012-04-08T10:10:04Z</time>
      </trkpt>
      <trkpt lat="48.68488" lon="2.00408">
        <ele>125</ele>
        <time>2012-04-08T10:10:07Z</time>
      </trkpt>
      <trkpt lat="48.6849" lon="2.00407">
        <ele>123</ele>
        <time>2012-04-08T10:10:13Z</time>
      </trkpt>
      <trkpt lat="48.68492" lon="2.00415">
        <ele>122</ele>
        <time>2012-04-08T10:10:17Z</time>
      </trkpt>
      <trkpt lat="48.68495" lon="2.00421">
        <ele>122</ele>
        <time>2012-04-08T10:10:20Z</time>
      </trkpt>
      <trkpt lat="48.68498" lon="2.00426">
        <ele>123</ele>
        <time>2012-04-08T10:10:23Z</time>
      </trkpt>
      <trkpt lat="48.68502" lon="2.00432">
        <ele>123</ele>
        <time>2012-04-08T10:10:27Z</time>
      </trkpt>
      <trkpt lat="48.68504" lon="2.00439">
        <ele>121</ele>
        <time>2012-04-08T10:10:30Z</time>
      </trkpt>
      <trkpt lat="48.68501" lon="2.00446">
        <ele>121</ele>
        <time>2012-04-08T10:10:33Z</time>
      </trkpt>
      <trkpt lat="48.68496" lon="2.00451">
        <ele>120</ele>
        <time>2012-04-08T10:10:37Z</time>
      </trkpt>
      <trkpt lat="48.68501" lon="2.00455">
        <ele>121</ele>
        <time>2012-04-08T10:10:40Z</time>
      </trkpt>
      <trkpt lat="48.6851" lon="2.00463">
        <ele>119</ele>
        <time>2012-04-08T10:10:46Z</time>
      </trkpt>
      <trkpt lat="48.68514" lon="2.00468">
        <ele>121</ele>
        <time>2012-04-08T10:10:50Z</time>
      </trkpt>
      <trkpt lat="48.68517" lon="2.00472">
        <ele>121</ele>
        <time>2012-04-08T10:10:53Z</time>
      </trkpt>
      <trkpt lat="48.68521" lon="2.00477">
        <ele>120</ele>
        <time>2012-04-08T10:10:56Z</time>
      </trkpt>
      <trkpt lat="48.68524" lon="2.00484">
        <ele>120</ele>
        <time>2012-04-08T10:11:00Z</time>
      </trkpt>
      <trkpt lat="48.68527" lon="2.0049">
        <ele>119</ele>
        <time>2012-04-08T10:11:04Z</time>
      </trkpt>
      <trkpt lat="48.68531" lon="2.00494">
        <ele>120</ele>
        <time>2012-04-08T10:11:07Z</time>
      </trkpt>
      <trkpt lat="48.68532" lon="2.00501">
        <ele>121</ele>
        <time>2012-04-08T10:11:11Z</time>
      </trkpt>
      <trkpt lat="48.68534" lon="2.00508">
        <ele>120</ele>
        <time>2012-04-08T10:11:15Z</time>
      </trkpt>
      <trkpt lat="48.68535" lon="2.00515">
        <ele>121</ele>
        <time>2012-04-08T10:11:19Z</time>
      </trkpt>
      <trkpt lat="48.68539" lon="2.00521">
        <ele>122</ele>
        <time>2012-04-08T10:11:23Z</time>
      </trkpt>
      <trkpt lat="48.68541" lon="2.00528">
        <ele>121</ele>
        <time>2012-04-08T10:11:27Z</time>
      </trkpt>
      <trkpt lat="48.68544" lon="2.00535">
        <ele>121</ele>
        <time>2012-04-08T10:11:30Z</time>
      </trkpt>
      <trkpt lat="48.68552" lon="2.00553">
        <ele>126</ele>
        <time>2012-04-08T10:11:43Z</time>
      </trkpt>
      <trkpt lat="48.68556" lon="2.00566">
        <ele>120</ele>
        <time>2012-04-08T10:11:51Z</time>
      </trkpt>
      <trkpt lat="48.6856" lon="2.00572">
        <ele>120</ele>
        <time>2012-04-08T10:11:54Z</time>
      </trkpt>
      <trkpt lat="48.68568" lon="2.0058">
        <ele>115</ele>
        <time>2012-04-08T10:12:01Z</time>
      </trkpt>
      <trkpt lat="48.6857" lon="2.00587">
        <ele>116</ele>
        <time>2012-04-08T10:12:05Z</time>
      </trkpt>
      <trkpt lat="48.68572" lon="2.00594">
        <ele>116</ele>
        <time>2012-04-08T10:12:09Z</time>
      </trkpt>
      <trkpt lat="48.68572" lon="2.00601">
        <ele>114</ele>
        <time>2012-04-08T10:12:15Z</time>
      </trkpt>
      <trkpt lat="48.68569" lon="2.00607">
        <ele>111</ele>
        <time>2012-04-08T10:12:20Z</time>
      </trkpt>
      <trkpt lat="48.68568" lon="2.00613">
        <ele>111</ele>
        <time>2012-04-08T10:12:24Z</time>
      </trkpt>
      <trkpt lat="48.68572" lon="2.00618">
        <ele>120</ele>
        <time>2012-04-08T10:12:29Z</time>
      </trkpt>
      <trkpt lat="48.68582" lon="2.0062">
        <ele>123</ele>
        <time>2012-04-08T10:12:32Z</time>
      </trkpt>
      <trkpt lat="48.68581" lon="2.00627">
        <ele>129</ele>
        <time>2012-04-08T10:12:37Z</time>
      </trkpt>
      <trkpt lat="48.68578" lon="2.00634">
        <ele>128</ele>
        <time>2012-04-08T10:12:40Z</time>
      </trkpt>
      <trkpt lat="48.68581" lon="2.0064">
        <ele>127</ele>
        <time>2012-04-08T10:12:43Z</time>
      </trkpt>
      <trkpt lat="48.68603" lon="2.00667">
        <ele>118</ele>
        <time>2012-04-08T10:13:02Z</time>
      </trkpt>
      <trkpt lat="48.68608" lon="2.00672">
        <ele>119</ele>
        <time>2012-04-08T10:13:06Z</time>
      </trkpt>
      <trkpt lat="48.68612" lon="2.00678">
        <ele>117</ele>
        <time>2012-04-08T10:13:10Z</time>
      </trkpt>
      <trkpt lat="48.68614" lon="2.00685">
        <ele>117</ele>
        <time>2012-04-08T10:13:14Z</time>
      </trkpt>
      <trkpt lat="48.68613" lon="2.00692">
        <ele>115</ele>
        <time>2012-04-08T10:13:18Z</time>
      </trkpt>
      <trkpt lat="48.68612" lon="2.00699">
        <ele>116</ele>
        <time>2012-04-08T10:13:22Z</time>
      </trkpt>
      <trkpt lat="48.68617" lon="2.00703">
        <ele>117</ele>
        <time>2012-04-08T10:13:24Z</time>
      </trkpt>
      <trkpt lat="48.68628" lon="2.00716">
        <ele>107</ele>
        <time>2012-04-08T10:13:36Z</time>
      </trkpt>
      <trkpt lat="48.68634" lon="2.00719">
        <ele>109</ele>
        <time>2012-04-08T10:13:39Z</time>
      </trkpt>
      <trkpt lat="48.68639" lon="2.00721">
        <ele>109</ele>
        <time>2012-04-08T10:13:42Z</time>
      </trkpt>
      <trkpt lat="48.68656" lon="2.00735">
        <ele>103</ele>
        <time>2012-04-08T10:14:01Z</time>
      </trkpt>
      <trkpt lat="48.68666" lon="2.00742">
        <ele>105</ele>
        <time>2012-04-08T10:14:11Z</time>
      </trkpt>
      <trkpt lat="48.68675" lon="2.00748">
        <ele>105</ele>
        <time>2012-04-08T10:14:17Z</time>
      </trkpt>
      <trkpt lat="48.68684" lon="2.00756">
        <ele>108</ele>
        <time>2012-04-08T10:14:23Z</time>
      </trkpt>
      <trkpt lat="48.68689" lon="2.00758">
        <ele>108</ele>
        <time>2012-04-08T10:14:29Z</time>
      </trkpt>
      <trkpt lat="48.68694" lon="2.0076">
        <ele>105</ele>
        <time>2012-04-08T10:14:36Z</time>
      </trkpt>
      <trkpt lat="48.68703" lon="2.00761">
        <ele>106</ele>
        <time>2012-04-08T10:14:41Z</time>
      </trkpt>
      <trkpt lat="48.68711" lon="2.00764">
        <ele>105</ele>
        <time>2012-04-08T10:14:46Z</time>
      </trkpt>
      <trkpt lat="48.68716" lon="2.00765">
        <ele>106</ele>
        <time>2012-04-08T10:14:49Z</time>
      </trkpt>
      <trkpt lat="48.68721" lon="2.00767">
        <ele>106</ele>
        <time>2012-04-08T10:14:52Z</time>
      </trkpt>
      <trkpt lat="48.68723" lon="2.00774">
        <ele>104</ele>
        <time>2012-04-08T10:14:57Z</time>
      </trkpt>
      <trkpt lat="48.68727" lon="2.00776">
        <ele>104</ele>
        <time>2012-04-08T10:15:00Z</time>
      </trkpt>
      <trkpt lat="48.6873" lon="2.00781">
        <ele>99</ele>
        <time>2012-04-08T10:15:07Z</time>
      </trkpt>
      <trkpt lat="48.68735" lon="2.00785">
        <ele>99</ele>
        <time>2012-04-08T10:15:11Z</time>
      </trkpt>
      <trkpt lat="48.68748" lon="2.00784">
        <ele>103</ele>
        <time>2012-04-08T10:15:35Z</time>
      </trkpt>
      <trkpt lat="48.68752" lon="2.00786">
        <ele>102</ele>
        <time>2012-04-08T10:16:11Z</time>
      </trkpt>
      <trkpt lat="48.68754" lon="2.00792">
        <ele>103</ele>
        <time>2012-04-08T10:16:16Z</time>
      </trkpt>
      <trkpt lat="48.68756" lon="2.00799">
        <ele>102</ele>
        <time>2012-04-08T10:16:23Z</time>
      </trkpt>
      <trkpt lat="48.68759" lon="2.00805">
        <ele>102</ele>
        <time>2012-04-08T10:16:27Z</time>
      </trkpt>
      <trkpt lat="48.68763" lon="2.00809">
        <ele>103</ele>
        <time>2012-04-08T10:16:30Z</time>
      </trkpt>
      <trkpt lat="48.68763" lon="2.00816">
        <ele>103</ele>
        <time>2012-04-08T10:16:35Z</time>
      </trkpt>
      <trkpt lat="48.68764" lon="2.00824">
        <ele>104</ele>
        <time>2012-04-08T10:16:40Z</time>
      </trkpt>
      <trkpt lat="48.68772" lon="2.00843">
        <ele>100</ele>
        <time>2012-04-08T10:16:51Z</time>
      </trkpt>
      <trkpt lat="48.68773" lon="2.0085">
        <ele>99</ele>
        <time>2012-04-08T10:16:57Z</time>
      </trkpt>
      <trkpt lat="48.68775" lon="2.00856">
        <ele>95</ele>
        <time>2012-04-08T10:17:01Z</time>
      </trkpt>
      <trkpt lat="48.68779" lon="2.00862">
        <ele>97</ele>
        <time>2012-04-08T10:17:05Z</time>
      </trkpt>
      <trkpt lat="48.68779" lon="2.00869">
        <ele>95</ele>
        <time>2012-04-08T10:17:11Z</time>
      </trkpt>
      <trkpt lat="48.68783" lon="2.00875">
        <ele>96</ele>
        <time>2012-04-08T10:17:16Z</time>
      </trkpt>
      <trkpt lat="48.68785" lon="2.00882">
        <ele>90</ele>
        <time>2012-04-08T10:17:21Z</time>
      </trkpt>
      <trkpt lat="48.68789" lon="2.00888">
        <ele>90</ele>
        <time>2012-04-08T10:17:24Z</time>
      </trkpt>
      <trkpt lat="48.68814" lon="2.00914">
        <ele>98</ele>
        <time>2012-04-08T10:17:39Z</time>
      </trkpt>
      <trkpt lat="48.68815" lon="2.00935">
        <ele>85</ele>
        <time>2012-04-08T10:17:54Z</time>
      </trkpt>
      <trkpt lat="48.68824" lon="2.00954">
        <ele>90</ele>
        <time>2012-04-08T10:18:05Z</time>
      </trkpt>
      <trkpt lat="48.68824" lon="2.0097">
        <ele>85</ele>
        <time>2012-04-08T10:18:13Z</time>
      </trkpt>
      <trkpt lat="48.68829" lon="2.00972">
        <ele>85</ele>
        <time>2012-04-08T10:18:17Z</time>
      </trkpt>
      <trkpt lat="48.68833" lon="2.00977">
        <ele>84</ele>
        <time>2012-04-08T10:18:20Z</time>
      </trkpt>
      <trkpt lat="48.68834" lon="2.00984">
        <ele>86</ele>
        <time>2012-04-08T10:18:23Z</time>
      </trkpt>
      <trkpt lat="48.68832" lon="2.0099">
        <ele>86</ele>
        <time>2012-04-08T10:18:27Z</time>
      </trkpt>
      <trkpt lat="48.68833" lon="2.00997">
        <ele>86</ele>
        <time>2012-04-08T10:18:30Z</time>
      </trkpt>
      <trkpt lat="48.68843" lon="2.01009">
        <ele>89</ele>
        <time>2012-04-08T10:18:36Z</time>
      </trkpt>
      <trkpt lat="48.68849" lon="2.0102">
        <ele>83</ele>
        <time>2012-04-08T10:18:44Z</time>
      </trkpt>
      <trkpt lat="48.68846" lon="2.01026">
        <ele>81</ele>
        <time>2012-04-08T10:18:48Z</time>
      </trkpt>
      <trkpt lat="48.68846" lon="2.01033">
        <ele>82</ele>
        <time>2012-04-08T10:18:51Z</time>
      </trkpt>
      <trkpt lat="48.68846" lon="2.01041">
        <ele>80</ele>
        <time>2012-04-08T10:18:55Z</time>
      </trkpt>
      <trkpt lat="48.68852" lon="2.01056">
        <ele>73</ele>
        <time>2012-04-08T10:19:04Z</time>
      </trkpt>
      <trkpt lat="48.68854" lon="2.01064">
        <ele>73</ele>
        <time>2012-04-08T10:19:09Z</time>
      </trkpt>
      <trkpt lat="48.68874" lon="2.01067">
        <ele>76</ele>
        <time>2012-04-08T10:19:12Z</time>
      </trkpt>
      <trkpt lat="48.68879" lon="2.01068">
        <ele>77</ele>
        <time>2012-04-08T10:19:13Z</time>
      </trkpt>
      <trkpt lat="48.68873" lon="2.01076">
        <ele>71</ele>
        <time>2012-04-08T10:19:18Z</time>
      </trkpt>
      <trkpt lat="48.68871" lon="2.01083">
        <ele>71</ele>
        <time>2012-04-08T10:19:21Z</time>
      </trkpt>
      <trkpt lat="48.68874" lon="2.01092">
        <ele>71</ele>
        <time>2012-04-08T10:19:29Z</time>
      </trkpt>
      <trkpt lat="48.68879" lon="2.01099">
        <ele>71</ele>
        <time>2012-04-08T10:19:33Z</time>
      </trkpt>
      <trkpt lat="48.68886" lon="2.0111">
        <ele>69</ele>
        <time>2012-04-08T10:19:40Z</time>
      </trkpt>
      <trkpt lat="48.68887" lon="2.01119">
        <ele>69</ele>
        <time>2012-04-08T10:19:44Z</time>
      </trkpt>
      <trkpt lat="48.68887" lon="2.01127">
        <ele>66</ele>
        <time>2012-04-08T10:19:48Z</time>
      </trkpt>
      <trkpt lat="48.68887" lon="2.01134">
        <ele>66</ele>
        <time>2012-04-08T10:19:53Z</time>
      </trkpt>
      <trkpt lat="48.68888" lon="2.01142">
        <ele>59</ele>
        <time>2012-04-08T10:19:58Z</time>
      </trkpt>
      <trkpt lat="48.6889" lon="2.01142">
        <ele>61</ele>
        <time>2012-04-08T10:20:04Z</time>
      </trkpt>
      <trkpt lat="48.68894" lon="2.01147">
        <ele>61</ele>
        <time>2012-04-08T10:20:19Z</time>
      </trkpt>
      <trkpt lat="48.68895" lon="2.01155">
        <ele>60</ele>
        <time>2012-04-08T10:20:23Z</time>
      </trkpt>
      <trkpt lat="48.68893" lon="2.01162">
        <ele>60</ele>
        <time>2012-04-08T10:20:27Z</time>
      </trkpt>
      <trkpt lat="48.68892" lon="2.01176">
        <ele>53</ele>
        <time>2012-04-08T10:20:35Z</time>
      </trkpt>
      <trkpt lat="48.68896" lon="2.01181">
        <ele>55</ele>
        <time>2012-04-08T10:20:39Z</time>
      </trkpt>
      <trkpt lat="48.68904" lon="2.0119">
        <ele>58</ele>
        <time>2012-04-08T10:20:44Z</time>
      </trkpt>
      <trkpt lat="48.68906" lon="2.01196">
        <ele>59</ele>
        <time>2012-04-08T10:20:47Z</time>
      </trkpt>
      <trkpt lat="48.68907" lon="2.01203">
        <ele>60</ele>
        <time>2012-04-08T10:20:50Z</time>
      </trkpt>
      <trkpt lat="48.68906" lon="2.0121">
        <ele>58</ele>
        <time>2012-04-08T10:20:53Z</time>
      </trkpt>
      <trkpt lat="48.68905" lon="2.01218">
        <ele>58</ele>
        <time>2012-04-08T10:20:56Z</time>
      </trkpt>
      <trkpt lat="48.68903" lon="2.01232">
        <ele>57</ele>
        <time>2012-04-08T10:21:02Z</time>
      </trkpt>
      <trkpt lat="48.68912" lon="2.01241">
        <ele>60</ele>
        <time>2012-04-08T10:21:10Z</time>
      </trkpt>
      <trkpt lat="48.6892" lon="2.01252">
        <ele>62</ele>
        <time>2012-04-08T10:21:15Z</time>
      </trkpt>
      <trkpt lat="48.68916" lon="2.01257">
        <ele>57</ele>
        <time>2012-04-08T10:21:17Z</time>
      </trkpt>
      <trkpt lat="48.68911" lon="2.0126">
        <ele>57</ele>
        <time>2012-04-08T10:21:19Z</time>
      </trkpt>
      <trkpt lat="48.68906" lon="2.01266">
        <ele>56</ele>
        <time>2012-04-08T10:21:22Z</time>
      </trkpt>
      <trkpt lat="48.6891" lon="2.01273">
        <ele>60</ele>
        <time>2012-04-08T10:21:26Z</time>
      </trkpt>
      <trkpt lat="48.68919" lon="2.01282">
        <ele>62</ele>
        <time>2012-04-08T10:21:31Z</time>
      </trkpt>
      <trkpt lat="48.68925" lon="2.01287">
        <ele>62</ele>
        <time>2012-04-08T10:21:34Z</time>
      </trkpt>
      <trkpt lat="48.68929" lon="2.0129">
        <ele>61</ele>
        <time>2012-04-08T10:21:36Z</time>
      </trkpt>
      <trkpt lat="48.68935" lon="2.01294">
        <ele>63</ele>
        <time>2012-04-08T10:21:39Z</time>
      </trkpt>
      <trkpt lat="48.68943" lon="2.01303">
        <ele>63</ele>
        <time>2012-04-08T10:21:46Z</time>
      </trkpt>
      <trkpt lat="48.68956" lon="2.0132">
        <ele>67</ele>
        <time>2012-04-08T10:21:56Z</time>
      </trkpt>
      <trkpt lat="48.68959" lon="2.01325">
        <ele>67</ele>
        <time>2012-04-08T10:22:00Z</time>
      </trkpt>
      <trkpt lat="48.68963" lon="2.01329">
        <ele>69</ele>
        <time>2012-04-08T10:22:04Z</time>
      </trkpt>
      <trkpt lat="48.68965" lon="2.01337">
        <ele>69</ele>
        <time>2012-04-08T10:22:08Z</time>
      </trkpt>
      <trkpt lat="48.68969" lon="2.01349">
        <ele>64</ele>
        <time>2012-04-08T10:22:17Z</time>
      </trkpt>
      <trkpt lat="48.68972" lon="2.01355">
        <ele>64</ele>
        <time>2012-04-08T10:22:22Z</time>
      </trkpt>
      <trkpt lat="48.68979" lon="2.01367">
        <ele>68</ele>
        <time>2012-04-08T10:22:29Z</time>
      </trkpt>
      <trkpt lat="48.68982" lon="2.01375">
        <ele>67</ele>
        <time>2012-04-08T10:22:33Z</time>
      </trkpt>
      <trkpt lat="48.68986" lon="2.01381">
        <ele>66</ele>
        <time>2012-04-08T10:22:36Z</time>
      </trkpt>
      <trkpt lat="48.6899" lon="2.01386">
        <ele>68</ele>
        <time>2012-04-08T10:22:39Z</time>
      </trkpt>
      <trkpt lat="48.68996" lon="2.01406">
        <ele>63</ele>
        <time>2012-04-08T10:22:52Z</time>
      </trkpt>
      <trkpt lat="48.69" lon="2.01412">
        <ele>67</ele>
        <time>2012-04-08T10:22:56Z</time>
      </trkpt>
      <trkpt lat="48.69008" lon="2.01429">
        <ele>56</ele>
        <time>2012-04-08T10:23:09Z</time>
      </trkpt>
      <trkpt lat="48.69009" lon="2.0144">
        <ele>55</ele>
        <time>2012-04-08T10:23:17Z</time>
      </trkpt>
      <trkpt lat="48.69012" lon="2.01446">
        <ele>54</ele>
        <time>2012-04-08T10:23:20Z</time>
      </trkpt>
      <trkpt lat="48.69015" lon="2.01451">
        <ele>54</ele>
        <time>2012-04-08T10:23:24Z</time>
      </trkpt>
      <trkpt lat="48.69018" lon="2.01457">
        <ele>58</ele>
        <time>2012-04-08T10:23:32Z</time>
      </trkpt>
      <trkpt lat="48.69017" lon="2.01463">
        <ele>57</ele>
        <time>2012-04-08T10:24:36Z</time>
      </trkpt>
      <trkpt lat="48.69013" lon="2.0146">
        <ele>56</ele>
        <time>2012-04-08T10:24:42Z</time>
      </trkpt>
      <trkpt lat="48.6901" lon="2.01463">
        <ele>60</ele>
        <time>2012-04-08T10:25:01Z</time>
      </trkpt>
      <trkpt lat="48.69013" lon="2.01468">
        <ele>63</ele>
        <time>2012-04-08T10:25:14Z</time>
      </trkpt>
      <trkpt lat="48.69017" lon="2.01467">
        <ele>56</ele>
        <time>2012-04-08T10:25:24Z</time>
      </trkpt>
      <trkpt lat="48.6901" lon="2.01461">
        <ele>60</ele>
        <time>2012-04-08T10:25:35Z</time>
      </trkpt>
      <trkpt lat="48.69014" lon="2.01462">
        <ele>60</ele>
        <time>2012-04-08T10:26:27Z</time>
      </trkpt>
      <trkpt lat="48.69014" lon="2.01467">
        <ele>68</ele>
        <time>2012-04-08T10:27:10Z</time>
      </trkpt>
      <trkpt lat="48.69018" lon="2.01469">
        <ele>58</ele>
        <time>2012-04-08T10:29:24Z</time>
      </trkpt>
      <trkpt lat="48.69022" lon="2.0147">
        <ele>63</ele>
        <time>2012-04-08T10:29:40Z</time>
      </trkpt>
      <trkpt lat="48.69022" lon="2.01479">
        <ele>65</ele>
        <time>2012-04-08T10:29:43Z</time>
      </trkpt>
      <trkpt lat="48.69026" lon="2.01483">
        <ele>66</ele>
        <time>2012-04-08T10:29:51Z</time>
      </trkpt>
      <trkpt lat="48.6903" lon="2.01486">
        <ele>64</ele>
        <time>2012-04-08T10:29:55Z</time>
      </trkpt>
      <trkpt lat="48.69035" lon="2.0149">
        <ele>64</ele>
        <time>2012-04-08T10:30:00Z</time>
      </trkpt>
      <trkpt lat="48.69038" lon="2.01496">
        <ele>65</ele>
        <time>2012-04-08T10:30:04Z</time>
      </trkpt>
      <trkpt lat="48.69046" lon="2.01506">
        <ele>62</ele>
        <time>2012-04-08T10:30:13Z</time>
      </trkpt>
      <trkpt lat="48.6905" lon="2.01511">
        <ele>63</ele>
        <time>2012-04-08T10:30:17Z</time>
      </trkpt>
      <trkpt lat="48.69057" lon="2.01521">
        <ele>63</ele>
        <time>2012-04-08T10:30:23Z</time>
      </trkpt>
      <trkpt lat="48.69066" lon="2.01529">
        <ele>65</ele>
        <time>2012-04-08T10:30:32Z</time>
      </trkpt>
      <trkpt lat="48.69069" lon="2.01534">
        <ele>63</ele>
        <time>2012-04-08T10:30:35Z</time>
      </trkpt>
      <trkpt lat="48.69068" lon="2.01541">
        <ele>61</ele>
        <time>2012-04-08T10:30:39Z</time>
      </trkpt>
      <trkpt lat="48.69064" lon="2.01546">
        <ele>59</ele>
        <time>2012-04-08T10:30:43Z</time>
      </trkpt>
      <trkpt lat="48.69054" lon="2.01555">
        <ele>59</ele>
        <time>2012-04-08T10:30:51Z</time>
      </trkpt>
      <trkpt lat="48.69051" lon="2.0156">
        <ele>60</ele>
        <time>2012-04-08T10:30:55Z</time>
      </trkpt>
      <trkpt lat="48.69045" lon="2.01565">
        <ele>60</ele>
        <time>2012-04-08T10:30:59Z</time>
      </trkpt>
      <trkpt lat="48.69021" lon="2.01592">
        <ele>68</ele>
        <time>2012-04-08T10:31:21Z</time>
      </trkpt>
      <trkpt lat="48.69012" lon="2.016">
        <ele>65</ele>
        <time>2012-04-08T10:31:29Z</time>
      </trkpt>
      <trkpt lat="48.69007" lon="2.01604">
        <ele>65</ele>
        <time>2012-04-08T10:31:33Z</time>
      </trkpt>
      <trkpt lat="48.69002" lon="2.01609">
        <ele>68</ele>
        <time>2012-04-08T10:31:36Z</time>
      </trkpt>
      <trkpt lat="48.68999" lon="2.01614">
        <ele>68</ele>
        <time>2012-04-08T10:31:39Z</time>
      </trkpt>
      <trkpt lat="48.68988" lon="2.01618">
        <ele>62</ele>
        <time>2012-04-08T10:31:47Z</time>
      </trkpt>
      <trkpt lat="48.68984" lon="2.01622">
        <ele>65</ele>
        <time>2012-04-08T10:31:52Z</time>
      </trkpt>
      <trkpt lat="48.68979" lon="2.01627">
        <ele>64</ele>
        <time>2012-04-08T10:31:56Z</time>
      </trkpt>
      <trkpt lat="48.68974" lon="2.01628">
        <ele>63</ele>
        <time>2012-04-08T10:32:00Z</time>
      </trkpt>
      <trkpt lat="48.68969" lon="2.01629">
        <ele>63</ele>
        <time>2012-04-08T10:32:05Z</time>
      </trkpt>
      <trkpt lat="48.6896" lon="2.01636">
        <ele>57</ele>
        <time>2012-04-08T10:32:14Z</time>
      </trkpt>
      <trkpt lat="48.68957" lon="2.01641">
        <ele>57</ele>
        <time>2012-04-08T10:32:18Z</time>
      </trkpt>
      <trkpt lat="48.68948" lon="2.01646">
        <ele>57</ele>
        <time>2012-04-08T10:32:24Z</time>
      </trkpt>
      <trkpt lat="48.68944" lon="2.01651">
        <ele>55</ele>
        <time>2012-04-08T10:32:27Z</time>
      </trkpt>
      <trkpt lat="48.68939" lon="2.01652">
        <ele>53</ele>
        <time>2012-04-08T10:32:34Z</time>
      </trkpt>
      <trkpt lat="48.68933" lon="2.01653">
        <ele>55</ele>
        <time>2012-04-08T10:32:41Z</time>
      </trkpt>
      <trkpt lat="48.68924" lon="2.01664">
        <ele>58</ele>
        <time>2012-04-08T10:32:50Z</time>
      </trkpt>
      <trkpt lat="48.68919" lon="2.01668">
        <ele>57</ele>
        <time>2012-04-08T10:32:55Z</time>
      </trkpt>
      <trkpt lat="48.68913" lon="2.01671">
        <ele>57</ele>
        <time>2012-04-08T10:32:59Z</time>
      </trkpt>
      <trkpt lat="48.68909" lon="2.01675">
        <ele>58</ele>
        <time>2012-04-08T10:33:03Z</time>
      </trkpt>
      <trkpt lat="48.68904" lon="2.01678">
        <ele>58</ele>
        <time>2012-04-08T10:33:08Z</time>
      </trkpt>
      <trkpt lat="48.68899" lon="2.0168">
        <ele>59</ele>
        <time>2012-04-08T10:33:11Z</time>
      </trkpt>
      <trkpt lat="48.68894" lon="2.01684">
        <ele>59</ele>
        <time>2012-04-08T10:33:14Z</time>
      </trkpt>
      <trkpt lat="48.6889" lon="2.01687">
        <ele>57</ele>
        <time>2012-04-08T10:33:17Z</time>
      </trkpt>
      <trkpt lat="48.68879" lon="2.01688">
        <ele>61</ele>
        <time>2012-04-08T10:33:25Z</time>
      </trkpt>
      <trkpt lat="48.68874" lon="2.01688">
        <ele>58</ele>
        <time>2012-04-08T10:33:29Z</time>
      </trkpt>
      <trkpt lat="48.68863" lon="2.01694">
        <ele>58</ele>
        <time>2012-04-08T10:33:35Z</time>
      </trkpt>
      <trkpt lat="48.6886" lon="2.01699">
        <ele>59</ele>
        <time>2012-04-08T10:33:40Z</time>
      </trkpt>
      <trkpt lat="48.68855" lon="2.01704">
        <ele>59</ele>
        <time>2012-04-08T10:33:45Z</time>
      </trkpt>
      <trkpt lat="48.68845" lon="2.01711">
        <ele>61</ele>
        <time>2012-04-08T10:33:53Z</time>
      </trkpt>
      <trkpt lat="48.68843" lon="2.01717">
        <ele>61</ele>
        <time>2012-04-08T10:33:56Z</time>
      </trkpt>
      <trkpt lat="48.68841" lon="2.01727">
        <ele>60</ele>
        <time>2012-04-08T10:33:59Z</time>
      </trkpt>
      <trkpt lat="48.68833" lon="2.01738">
        <ele>65</ele>
        <time>2012-04-08T10:34:10Z</time>
      </trkpt>
      <trkpt lat="48.68829" lon="2.01743">
        <ele>64</ele>
        <time>2012-04-08T10:34:14Z</time>
      </trkpt>
      <trkpt lat="48.68824" lon="2.01742">
        <ele>66</ele>
        <time>2012-04-08T10:34:18Z</time>
      </trkpt>
      <trkpt lat="48.6882" lon="2.01745">
        <ele>66</ele>
        <time>2012-04-08T10:34:24Z</time>
      </trkpt>
      <trkpt lat="48.68816" lon="2.01751">
        <ele>66</ele>
        <time>2012-04-08T10:34:29Z</time>
      </trkpt>
      <trkpt lat="48.68813" lon="2.01756">
        <ele>60</ele>
        <time>2012-04-08T10:34:36Z</time>
      </trkpt>
      <trkpt lat="48.6881" lon="2.01762">
        <ele>61</ele>
        <time>2012-04-08T10:34:41Z</time>
      </trkpt>
      <trkpt lat="48.68803" lon="2.01773">
        <ele>61</ele>
        <time>2012-04-08T10:34:47Z</time>
      </trkpt>
      <trkpt lat="48.68799" lon="2.01777">
        <ele>60</ele>
        <time>2012-04-08T10:34:52Z</time>
      </trkpt>
      <trkpt lat="48.68796" lon="2.01783">
        <ele>60</ele>
        <time>2012-04-08T10:34:54Z</time>
      </trkpt>
      <trkpt lat="48.6879" lon="2.01791">
        <ele>59</ele>
        <time>2012-04-08T10:34:57Z</time>
      </trkpt>
      <trkpt lat="48.68787" lon="2.01797">
        <ele>59</ele>
        <time>2012-04-08T10:35:00Z</time>
      </trkpt>
      <trkpt lat="48.6878" lon="2.01809">
        <ele>66</ele>
        <time>2012-04-08T10:35:08Z</time>
      </trkpt>
      <trkpt lat="48.68777" lon="2.01814">
        <ele>62</ele>
        <time>2012-04-08T10:35:13Z</time>
      </trkpt>
      <trkpt lat="48.68772" lon="2.01816">
        <ele>62</ele>
        <time>2012-04-08T10:35:17Z</time>
      </trkpt>
      <trkpt lat="48.6877" lon="2.01821">
        <ele>61</ele>
        <time>2012-04-08T10:35:21Z</time>
      </trkpt>
      <trkpt lat="48.68767" lon="2.01827">
        <ele>66</ele>
        <time>2012-04-08T10:35:25Z</time>
      </trkpt>
      <trkpt lat="48.68764" lon="2.01831">
        <ele>65</ele>
        <time>2012-04-08T10:35:29Z</time>
      </trkpt>
      <trkpt lat="48.68759" lon="2.01836">
        <ele>66</ele>
        <time>2012-04-08T10:35:32Z</time>
      </trkpt>
      <trkpt lat="48.68751" lon="2.01845">
        <ele>61</ele>
        <time>2012-04-08T10:35:37Z</time>
      </trkpt>
      <trkpt lat="48.68745" lon="2.01848">
        <ele>62</ele>
        <time>2012-04-08T10:35:41Z</time>
      </trkpt>
      <trkpt lat="48.68735" lon="2.01852">
        <ele>62</ele>
        <time>2012-04-08T10:35:52Z</time>
      </trkpt>
      <trkpt lat="48.68739" lon="2.01858">
        <ele>62</ele>
        <time>2012-04-08T10:35:57Z</time>
      </trkpt>
      <trkpt lat="48.68743" lon="2.01863">
        <ele>62</ele>
        <time>2012-04-08T10:36:00Z</time>
      </trkpt>
      <trkpt lat="48.68754" lon="2.01879">
        <ele>65</ele>
        <time>2012-04-08T10:36:10Z</time>
      </trkpt>
      <trkpt lat="48.68757" lon="2.01886">
        <ele>64</ele>
        <time>2012-04-08T10:36:14Z</time>
      </trkpt>
      <trkpt lat="48.68758" lon="2.01893">
        <ele>63</ele>
        <time>2012-04-08T10:36:17Z</time>
      </trkpt>
      <trkpt lat="48.68762" lon="2.01905">
        <ele>63</ele>
        <time>2012-04-08T10:36:25Z</time>
      </trkpt>
      <trkpt lat="48.68763" lon="2.01913">
        <ele>64</ele>
        <time>2012-04-08T10:36:30Z</time>
      </trkpt>
      <trkpt lat="48.68765" lon="2.01919">
        <ele>63</ele>
        <time>2012-04-08T10:36:34Z</time>
      </trkpt>
      <trkpt lat="48.6877" lon="2.01925">
        <ele>65</ele>
        <time>2012-04-08T10:36:38Z</time>
      </trkpt>
      <trkpt lat="48.68773" lon="2.0193">
        <ele>64</ele>
        <time>2012-04-08T10:36:42Z</time>
      </trkpt>
      <trkpt lat="48.68775" lon="2.01938">
        <ele>64</ele>
        <time>2012-04-08T10:36:48Z</time>
      </trkpt>
      <trkpt lat="48.68779" lon="2.01943">
        <ele>65</ele>
        <time>2012-04-08T10:36:51Z</time>
      </trkpt>
      <trkpt lat="48.68782" lon="2.01947">
        <ele>64</ele>
        <time>2012-04-08T10:36:55Z</time>
      </trkpt>
      <trkpt lat="48.68782" lon="2.01951">
        <ele>61</ele>
        <time>2012-04-08T10:37:15Z</time>
      </trkpt>
      <trkpt lat="48.68782" lon="2.01958">
        <ele>58</ele>
        <time>2012-04-08T10:37:44Z</time>
      </trkpt>
      <trkpt lat="48.68782" lon="2.01962">
        <ele>58</ele>
        <time>2012-04-08T10:38:17Z</time>
      </trkpt>
      <trkpt lat="48.6878" lon="2.0196">
        <ele>55</ele>
        <time>2012-04-08T10:38:45Z</time>
      </trkpt>
      <trkpt lat="48.68776" lon="2.01964">
        <ele>56</ele>
        <time>2012-04-08T10:40:54Z</time>
      </trkpt>
      <trkpt lat="48.68774" lon="2.01966">
        <ele>54</ele>
        <time>2012-04-08T10:41:27Z</time>
      </trkpt>
      <trkpt lat="48.68773" lon="2.01964">
        <ele>54</ele>
        <time>2012-04-08T10:44:51Z</time>
      </trkpt>
      <trkpt lat="48.68777" lon="2.01961">
        <ele>57</ele>
        <time>2012-04-08T10:45:38Z</time>
      </trkpt>
      <trkpt lat="48.68779" lon="2.01958">
        <ele>59</ele>
        <time>2012-04-08T10:45:44Z</time>
      </trkpt>
      <trkpt lat="48.68779" lon="2.01953">
        <ele>53</ele>
        <time>2012-04-08T10:47:04Z</time>
      </trkpt>
      <trkpt lat="48.6878" lon="2.01958">
        <ele>51</ele>
        <time>2012-04-08T10:47:39Z</time>
      </trkpt>
      <trkpt lat="48.68776" lon="2.01962">
        <ele>46</ele>
        <time>2012-04-08T10:47:53Z</time>
      </trkpt>
      <trkpt lat="48.6877" lon="2.01964">
        <ele>47</ele>
        <time>2012-04-08T10:49:03Z</time>
      </trkpt>
      <trkpt lat="48.68771" lon="2.01966">
        <ele>42</ele>
        <time>2012-04-08T10:53:57Z</time>
      </trkpt>
      <trkpt lat="48.68775" lon="2.01962">
        <ele>43</ele>
        <time>2012-04-08T10:54:02Z</time>
      </trkpt>
      <trkpt lat="48.68778" lon="2.0196">
        <ele>51</ele>
        <time>2012-04-08T10:56:53Z</time>
      </trkpt>
      <trkpt lat="48.68778" lon="2.01961">
        <ele>57</ele>
        <time>2012-04-08T10:57:16Z</time>
      </trkpt>
      <trkpt lat="48.68774" lon="2.01959">
        <ele>57</ele>
        <time>2012-04-08T10:57:25Z</time>
      </trkpt>
      <trkpt lat="48.68776" lon="2.01958">
        <ele>57</ele>
        <time>2012-04-08T10:57:46Z</time>
      </trkpt>
      <trkpt lat="48.68781" lon="2.01955">
        <ele>60</ele>
        <time>2012-04-08T10:57:50Z</time>
      </trkpt>
      <trkpt lat="48.68785" lon="2.01955">
        <ele>65</ele>
        <time>2012-04-08T10:57:58Z</time>
      </trkpt>
      <trkpt lat="48.68788" lon="2.0195">
        <ele>65</ele>
        <time>2012-04-08T10:58:02Z</time>
      </trkpt>
      <trkpt lat="48.68786" lon="2.01952">
        <ele>64</ele>
        <time>2012-04-08T10:58:14Z</time>
      </trkpt>
      <trkpt lat="48.68786" lon="2.01959">
        <ele>63</ele>
        <time>2012-04-08T10:58:20Z</time>
      </trkpt>
      <trkpt lat="48.68783" lon="2.01957">
        <ele>63</ele>
        <time>2012-04-08T10:59:19Z</time>
      </trkpt>
      <trkpt lat="48.68761" lon="2.01965">
        <ele>34</ele>
        <time>2012-04-08T11:01:01Z</time>
      </trkpt>
      <trkpt lat="48.68769" lon="2.01964">
        <ele>54</ele>
        <time>2012-04-08T11:01:03Z</time>
      </trkpt>
      <trkpt lat="48.68775" lon="2.01962">
        <ele>53</ele>
        <time>2012-04-08T11:01:16Z</time>
      </trkpt>
      <trkpt lat="48.68773" lon="2.01962">
        <ele>51</ele>
        <time>2012-04-08T11:02:14Z</time>
      </trkpt>
      <trkpt lat="48.68773" lon="2.01963">
        <ele>55</ele>
        <time>2012-04-08T11:03:45Z</time>
      </trkpt>
      <trkpt lat="48.68778" lon="2.01967">
        <ele>56</ele>
        <time>2012-04-08T11:05:56Z</time>
      </trkpt>
      <trkpt lat="48.68783" lon="2.01964">
        <ele>57</ele>
        <time>2012-04-08T11:05:58Z</time>
      </trkpt>
      <trkpt lat="48.68789" lon="2.01961">
        <ele>52</ele>
        <time>2012-04-08T11:06:17Z</time>
      </trkpt>
      <trkpt lat="48.68784" lon="2.01955">
        <ele>53</ele>
        <time>2012-04-08T11:06:21Z</time>
      </trkpt>
      <trkpt lat="48.6878" lon="2.01955">
        <ele>53</ele>
        <time>2012-04-08T11:06:24Z</time>
      </trkpt>
      <trkpt lat="48.68779" lon="2.01959">
        <ele>47</ele>
        <time>2012-04-08T11:06:48Z</time>
      </trkpt>
      <trkpt lat="48.68775" lon="2.01959">
        <ele>46</ele>
        <time>2012-04-08T11:07:16Z</time>
      </trkpt>
      <trkpt lat="48.68785" lon="2.01945">
        <ele>45</ele>
        <time>2012-04-08T11:07:19Z</time>
      </trkpt>
      <trkpt lat="48.68781" lon="2.01945">
        <ele>67</ele>
        <time>2012-04-08T11:08:35Z</time>
      </trkpt>
      <trkpt lat="48.68779" lon="2.01953">
        <ele>62</ele>
        <time>2012-04-08T11:08:50Z</time>
      </trkpt>
      <trkpt lat="48.68781" lon="2.01951">
        <ele>55</ele>
        <time>2012-04-08T11:10:00Z</time>
      </trkpt>
      <trkpt lat="48.68788" lon="2.01947">
        <ele>56</ele>
        <time>2012-04-08T11:10:10Z</time>
      </trkpt>
      <trkpt lat="48.68793" lon="2.0195">
        <ele>56</ele>
        <time>2012-04-08T11:10:14Z</time>
      </trkpt>
      <trkpt lat="48.68796" lon="2.01956">
        <ele>56</ele>
        <time>2012-04-08T11:10:19Z</time>
      </trkpt>
      <trkpt lat="48.68798" lon="2.01962">
        <ele>51</ele>
        <time>2012-04-08T11:10:23Z</time>
      </trkpt>
      <trkpt lat="48.68798" lon="2.01969">
        <ele>44</ele>
        <time>2012-04-08T11:10:28Z</time>
      </trkpt>
      <trkpt lat="48.68801" lon="2.01974">
        <ele>43</ele>
        <time>2012-04-08T11:10:32Z</time>
      </trkpt>
      <trkpt lat="48.68801" lon="2.0198">
        <ele>41</ele>
        <time>2012-04-08T11:10:36Z</time>
      </trkpt>
      <trkpt lat="48.688" lon="2.01987">
        <ele>42</ele>
        <time>2012-04-08T11:10:42Z</time>
      </trkpt>
      <trkpt lat="48.688" lon="2.01996">
        <ele>42</ele>
        <time>2012-04-08T11:10:51Z</time>
      </trkpt>
      <trkpt lat="48.68804" lon="2.01999">
        <ele>52</ele>
        <time>2012-04-08T11:10:54Z</time>
      </trkpt>
      <trkpt lat="48.68809" lon="2.02002">
        <ele>49</ele>
        <time>2012-04-08T11:10:58Z</time>
      </trkpt>
      <trkpt lat="48.68811" lon="2.02009">
        <ele>48</ele>
        <time>2012-04-08T11:11:03Z</time>
      </trkpt>
      <trkpt lat="48.68811" lon="2.02016">
        <ele>48</ele>
        <time>2012-04-08T11:11:07Z</time>
      </trkpt>
      <trkpt lat="48.68816" lon="2.02029">
        <ele>52</ele>
        <time>2012-04-08T11:11:16Z</time>
      </trkpt>
      <trkpt lat="48.68819" lon="2.02035">
        <ele>52</ele>
        <time>2012-04-08T11:11:19Z</time>
      </trkpt>
      <trkpt lat="48.68821" lon="2.0205">
        <ele>57</ele>
        <time>2012-04-08T11:11:27Z</time>
      </trkpt>
      <trkpt lat="48.68828" lon="2.0206">
        <ele>59</ele>
        <time>2012-04-08T11:11:36Z</time>
      </trkpt>
      <trkpt lat="48.68833" lon="2.02064">
        <ele>60</ele>
        <time>2012-04-08T11:11:41Z</time>
      </trkpt>
      <trkpt lat="48.68842" lon="2.02062">
        <ele>60</ele>
        <time>2012-04-08T11:11:49Z</time>
      </trkpt>
      <trkpt lat="48.68851" lon="2.02055">
        <ele>60</ele>
        <time>2012-04-08T11:11:56Z</time>
      </trkpt>
      <trkpt lat="48.6886" lon="2.02046">
        <ele>65</ele>
        <time>2012-04-08T11:12:06Z</time>
      </trkpt>
      <trkpt lat="48.68865" lon="2.02044">
        <ele>62</ele>
        <time>2012-04-08T11:12:10Z</time>
      </trkpt>
      <trkpt lat="48.6887" lon="2.02042">
        <ele>62</ele>
        <time>2012-04-08T11:12:14Z</time>
      </trkpt>
      <trkpt lat="48.68884" lon="2.02039">
        <ele>69</ele>
        <time>2012-04-08T11:12:25Z</time>
      </trkpt>
      <trkpt lat="48.68894" lon="2.02037">
        <ele>69</ele>
        <time>2012-04-08T11:12:33Z</time>
      </trkpt>
      <trkpt lat="48.68903" lon="2.02041">
        <ele>71</ele>
        <time>2012-04-08T11:12:41Z</time>
      </trkpt>
      <trkpt lat="48.68912" lon="2.02045">
        <ele>71</ele>
        <time>2012-04-08T11:12:51Z</time>
      </trkpt>
      <trkpt lat="48.68922" lon="2.02048">
        <ele>69</ele>
        <time>2012-04-08T11:13:00Z</time>
      </trkpt>
      <trkpt lat="48.68925" lon="2.02053">
        <ele>71</ele>
        <time>2012-04-08T11:13:05Z</time>
      </trkpt>
      <trkpt lat="48.68931" lon="2.02054">
        <ele>73</ele>
        <time>2012-04-08T11:13:12Z</time>
      </trkpt>
      <trkpt lat="48.68936" lon="2.02056">
        <ele>71</ele>
        <time>2012-04-08T11:13:16Z</time>
      </trkpt>
      <trkpt lat="48.68941" lon="2.02056">
        <ele>73</ele>
        <time>2012-04-08T11:13:20Z</time>
      </trkpt>
      <trkpt lat="48.68949" lon="2.02062">
        <ele>75</ele>
        <time>2012-04-08T11:13:26Z</time>
      </trkpt>
      <trkpt lat="48.68955" lon="2.02063">
        <ele>72</ele>
        <time>2012-04-08T11:13:30Z</time>
      </trkpt>
      <trkpt lat="48.68959" lon="2.0206">
        <ele>71</ele>
        <time>2012-04-08T11:13:34Z</time>
      </trkpt>
      <trkpt lat="48.68964" lon="2.02063">
        <ele>70</ele>
        <time>2012-04-08T11:13:39Z</time>
      </trkpt>
      <trkpt lat="48.68969" lon="2.02066">
        <ele>71</ele>
        <time>2012-04-08T11:13:44Z</time>
      </trkpt>
      <trkpt lat="48.68978" lon="2.02073">
        <ele>71</ele>
        <time>2012-04-08T11:13:53Z</time>
      </trkpt>
      <trkpt lat="48.68982" lon="2.02078">
        <ele>70</ele>
        <time>2012-04-08T11:13:59Z</time>
      </trkpt>
      <trkpt lat="48.68986" lon="2.02083">
        <ele>70</ele>
        <time>2012-04-08T11:14:05Z</time>
      </trkpt>
      <trkpt lat="48.68996" lon="2.02089">
        <ele>75</ele>
        <time>2012-04-08T11:14:16Z</time>
      </trkpt>
      <trkpt lat="48.69" lon="2.02087">
        <ele>74</ele>
        <time>2012-04-08T11:14:19Z</time>
      </trkpt>
      <trkpt lat="48.69005" lon="2.02085">
        <ele>76</ele>
        <time>2012-04-08T11:14:23Z</time>
      </trkpt>
      <trkpt lat="48.6901" lon="2.02087">
        <ele>78</ele>
        <time>2012-04-08T11:14:29Z</time>
      </trkpt>
      <trkpt lat="48.69014" lon="2.02092">
        <ele>75</ele>
        <time>2012-04-08T11:14:33Z</time>
      </trkpt>
      <trkpt lat="48.69018" lon="2.02096">
        <ele>76</ele>
        <time>2012-04-08T11:14:41Z</time>
      </trkpt>
      <trkpt lat="48.69023" lon="2.02096">
        <ele>73</ele>
        <time>2012-04-08T11:14:46Z</time>
      </trkpt>
      <trkpt lat="48.69027" lon="2.021">
        <ele>73</ele>
        <time>2012-04-08T11:14:52Z</time>
      </trkpt>
      <trkpt lat="48.69032" lon="2.02102">
        <ele>75</ele>
        <time>2012-04-08T11:14:56Z</time>
      </trkpt>
      <trkpt lat="48.69035" lon="2.02107">
        <ele>74</ele>
        <time>2012-04-08T11:15:02Z</time>
      </trkpt>
      <trkpt lat="48.69041" lon="2.02117">
        <ele>74</ele>
        <time>2012-04-08T11:15:12Z</time>
      </trkpt>
      <trkpt lat="48.69054" lon="2.02123">
        <ele>77</ele>
        <time>2012-04-08T11:15:20Z</time>
      </trkpt>
      <trkpt lat="48.6906" lon="2.02125">
        <ele>77</ele>
        <time>2012-04-08T11:15:24Z</time>
      </trkpt>
      <trkpt lat="48.69064" lon="2.02126">
        <ele>76</ele>
        <time>2012-04-08T11:15:28Z</time>
      </trkpt>
      <trkpt lat="48.69069" lon="2.02129">
        <ele>77</ele>
        <time>2012-04-08T11:15:33Z</time>
      </trkpt>
      <trkpt lat="48.69087" lon="2.02146">
        <ele>77</ele>
        <time>2012-04-08T11:15:58Z</time>
      </trkpt>
      <trkpt lat="48.6909" lon="2.02152">
        <ele>78</ele>
        <time>2012-04-08T11:16:02Z</time>
      </trkpt>
      <trkpt lat="48.69095" lon="2.02164">
        <ele>78</ele>
        <time>2012-04-08T11:16:13Z</time>
      </trkpt>
      <trkpt lat="48.69097" lon="2.02171">
        <ele>79</ele>
        <time>2012-04-08T11:16:17Z</time>
      </trkpt>
      <trkpt lat="48.69101" lon="2.02176">
        <ele>79</ele>
        <time>2012-04-08T11:16:22Z</time>
      </trkpt>
      <trkpt lat="48.69106" lon="2.02179">
        <ele>80</ele>
        <time>2012-04-08T11:16:26Z</time>
      </trkpt>
      <trkpt lat="48.69111" lon="2.02181">
        <ele>80</ele>
        <time>2012-04-08T11:16:29Z</time>
      </trkpt>
      <trkpt lat="48.6912" lon="2.02187">
        <ele>83</ele>
        <time>2012-04-08T11:16:37Z</time>
      </trkpt>
      <trkpt lat="48.69125" lon="2.02188">
        <ele>82</ele>
        <time>2012-04-08T11:16:43Z</time>
      </trkpt>
      <trkpt lat="48.6913" lon="2.02191">
        <ele>83</ele>
        <time>2012-04-08T11:16:52Z</time>
      </trkpt>
      <trkpt lat="48.69136" lon="2.02195">
        <ele>82</ele>
        <time>2012-04-08T11:16:56Z</time>
      </trkpt>
      <trkpt lat="48.69145" lon="2.02209">
        <ele>82</ele>
        <time>2012-04-08T11:17:09Z</time>
      </trkpt>
      <trkpt lat="48.69155" lon="2.02215">
        <ele>85</ele>
        <time>2012-04-08T11:17:17Z</time>
      </trkpt>
      <trkpt lat="48.69164" lon="2.02233">
        <ele>82</ele>
        <time>2012-04-08T11:17:30Z</time>
      </trkpt>
      <trkpt lat="48.69167" lon="2.0224">
        <ele>83</ele>
        <time>2012-04-08T11:17:35Z</time>
      </trkpt>
      <trkpt lat="48.69171" lon="2.02246">
        <ele>82</ele>
        <time>2012-04-08T11:17:39Z</time>
      </trkpt>
      <trkpt lat="48.69176" lon="2.02244">
        <ele>83</ele>
        <time>2012-04-08T11:17:47Z</time>
      </trkpt>
      <trkpt lat="48.69181" lon="2.02243">
        <ele>84</ele>
        <time>2012-04-08T11:17:50Z</time>
      </trkpt>
      <trkpt lat="48.69186" lon="2.02244">
        <ele>84</ele>
        <time>2012-04-08T11:17:54Z</time>
      </trkpt>
      <trkpt lat="48.6919" lon="2.02249">
        <ele>86</ele>
        <time>2012-04-08T11:17:59Z</time>
      </trkpt>
      <trkpt lat="48.69193" lon="2.02254">
        <ele>86</ele>
        <time>2012-04-08T11:18:02Z</time>
      </trkpt>
      <trkpt lat="48.69197" lon="2.02259">
        <ele>89</ele>
        <time>2012-04-08T11:18:06Z</time>
      </trkpt>
      <trkpt lat="48.69207" lon="2.02262">
        <ele>87</ele>
        <time>2012-04-08T11:18:14Z</time>
      </trkpt>
      <trkpt lat="48.69216" lon="2.02268">
        <ele>87</ele>
        <time>2012-04-08T11:18:22Z</time>
      </trkpt>
      <trkpt lat="48.69221" lon="2.02272">
        <ele>88</ele>
        <time>2012-04-08T11:18:28Z</time>
      </trkpt>
      <trkpt lat="48.69224" lon="2.02277">
        <ele>89</ele>
        <time>2012-04-08T11:18:33Z</time>
      </trkpt>
      <trkpt lat="48.69228" lon="2.0228">
        <ele>91</ele>
        <time>2012-04-08T11:18:37Z</time>
      </trkpt>
      <trkpt lat="48.69231" lon="2.02285">
        <ele>90</ele>
        <time>2012-04-08T11:18:41Z</time>
      </trkpt>
      <trkpt lat="48.69233" lon="2.02291">
        <ele>89</ele>
        <time>2012-04-08T11:18:45Z</time>
      </trkpt>
      <trkpt lat="48.69236" lon="2.02296">
        <ele>89</ele>
        <time>2012-04-08T11:18:51Z</time>
      </trkpt>
      <trkpt lat="48.69249" lon="2.02308">
        <ele>89</ele>
        <time>2012-04-08T11:19:05Z</time>
      </trkpt>
      <trkpt lat="48.69253" lon="2.02313">
        <ele>90</ele>
        <time>2012-04-08T11:19:09Z</time>
      </trkpt>
      <trkpt lat="48.69258" lon="2.02315">
        <ele>90</ele>
        <time>2012-04-08T11:19:13Z</time>
      </trkpt>
      <trkpt lat="48.69262" lon="2.02317">
        <ele>92</ele>
        <time>2012-04-08T11:19:16Z</time>
      </trkpt>
      <trkpt lat="48.69266" lon="2.0232">
        <ele>92</ele>
        <time>2012-04-08T11:19:19Z</time>
      </trkpt>
      <trkpt lat="48.69271" lon="2.02323">
        <ele>91</ele>
        <time>2012-04-08T11:19:22Z</time>
      </trkpt>
      <trkpt lat="48.69276" lon="2.02326">
        <ele>91</ele>
        <time>2012-04-08T11:19:26Z</time>
      </trkpt>
      <trkpt lat="48.6928" lon="2.02329">
        <ele>89</ele>
        <time>2012-04-08T11:19:32Z</time>
      </trkpt>
      <trkpt lat="48.69282" lon="2.02336">
        <ele>90</ele>
        <time>2012-04-08T11:19:38Z</time>
      </trkpt>
      <trkpt lat="48.69283" lon="2.02344">
        <ele>91</ele>
        <time>2012-04-08T11:19:43Z</time>
      </trkpt>
      <trkpt lat="48.69289" lon="2.02348">
        <ele>92</ele>
        <time>2012-04-08T11:19:46Z</time>
      </trkpt>
      <trkpt lat="48.69303" lon="2.02355">
        <ele>92</ele>
        <time>2012-04-08T11:19:58Z</time>
      </trkpt>
      <trkpt lat="48.69307" lon="2.0236">
        <ele>91</ele>
        <time>2012-04-08T11:20:03Z</time>
      </trkpt>
      <trkpt lat="48.69312" lon="2.02365">
        <ele>91</ele>
        <time>2012-04-08T11:20:08Z</time>
      </trkpt>
      <trkpt lat="48.69316" lon="2.02367">
        <ele>90</ele>
        <time>2012-04-08T11:20:11Z</time>
      </trkpt>
      <trkpt lat="48.69319" lon="2.02374">
        <ele>89</ele>
        <time>2012-04-08T11:20:18Z</time>
      </trkpt>
      <trkpt lat="48.69322" lon="2.02379">
        <ele>89</ele>
        <time>2012-04-08T11:20:21Z</time>
      </trkpt>
      <trkpt lat="48.69323" lon="2.02385">
        <ele>88</ele>
        <time>2012-04-08T11:20:25Z</time>
      </trkpt>
      <trkpt lat="48.69329" lon="2.02407">
        <ele>78</ele>
        <time>2012-04-08T11:20:36Z</time>
      </trkpt>
      <trkpt lat="48.6933" lon="2.02414">
        <ele>78</ele>
        <time>2012-04-08T11:20:42Z</time>
      </trkpt>
      <trkpt lat="48.6933" lon="2.02423">
        <ele>74</ele>
        <time>2012-04-08T11:20:47Z</time>
      </trkpt>
      <trkpt lat="48.69343" lon="2.02443">
        <ele>70</ele>
        <time>2012-04-08T11:21:01Z</time>
      </trkpt>
      <trkpt lat="48.69351" lon="2.02451">
        <ele>70</ele>
        <time>2012-04-08T11:21:07Z</time>
      </trkpt>
      <trkpt lat="48.69354" lon="2.02458">
        <ele>71</ele>
        <time>2012-04-08T11:21:11Z</time>
      </trkpt>
      <trkpt lat="48.69357" lon="2.02464">
        <ele>70</ele>
        <time>2012-04-08T11:21:15Z</time>
      </trkpt>
      <trkpt lat="48.69359" lon="2.02471">
        <ele>70</ele>
        <time>2012-04-08T11:21:19Z</time>
      </trkpt>
      <trkpt lat="48.69357" lon="2.02478">
        <ele>70</ele>
        <time>2012-04-08T11:21:24Z</time>
      </trkpt>
      <trkpt lat="48.69359" lon="2.02485">
        <ele>68</ele>
        <time>2012-04-08T11:21:30Z</time>
      </trkpt>
      <trkpt lat="48.69363" lon="2.02491">
        <ele>69</ele>
        <time>2012-04-08T11:21:35Z</time>
      </trkpt>
      <trkpt lat="48.69368" lon="2.02503">
        <ele>69</ele>
        <time>2012-04-08T11:21:45Z</time>
      </trkpt>
      <trkpt lat="48.69372" lon="2.02523">
        <ele>65</ele>
        <time>2012-04-08T11:22:02Z</time>
      </trkpt>
      <trkpt lat="48.69391" lon="2.02556">
        <ele>56</ele>
        <time>2012-04-08T11:22:23Z</time>
      </trkpt>
      <trkpt lat="48.694" lon="2.02564">
        <ele>56</ele>
        <time>2012-04-08T11:22:29Z</time>
      </trkpt>
      <trkpt lat="48.69405" lon="2.02565">
        <ele>56</ele>
        <time>2012-04-08T11:22:33Z</time>
      </trkpt>
      <trkpt lat="48.6941" lon="2.02563">
        <ele>56</ele>
        <time>2012-04-08T11:22:36Z</time>
      </trkpt>
      <trkpt lat="48.69418" lon="2.02552">
        <ele>53</ele>
        <time>2012-04-08T11:22:44Z</time>
      </trkpt>
      <trkpt lat="48.69426" lon="2.02547">
        <ele>56</ele>
        <time>2012-04-08T11:22:50Z</time>
      </trkpt>
      <trkpt lat="48.69435" lon="2.02541">
        <ele>56</ele>
        <time>2012-04-08T11:22:58Z</time>
      </trkpt>
      <trkpt lat="48.69439" lon="2.02537">
        <ele>55</ele>
        <time>2012-04-08T11:23:03Z</time>
      </trkpt>
      <trkpt lat="48.69443" lon="2.02533">
        <ele>55</ele>
        <time>2012-04-08T11:23:08Z</time>
      </trkpt>
      <trkpt lat="48.69446" lon="2.02526">
        <ele>56</ele>
        <time>2012-04-08T11:23:13Z</time>
      </trkpt>
      <trkpt lat="48.69455" lon="2.02518">
        <ele>58</ele>
        <time>2012-04-08T11:23:19Z</time>
      </trkpt>
      <trkpt lat="48.69458" lon="2.02512">
        <ele>57</ele>
        <time>2012-04-08T11:23:22Z</time>
      </trkpt>
      <trkpt lat="48.69462" lon="2.0251">
        <ele>55</ele>
        <time>2012-04-08T11:23:26Z</time>
      </trkpt>
      <trkpt lat="48.69467" lon="2.02506">
        <ele>55</ele>
        <time>2012-04-08T11:23:31Z</time>
      </trkpt>
      <trkpt lat="48.69471" lon="2.02501">
        <ele>57</ele>
        <time>2012-04-08T11:23:35Z</time>
      </trkpt>
      <trkpt lat="48.69476" lon="2.02489">
        <ele>57</ele>
        <time>2012-04-08T11:23:43Z</time>
      </trkpt>
      <trkpt lat="48.69478" lon="2.02483">
        <ele>55</ele>
        <time>2012-04-08T11:23:48Z</time>
      </trkpt>
      <trkpt lat="48.69485" lon="2.02463">
        <ele>55</ele>
        <time>2012-04-08T11:24:02Z</time>
      </trkpt>
      <trkpt lat="48.69488" lon="2.0245">
        <ele>53</ele>
        <time>2012-04-08T11:24:10Z</time>
      </trkpt>
      <trkpt lat="48.6949" lon="2.02442">
        <ele>53</ele>
        <time>2012-04-08T11:24:14Z</time>
      </trkpt>
      <trkpt lat="48.69492" lon="2.02436">
        <ele>55</ele>
        <time>2012-04-08T11:24:18Z</time>
      </trkpt>
      <trkpt lat="48.69494" lon="2.0243">
        <ele>54</ele>
        <time>2012-04-08T11:24:22Z</time>
      </trkpt>
      <trkpt lat="48.69497" lon="2.02424">
        <ele>54</ele>
        <time>2012-04-08T11:24:25Z</time>
      </trkpt>
      <trkpt lat="48.69509" lon="2.024">
        <ele>60</ele>
        <time>2012-04-08T11:24:38Z</time>
      </trkpt>
      <trkpt lat="48.69512" lon="2.02386">
        <ele>60</ele>
        <time>2012-04-08T11:24:45Z</time>
      </trkpt>
      <trkpt lat="48.69514" lon="2.02379">
        <ele>59</ele>
        <time>2012-04-08T11:24:50Z</time>
      </trkpt>
      <trkpt lat="48.69521" lon="2.02368">
        <ele>59</ele>
        <time>2012-04-08T11:25:01Z</time>
      </trkpt>
      <trkpt lat="48.69525" lon="2.02366">
        <ele>60</ele>
        <time>2012-04-08T11:25:05Z</time>
      </trkpt>
      <trkpt lat="48.69528" lon="2.02361">
        <ele>61</ele>
        <time>2012-04-08T11:25:09Z</time>
      </trkpt>
      <trkpt lat="48.69531" lon="2.02354">
        <ele>60</ele>
        <time>2012-04-08T11:25:13Z</time>
      </trkpt>
      <trkpt lat="48.69538" lon="2.02344">
        <ele>62</ele>
        <time>2012-04-08T11:25:21Z</time>
      </trkpt>
      <trkpt lat="48.69541" lon="2.02338">
        <ele>61</ele>
        <time>2012-04-08T11:25:25Z</time>
      </trkpt>
      <trkpt lat="48.69543" lon="2.02332">
        <ele>61</ele>
        <time>2012-04-08T11:25:29Z</time>
      </trkpt>
      <trkpt lat="48.69546" lon="2.02326">
        <ele>62</ele>
        <time>2012-04-08T11:25:34Z</time>
      </trkpt>
      <trkpt lat="48.6955" lon="2.02321">
        <ele>60</ele>
        <time>2012-04-08T11:25:38Z</time>
      </trkpt>
      <trkpt lat="48.69552" lon="2.02315">
        <ele>60</ele>
        <time>2012-04-08T11:25:41Z</time>
      </trkpt>
      <trkpt lat="48.69554" lon="2.02308">
        <ele>61</ele>
        <time>2012-04-08T11:25:45Z</time>
      </trkpt>
      <trkpt lat="48.69559" lon="2.02294">
        <ele>61</ele>
        <time>2012-04-08T11:25:52Z</time>
      </trkpt>
      <trkpt lat="48.69562" lon="2.02289">
        <ele>62</ele>
        <time>2012-04-08T11:25:55Z</time>
      </trkpt>
      <trkpt lat="48.69566" lon="2.02276">
        <ele>60</ele>
        <time>2012-04-08T11:26:01Z</time>
      </trkpt>
      <trkpt lat="48.69569" lon="2.02254">
        <ele>60</ele>
        <time>2012-04-08T11:26:14Z</time>
      </trkpt>
      <trkpt lat="48.69571" lon="2.02247">
        <ele>61</ele>
        <time>2012-04-08T11:26:18Z</time>
      </trkpt>
      <trkpt lat="48.69576" lon="2.02234">
        <ele>61</ele>
        <time>2012-04-08T11:26:26Z</time>
      </trkpt>
      <trkpt lat="48.69581" lon="2.02221">
        <ele>58</ele>
        <time>2012-04-08T11:26:35Z</time>
      </trkpt>
      <trkpt lat="48.69583" lon="2.02215">
        <ele>59</ele>
        <time>2012-04-08T11:26:38Z</time>
      </trkpt>
      <trkpt lat="48.69583" lon="2.02208">
        <ele>59</ele>
        <time>2012-04-08T11:26:41Z</time>
      </trkpt>
      <trkpt lat="48.69583" lon="2.02204">
        <ele>35</ele>
        <time>2012-04-08T11:27:07Z</time>
      </trkpt>
      <trkpt lat="48.69586" lon="2.02197">
        <ele>34</ele>
        <time>2012-04-08T11:27:13Z</time>
      </trkpt>
      <trkpt lat="48.69588" lon="2.02191">
        <ele>35</ele>
        <time>2012-04-08T11:27:18Z</time>
      </trkpt>
      <trkpt lat="48.6959" lon="2.02183">
        <ele>33</ele>
        <time>2012-04-08T11:27:22Z</time>
      </trkpt>
      <trkpt lat="48.69588" lon="2.02169">
        <ele>36</ele>
        <time>2012-04-08T11:27:31Z</time>
      </trkpt>
      <trkpt lat="48.6959" lon="2.02176">
        <ele>41</ele>
        <time>2012-04-08T11:27:45Z</time>
      </trkpt>
      <trkpt lat="48.69594" lon="2.02173">
        <ele>41</ele>
        <time>2012-04-08T11:27:50Z</time>
      </trkpt>
      <trkpt lat="48.69598" lon="2.02168">
        <ele>40</ele>
        <time>2012-04-08T11:27:56Z</time>
      </trkpt>
      <trkpt lat="48.69598" lon="2.02163">
        <ele>38</ele>
        <time>2012-04-08T11:28:08Z</time>
      </trkpt>
      <trkpt lat="48.69606" lon="2.02127">
        <ele>38</ele>
        <time>2012-04-08T11:28:26Z</time>
      </trkpt>
      <trkpt lat="48.69606" lon="2.0212">
        <ele>37</ele>
        <time>2012-04-08T11:28:29Z</time>
      </trkpt>
      <trkpt lat="48.69609" lon="2.02113">
        <ele>38</ele>
        <time>2012-04-08T11:28:33Z</time>
      </trkpt>
      <trkpt lat="48.69613" lon="2.0211">
        <ele>38</ele>
        <time>2012-04-08T11:28:37Z</time>
      </trkpt>
      <trkpt lat="48.69618" lon="2.02108">
        <ele>40</ele>
        <time>2012-04-08T11:28:42Z</time>
      </trkpt>
      <trkpt lat="48.6962" lon="2.02101">
        <ele>39</ele>
        <time>2012-04-08T11:28:47Z</time>
      </trkpt>
      <trkpt lat="48.69625" lon="2.02088">
        <ele>41</ele>
        <time>2012-04-08T11:28:56Z</time>
      </trkpt>
      <trkpt lat="48.6963" lon="2.02086">
        <ele>41</ele>
        <time>2012-04-08T11:29:00Z</time>
      </trkpt>
      <trkpt lat="48.69635" lon="2.02086">
        <ele>41</ele>
        <time>2012-04-08T11:29:04Z</time>
      </trkpt>
      <trkpt lat="48.69639" lon="2.02082">
        <ele>42</ele>
        <time>2012-04-08T11:29:09Z</time>
      </trkpt>
      <trkpt lat="48.69646" lon="2.02073">
        <ele>42</ele>
        <time>2012-04-08T11:29:22Z</time>
      </trkpt>
      <trkpt lat="48.69649" lon="2.02068">
        <ele>44</ele>
        <time>2012-04-08T11:29:34Z</time>
      </trkpt>
      <trkpt lat="48.69653" lon="2.02066">
        <ele>46</ele>
        <time>2012-04-08T11:29:44Z</time>
      </trkpt>
      <trkpt lat="48.69662" lon="2.02059">
        <ele>46</ele>
        <time>2012-04-08T11:30:00Z</time>
      </trkpt>
      <trkpt lat="48.69671" lon="2.02056">
        <ele>48</ele>
        <time>2012-04-08T11:30:10Z</time>
      </trkpt>
      <trkpt lat="48.69678" lon="2.02046">
        <ele>49</ele>
        <time>2012-04-08T11:30:22Z</time>
      </trkpt>
      <trkpt lat="48.69687" lon="2.02045">
        <ele>49</ele>
        <time>2012-04-08T11:30:34Z</time>
      </trkpt>
      <trkpt lat="48.69693" lon="2.02042">
        <ele>48</ele>
        <time>2012-04-08T11:30:41Z</time>
      </trkpt>
      <trkpt lat="48.69703" lon="2.02037">
        <ele>50</ele>
        <time>2012-04-08T11:30:47Z</time>
      </trkpt>
      <trkpt lat="48.69714" lon="2.02036">
        <ele>50</ele>
        <time>2012-04-08T11:30:53Z</time>
      </trkpt>
      <trkpt lat="48.69718" lon="2.02039">
        <ele>50</ele>
        <time>2012-04-08T11:30:58Z</time>
      </trkpt>
      <trkpt lat="48.69727" lon="2.02036">
        <ele>50</ele>
        <time>2012-04-08T11:31:07Z</time>
      </trkpt>
      <trkpt lat="48.69742" lon="2.0203">
        <ele>48</ele>
        <time>2012-04-08T11:31:22Z</time>
      </trkpt>
      <trkpt lat="48.69747" lon="2.02025">
        <ele>48</ele>
        <time>2012-04-08T11:31:26Z</time>
      </trkpt>
      <trkpt lat="48.69751" lon="2.02021">
        <ele>47</ele>
        <time>2012-04-08T11:31:31Z</time>
      </trkpt>
      <trkpt lat="48.69757" lon="2.0201">
        <ele>47</ele>
        <time>2012-04-08T11:31:42Z</time>
      </trkpt>
      <trkpt lat="48.69764" lon="2.01999">
        <ele>48</ele>
        <time>2012-04-08T11:31:49Z</time>
      </trkpt>
      <trkpt lat="48.6977" lon="2.01996">
        <ele>50</ele>
        <time>2012-04-08T11:31:52Z</time>
      </trkpt>
      <trkpt lat="48.69788" lon="2.01998">
        <ele>45</ele>
        <time>2012-04-08T11:32:07Z</time>
      </trkpt>
      <trkpt lat="48.69793" lon="2.01996">
        <ele>47</ele>
        <time>2012-04-08T11:32:11Z</time>
      </trkpt>
      <trkpt lat="48.69797" lon="2.01992">
        <ele>45</ele>
        <time>2012-04-08T11:32:17Z</time>
      </trkpt>
      <trkpt lat="48.69811" lon="2.01976">
        <ele>49</ele>
        <time>2012-04-08T11:32:30Z</time>
      </trkpt>
      <trkpt lat="48.69819" lon="2.01967">
        <ele>49</ele>
        <time>2012-04-08T11:32:37Z</time>
      </trkpt>
      <trkpt lat="48.69822" lon="2.0196">
        <ele>48</ele>
        <time>2012-04-08T11:32:40Z</time>
      </trkpt>
      <trkpt lat="48.6983" lon="2.01933">
        <ele>48</ele>
        <time>2012-04-08T11:32:58Z</time>
      </trkpt>
      <trkpt lat="48.69834" lon="2.01927">
        <ele>47</ele>
        <time>2012-04-08T11:33:02Z</time>
      </trkpt>
      <trkpt lat="48.69841" lon="2.01918">
        <ele>47</ele>
        <time>2012-04-08T11:33:11Z</time>
      </trkpt>
      <trkpt lat="48.69844" lon="2.01904">
        <ele>47</ele>
        <time>2012-04-08T11:33:19Z</time>
      </trkpt>
      <trkpt lat="48.69846" lon="2.01898">
        <ele>46</ele>
        <time>2012-04-08T11:33:21Z</time>
      </trkpt>
      <trkpt lat="48.69846" lon="2.01889">
        <ele>46</ele>
        <time>2012-04-08T11:33:24Z</time>
      </trkpt>
      <trkpt lat="48.69846" lon="2.01883">
        <ele>45</ele>
        <time>2012-04-08T11:33:29Z</time>
      </trkpt>
      <trkpt lat="48.69849" lon="2.01878">
        <ele>45</ele>
        <time>2012-04-08T11:33:33Z</time>
      </trkpt>
      <trkpt lat="48.6986" lon="2.01861">
        <ele>45</ele>
        <time>2012-04-08T11:33:42Z</time>
      </trkpt>
      <trkpt lat="48.69873" lon="2.01834">
        <ele>50</ele>
        <time>2012-04-08T11:33:54Z</time>
      </trkpt>
      <trkpt lat="48.69877" lon="2.01829">
        <ele>50</ele>
        <time>2012-04-08T11:33:58Z</time>
      </trkpt>
      <trkpt lat="48.69881" lon="2.01825">
        <ele>51</ele>
        <time>2012-04-08T11:34:04Z</time>
      </trkpt>
      <trkpt lat="48.69884" lon="2.01819">
        <ele>50</ele>
        <time>2012-04-08T11:34:10Z</time>
      </trkpt>
      <trkpt lat="48.69889" lon="2.01817">
        <ele>49</ele>
        <time>2012-04-08T11:34:17Z</time>
      </trkpt>
      <trkpt lat="48.69892" lon="2.01813">
        <ele>50</ele>
        <time>2012-04-08T11:34:22Z</time>
      </trkpt>
      <trkpt lat="48.69896" lon="2.01806">
        <ele>49</ele>
        <time>2012-04-08T11:34:26Z</time>
      </trkpt>
      <trkpt lat="48.699" lon="2.01802">
        <ele>50</ele>
        <time>2012-04-08T11:34:29Z</time>
      </trkpt>
      <trkpt lat="48.69903" lon="2.01797">
        <ele>49</ele>
        <time>2012-04-08T11:34:33Z</time>
      </trkpt>
      <trkpt lat="48.69904" lon="2.0179">
        <ele>50</ele>
        <time>2012-04-08T11:34:37Z</time>
      </trkpt>
      <trkpt lat="48.69908" lon="2.01784">
        <ele>51</ele>
        <time>2012-04-08T11:34:42Z</time>
      </trkpt>
      <trkpt lat="48.69909" lon="2.01775">
        <ele>51</ele>
        <time>2012-04-08T11:34:46Z</time>
      </trkpt>
      <trkpt lat="48.6991" lon="2.01769">
        <ele>50</ele>
        <time>2012-04-08T11:34:50Z</time>
      </trkpt>
      <trkpt lat="48.69912" lon="2.01762">
        <ele>50</ele>
        <time>2012-04-08T11:34:54Z</time>
      </trkpt>
      <trkpt lat="48.69914" lon="2.01756">
        <ele>49</ele>
        <time>2012-04-08T11:34:57Z</time>
      </trkpt>
      <trkpt lat="48.69916" lon="2.01749">
        <ele>50</ele>
        <time>2012-04-08T11:35:00Z</time>
      </trkpt>
      <trkpt lat="48.69922" lon="2.01738">
        <ele>50</ele>
        <time>2012-04-08T11:35:08Z</time>
      </trkpt>
      <trkpt lat="48.69925" lon="2.01732">
        <ele>51</ele>
        <time>2012-04-08T11:35:13Z</time>
      </trkpt>
      <trkpt lat="48.69928" lon="2.01726">
        <ele>50</ele>
        <time>2012-04-08T11:35:16Z</time>
      </trkpt>
      <trkpt lat="48.69929" lon="2.01719">
        <ele>50</ele>
        <time>2012-04-08T11:35:19Z</time>
      </trkpt>
      <trkpt lat="48.69933" lon="2.01713">
        <ele>51</ele>
        <time>2012-04-08T11:35:23Z</time>
      </trkpt>
      <trkpt lat="48.69936" lon="2.01707">
        <ele>51</ele>
        <time>2012-04-08T11:35:27Z</time>
      </trkpt>
      <trkpt lat="48.6994" lon="2.01703">
        <ele>50</ele>
        <time>2012-04-08T11:35:31Z</time>
      </trkpt>
      <trkpt lat="48.69941" lon="2.01696">
        <ele>51</ele>
        <time>2012-04-08T11:35:35Z</time>
      </trkpt>
      <trkpt lat="48.69949" lon="2.0167">
        <ele>56</ele>
        <time>2012-04-08T11:35:48Z</time>
      </trkpt>
      <trkpt lat="48.69951" lon="2.01663">
        <ele>56</ele>
        <time>2012-04-08T11:35:52Z</time>
      </trkpt>
      <trkpt lat="48.69955" lon="2.01658">
        <ele>57</ele>
        <time>2012-04-08T11:35:56Z</time>
      </trkpt>
      <trkpt lat="48.69957" lon="2.01652">
        <ele>58</ele>
        <time>2012-04-08T11:35:59Z</time>
      </trkpt>
      <trkpt lat="48.69962" lon="2.01621">
        <ele>58</ele>
        <time>2012-04-08T11:36:12Z</time>
      </trkpt>
      <trkpt lat="48.69963" lon="2.01612">
        <ele>59</ele>
        <time>2012-04-08T11:36:15Z</time>
      </trkpt>
      <trkpt lat="48.69968" lon="2.016">
        <ele>60</ele>
        <time>2012-04-08T11:36:23Z</time>
      </trkpt>
      <trkpt lat="48.69978" lon="2.01596">
        <ele>62</ele>
        <time>2012-04-08T11:36:31Z</time>
      </trkpt>
      <trkpt lat="48.69987" lon="2.01603">
        <ele>61</ele>
        <time>2012-04-08T11:36:39Z</time>
      </trkpt>
      <trkpt lat="48.69996" lon="2.01599">
        <ele>61</ele>
        <time>2012-04-08T11:36:49Z</time>
      </trkpt>
      <trkpt lat="48.70002" lon="2.01588">
        <ele>60</ele>
        <time>2012-04-08T11:36:55Z</time>
      </trkpt>
      <trkpt lat="48.70016" lon="2.01563">
        <ele>60</ele>
        <time>2012-04-08T11:37:07Z</time>
      </trkpt>
      <trkpt lat="48.70025" lon="2.0156">
        <ele>60</ele>
        <time>2012-04-08T11:37:17Z</time>
      </trkpt>
      <trkpt lat="48.70024" lon="2.01545">
        <ele>60</ele>
        <time>2012-04-08T11:37:26Z</time>
      </trkpt>
      <trkpt lat="48.70025" lon="2.01529">
        <ele>60</ele>
        <time>2012-04-08T11:37:30Z</time>
      </trkpt>
      <trkpt lat="48.70024" lon="2.01515">
        <ele>61</ele>
        <time>2012-04-08T11:37:34Z</time>
      </trkpt>
      <trkpt lat="48.70024" lon="2.01498">
        <ele>61</ele>
        <time>2012-04-08T11:37:44Z</time>
      </trkpt>
      <trkpt lat="48.70017" lon="2.01487">
        <ele>61</ele>
        <time>2012-04-08T11:37:48Z</time>
      </trkpt>
      <trkpt lat="48.70017" lon="2.01472">
        <ele>61</ele>
        <time>2012-04-08T11:37:55Z</time>
      </trkpt>
      <trkpt lat="48.70018" lon="2.01454">
        <ele>61</ele>
        <time>2012-04-08T11:38:12Z</time>
      </trkpt>
      <trkpt lat="48.70031" lon="2.01432">
        <ele>61</ele>
        <time>2012-04-08T11:38:27Z</time>
      </trkpt>
      <trkpt lat="48.70041" lon="2.01428">
        <ele>62</ele>
        <time>2012-04-08T11:38:33Z</time>
      </trkpt>
      <trkpt lat="48.7005" lon="2.0142">
        <ele>62</ele>
        <time>2012-04-08T11:38:38Z</time>
      </trkpt>
      <trkpt lat="48.70053" lon="2.01406">
        <ele>64</ele>
        <time>2012-04-08T11:38:45Z</time>
      </trkpt>
      <trkpt lat="48.70052" lon="2.01393">
        <ele>63</ele>
        <time>2012-04-08T11:38:50Z</time>
      </trkpt>
      <trkpt lat="48.70057" lon="2.01379">
        <ele>63</ele>
        <time>2012-04-08T11:38:56Z</time>
      </trkpt>
      <trkpt lat="48.70062" lon="2.01369">
        <ele>62</ele>
        <time>2012-04-08T11:39:05Z</time>
      </trkpt>
      <trkpt lat="48.7008" lon="2.01356">
        <ele>60</ele>
        <time>2012-04-08T11:39:25Z</time>
      </trkpt>
      <trkpt lat="48.70083" lon="2.01344">
        <ele>61</ele>
        <time>2012-04-08T11:39:32Z</time>
      </trkpt>
      <trkpt lat="48.70084" lon="2.0133">
        <ele>61</ele>
        <time>2012-04-08T11:39:38Z</time>
      </trkpt>
      <trkpt lat="48.70089" lon="2.01327">
        <ele>61</ele>
        <time>2012-04-08T11:39:43Z</time>
      </trkpt>
      <trkpt lat="48.70095" lon="2.01324">
        <ele>61</ele>
        <time>2012-04-08T11:39:46Z</time>
      </trkpt>
      <trkpt lat="48.70101" lon="2.01313">
        <ele>61</ele>
        <time>2012-04-08T11:39:52Z</time>
      </trkpt>
      <trkpt lat="48.70105" lon="2.01312">
        <ele>60</ele>
        <time>2012-04-08T11:39:55Z</time>
      </trkpt>
      <trkpt lat="48.70119" lon="2.01309">
        <ele>57</ele>
        <time>2012-04-08T11:40:03Z</time>
      </trkpt>
      <trkpt lat="48.70127" lon="2.01299">
        <ele>57</ele>
        <time>2012-04-08T11:40:14Z</time>
      </trkpt>
      <trkpt lat="48.70132" lon="2.01293">
        <ele>56</ele>
        <time>2012-04-08T11:40:24Z</time>
      </trkpt>
      <trkpt lat="48.70135" lon="2.01281">
        <ele>55</ele>
        <time>2012-04-08T11:40:35Z</time>
      </trkpt>
      <trkpt lat="48.70159" lon="2.01304">
        <ele>51</ele>
        <time>2012-04-08T11:41:00Z</time>
      </trkpt>
      <trkpt lat="48.70166" lon="2.01317">
        <ele>52</ele>
        <time>2012-04-08T11:41:08Z</time>
      </trkpt>
      <trkpt lat="48.70168" lon="2.0133">
        <ele>51</ele>
        <time>2012-04-08T11:41:16Z</time>
      </trkpt>
      <trkpt lat="48.70179" lon="2.01323">
        <ele>51</ele>
        <time>2012-04-08T11:41:21Z</time>
      </trkpt>
      <trkpt lat="48.70218" lon="2.01315">
        <ele>49</ele>
        <time>2012-04-08T11:41:51Z</time>
      </trkpt>
      <trkpt lat="48.7029" lon="2.01352">
        <ele>41</ele>
        <time>2012-04-08T11:42:49Z</time>
      </trkpt>
      <trkpt lat="48.70296" lon="2.01354">
        <ele>45</ele>
        <time>2012-04-08T11:42:56Z</time>
      </trkpt>
      <trkpt lat="48.70301" lon="2.01354">
        <ele>44</ele>
        <time>2012-04-08T11:43:00Z</time>
      </trkpt>
      <trkpt lat="48.70306" lon="2.01355">
        <ele>47</ele>
        <time>2012-04-08T11:43:03Z</time>
      </trkpt>
      <trkpt lat="48.70312" lon="2.01357">
        <ele>46</ele>
        <time>2012-04-08T11:43:07Z</time>
      </trkpt>
      <trkpt lat="48.70317" lon="2.01361">
        <ele>46</ele>
        <time>2012-04-08T11:43:11Z</time>
      </trkpt>
      <trkpt lat="48.7032" lon="2.01365">
        <ele>44</ele>
        <time>2012-04-08T11:43:15Z</time>
      </trkpt>
      <trkpt lat="48.70324" lon="2.01369">
        <ele>44</ele>
        <time>2012-04-08T11:43:19Z</time>
      </trkpt>
      <trkpt lat="48.7033" lon="2.0138">
        <ele>39</ele>
        <time>2012-04-08T11:43:30Z</time>
      </trkpt>
      <trkpt lat="48.70334" lon="2.01384">
        <ele>41</ele>
        <time>2012-04-08T11:43:35Z</time>
      </trkpt>
      <trkpt lat="48.70339" lon="2.01397">
        <ele>39</ele>
        <time>2012-04-08T11:43:42Z</time>
      </trkpt>
      <trkpt lat="48.70339" lon="2.01403">
        <ele>33</ele>
        <time>2012-04-08T11:43:45Z</time>
      </trkpt>
      <trkpt lat="48.70339" lon="2.01411">
        <ele>33</ele>
        <time>2012-04-08T11:43:53Z</time>
      </trkpt>
      <trkpt lat="48.7034" lon="2.01418">
        <ele>34</ele>
        <time>2012-04-08T11:44:00Z</time>
      </trkpt>
      <trkpt lat="48.70344" lon="2.01422">
        <ele>33</ele>
        <time>2012-04-08T11:44:03Z</time>
      </trkpt>
      <trkpt lat="48.70348" lon="2.01428">
        <ele>34</ele>
        <time>2012-04-08T11:44:08Z</time>
      </trkpt>
      <trkpt lat="48.70343" lon="2.01429">
        <ele>28</ele>
        <time>2012-04-08T11:44:16Z</time>
      </trkpt>
      <trkpt lat="48.70342" lon="2.01424">
        <ele>31</ele>
        <time>2012-04-08T11:44:37Z</time>
      </trkpt>
      <trkpt lat="48.70341" lon="2.0142">
        <ele>33</ele>
        <time>2012-04-08T11:45:16Z</time>
      </trkpt>
      <trkpt lat="48.70343" lon="2.01417">
        <ele>36</ele>
        <time>2012-04-08T11:45:25Z</time>
      </trkpt>
      <trkpt lat="48.70346" lon="2.01425">
        <ele>32</ele>
        <time>2012-04-08T11:45:28Z</time>
      </trkpt>
      <trkpt lat="48.70346" lon="2.01433">
        <ele>31</ele>
        <time>2012-04-08T11:45:32Z</time>
      </trkpt>
      <trkpt lat="48.70342" lon="2.01456">
        <ele>35</ele>
        <time>2012-04-08T11:45:43Z</time>
      </trkpt>
      <trkpt lat="48.7034" lon="2.01463">
        <ele>35</ele>
        <time>2012-04-08T11:45:47Z</time>
      </trkpt>
      <trkpt lat="48.70339" lon="2.01477">
        <ele>32</ele>
        <time>2012-04-08T11:45:55Z</time>
      </trkpt>
      <trkpt lat="48.70338" lon="2.01491">
        <ele>34</ele>
        <time>2012-04-08T11:46:02Z</time>
      </trkpt>
      <trkpt lat="48.70339" lon="2.01498">
        <ele>33</ele>
        <time>2012-04-08T11:46:07Z</time>
      </trkpt>
      <trkpt lat="48.70337" lon="2.01505">
        <ele>33</ele>
        <time>2012-04-08T11:46:12Z</time>
      </trkpt>
      <trkpt lat="48.70332" lon="2.01508">
        <ele>34</ele>
        <time>2012-04-08T11:46:16Z</time>
      </trkpt>
      <trkpt lat="48.70334" lon="2.01515">
        <ele>32</ele>
        <time>2012-04-08T11:46:20Z</time>
      </trkpt>
      <trkpt lat="48.70335" lon="2.01521">
        <ele>31</ele>
        <time>2012-04-08T11:46:23Z</time>
      </trkpt>
      <trkpt lat="48.70336" lon="2.01529">
        <ele>32</ele>
        <time>2012-04-08T11:46:27Z</time>
      </trkpt>
      <trkpt lat="48.70337" lon="2.01537">
        <ele>32</ele>
        <time>2012-04-08T11:46:31Z</time>
      </trkpt>
      <trkpt lat="48.70341" lon="2.01551">
        <ele>35</ele>
        <time>2012-04-08T11:46:39Z</time>
      </trkpt>
      <trkpt lat="48.70343" lon="2.01558">
        <ele>34</ele>
        <time>2012-04-08T11:46:44Z</time>
      </trkpt>
      <trkpt lat="48.70343" lon="2.01564">
        <ele>37</ele>
        <time>2012-04-08T11:46:48Z</time>
      </trkpt>
      <trkpt lat="48.70342" lon="2.01572">
        <ele>37</ele>
        <time>2012-04-08T11:46:52Z</time>
      </trkpt>
      <trkpt lat="48.70341" lon="2.01578">
        <ele>36</ele>
        <time>2012-04-08T11:46:56Z</time>
      </trkpt>
      <trkpt lat="48.70342" lon="2.01587">
        <ele>39</ele>
        <time>2012-04-08T11:47:01Z</time>
      </trkpt>
      <trkpt lat="48.70343" lon="2.01601">
        <ele>39</ele>
        <time>2012-04-08T11:47:08Z</time>
      </trkpt>
      <trkpt lat="48.70345" lon="2.01608">
        <ele>41</ele>
        <time>2012-04-08T11:47:11Z</time>
      </trkpt>
      <trkpt lat="48.70344" lon="2.01615">
        <ele>41</ele>
        <time>2012-04-08T11:47:15Z</time>
      </trkpt>
      <trkpt lat="48.70346" lon="2.01621">
        <ele>39</ele>
        <time>2012-04-08T11:47:19Z</time>
      </trkpt>
      <trkpt lat="48.70349" lon="2.01627">
        <ele>42</ele>
        <time>2012-04-08T11:47:23Z</time>
      </trkpt>
      <trkpt lat="48.70349" lon="2.01634">
        <ele>39</ele>
        <time>2012-04-08T11:47:28Z</time>
      </trkpt>
      <trkpt lat="48.70348" lon="2.01641">
        <ele>41</ele>
        <time>2012-04-08T11:47:31Z</time>
      </trkpt>
      <trkpt lat="48.70348" lon="2.01648">
        <ele>37</ele>
        <time>2012-04-08T11:47:34Z</time>
      </trkpt>
      <trkpt lat="48.70347" lon="2.01655">
        <ele>37</ele>
        <time>2012-04-08T11:47:38Z</time>
      </trkpt>
      <trkpt lat="48.70345" lon="2.01661">
        <ele>37</ele>
        <time>2012-04-08T11:47:42Z</time>
      </trkpt>
      <trkpt lat="48.70344" lon="2.01675">
        <ele>43</ele>
        <time>2012-04-08T11:47:53Z</time>
      </trkpt>
      <trkpt lat="48.70346" lon="2.01683">
        <ele>42</ele>
        <time>2012-04-08T11:47:57Z</time>
      </trkpt>
      <trkpt lat="48.70347" lon="2.01691">
        <ele>42</ele>
        <time>2012-04-08T11:48:00Z</time>
      </trkpt>
      <trkpt lat="48.70348" lon="2.01697">
        <ele>44</ele>
        <time>2012-04-08T11:48:04Z</time>
      </trkpt>
      <trkpt lat="48.70351" lon="2.01704">
        <ele>44</ele>
        <time>2012-04-08T11:48:10Z</time>
      </trkpt>
      <trkpt lat="48.70354" lon="2.01711">
        <ele>41</ele>
        <time>2012-04-08T11:48:13Z</time>
      </trkpt>
      <trkpt lat="48.70352" lon="2.01727">
        <ele>41</ele>
        <time>2012-04-08T11:48:22Z</time>
      </trkpt>
      <trkpt lat="48.70351" lon="2.01735">
        <ele>40</ele>
        <time>2012-04-08T11:48:27Z</time>
      </trkpt>
      <trkpt lat="48.70355" lon="2.01741">
        <ele>40</ele>
        <time>2012-04-08T11:48:31Z</time>
      </trkpt>
      <trkpt lat="48.70366" lon="2.01767">
        <ele>48</ele>
        <time>2012-04-08T11:48:48Z</time>
      </trkpt>
      <trkpt lat="48.7037" lon="2.01779">
        <ele>48</ele>
        <time>2012-04-08T11:48:55Z</time>
      </trkpt>
      <trkpt lat="48.70371" lon="2.01794">
        <ele>52</ele>
        <time>2012-04-08T11:49:04Z</time>
      </trkpt>
      <trkpt lat="48.70371" lon="2.01801">
        <ele>51</ele>
        <time>2012-04-08T11:49:07Z</time>
      </trkpt>
      <trkpt lat="48.7037" lon="2.01807">
        <ele>51</ele>
        <time>2012-04-08T11:49:12Z</time>
      </trkpt>
      <trkpt lat="48.7037" lon="2.01814">
        <ele>50</ele>
        <time>2012-04-08T11:49:16Z</time>
      </trkpt>
      <trkpt lat="48.70371" lon="2.01821">
        <ele>51</ele>
        <time>2012-04-08T11:49:20Z</time>
      </trkpt>
      <trkpt lat="48.7037" lon="2.01829">
        <ele>49</ele>
        <time>2012-04-08T11:49:26Z</time>
      </trkpt>
      <trkpt lat="48.7037" lon="2.01837">
        <ele>49</ele>
        <time>2012-04-08T11:49:30Z</time>
      </trkpt>
      <trkpt lat="48.70371" lon="2.01852">
        <ele>47</ele>
        <time>2012-04-08T11:49:38Z</time>
      </trkpt>
      <trkpt lat="48.70372" lon="2.01859">
        <ele>50</ele>
        <time>2012-04-08T11:49:42Z</time>
      </trkpt>
      <trkpt lat="48.70372" lon="2.01867">
        <ele>50</ele>
        <time>2012-04-08T11:49:47Z</time>
      </trkpt>
      <trkpt lat="48.70372" lon="2.01863">
        <ele>45</ele>
        <time>2012-04-08T11:50:10Z</time>
      </trkpt>
      <trkpt lat="48.70369" lon="2.01863">
        <ele>50</ele>
        <time>2012-04-08T11:51:39Z</time>
      </trkpt>
      <trkpt lat="48.70369" lon="2.0187">
        <ele>51</ele>
        <time>2012-04-08T11:51:58Z</time>
      </trkpt>
      <trkpt lat="48.70372" lon="2.01884">
        <ele>51</ele>
        <time>2012-04-08T11:52:10Z</time>
      </trkpt>
      <trkpt lat="48.70374" lon="2.01894">
        <ele>57</ele>
        <time>2012-04-08T11:52:12Z</time>
      </trkpt>
      <trkpt lat="48.70376" lon="2.01901">
        <ele>56</ele>
        <time>2012-04-08T11:52:14Z</time>
      </trkpt>
      <trkpt lat="48.70379" lon="2.01908">
        <ele>63</ele>
        <time>2012-04-08T11:52:17Z</time>
      </trkpt>
      <trkpt lat="48.70381" lon="2.01931">
        <ele>54</ele>
        <time>2012-04-08T11:52:30Z</time>
      </trkpt>
      <trkpt lat="48.70381" lon="2.01939">
        <ele>56</ele>
        <time>2012-04-08T11:52:34Z</time>
      </trkpt>
      <trkpt lat="48.7038" lon="2.01946">
        <ele>56</ele>
        <time>2012-04-08T11:52:39Z</time>
      </trkpt>
      <trkpt lat="48.70381" lon="2.01953">
        <ele>56</ele>
        <time>2012-04-08T11:52:45Z</time>
      </trkpt>
      <trkpt lat="48.70379" lon="2.01967">
        <ele>56</ele>
        <time>2012-04-08T11:52:51Z</time>
      </trkpt>
      <trkpt lat="48.70378" lon="2.01974">
        <ele>55</ele>
        <time>2012-04-08T11:52:54Z</time>
      </trkpt>
      <trkpt lat="48.70379" lon="2.01981">
        <ele>59</ele>
        <time>2012-04-08T11:52:58Z</time>
      </trkpt>
      <trkpt lat="48.70383" lon="2.01985">
        <ele>56</ele>
        <time>2012-04-08T11:53:03Z</time>
      </trkpt>
      <trkpt lat="48.70387" lon="2.01988">
        <ele>55</ele>
        <time>2012-04-08T11:53:09Z</time>
      </trkpt>
      <trkpt lat="48.70392" lon="2.01984">
        <ele>53</ele>
        <time>2012-04-08T11:53:15Z</time>
      </trkpt>
      <trkpt lat="48.70403" lon="2.01972">
        <ele>53</ele>
        <time>2012-04-08T11:53:24Z</time>
      </trkpt>
      <trkpt lat="48.7041" lon="2.01962">
        <ele>55</ele>
        <time>2012-04-08T11:53:30Z</time>
      </trkpt>
      <trkpt lat="48.70411" lon="2.01956">
        <ele>58</ele>
        <time>2012-04-08T11:53:33Z</time>
      </trkpt>
      <trkpt lat="48.70416" lon="2.01953">
        <ele>58</ele>
        <time>2012-04-08T11:53:40Z</time>
      </trkpt>
      <trkpt lat="48.7042" lon="2.01949">
        <ele>61</ele>
        <time>2012-04-08T11:53:44Z</time>
      </trkpt>
      <trkpt lat="48.70425" lon="2.01945">
        <ele>61</ele>
        <time>2012-04-08T11:53:48Z</time>
      </trkpt>
      <trkpt lat="48.70429" lon="2.01941">
        <ele>59</ele>
        <time>2012-04-08T11:53:52Z</time>
      </trkpt>
      <trkpt lat="48.70437" lon="2.0193">
        <ele>64</ele>
        <time>2012-04-08T11:54:00Z</time>
      </trkpt>
      <trkpt lat="48.70442" lon="2.01927">
        <ele>64</ele>
        <time>2012-04-08T11:54:07Z</time>
      </trkpt>
      <trkpt lat="48.7045" lon="2.01907">
        <ele>70</ele>
        <time>2012-04-08T11:54:19Z</time>
      </trkpt>
      <trkpt lat="48.70452" lon="2.019">
        <ele>70</ele>
        <time>2012-04-08T11:54:23Z</time>
      </trkpt>
      <trkpt lat="48.70454" lon="2.01892">
        <ele>71</ele>
        <time>2012-04-08T11:54:27Z</time>
      </trkpt>
      <trkpt lat="48.70453" lon="2.01885">
        <ele>72</ele>
        <time>2012-04-08T11:54:32Z</time>
      </trkpt>
      <trkpt lat="48.70451" lon="2.01879">
        <ele>72</ele>
        <time>2012-04-08T11:54:36Z</time>
      </trkpt>
      <trkpt lat="48.70451" lon="2.01864">
        <ele>68</ele>
        <time>2012-04-08T11:54:46Z</time>
      </trkpt>
      <trkpt lat="48.70451" lon="2.01857">
        <ele>68</ele>
        <time>2012-04-08T11:54:51Z</time>
      </trkpt>
      <trkpt lat="48.70455" lon="2.01853">
        <ele>60</ele>
        <time>2012-04-08T11:54:57Z</time>
      </trkpt>
      <trkpt lat="48.70458" lon="2.01846">
        <ele>61</ele>
        <time>2012-04-08T11:55:03Z</time>
      </trkpt>
      <trkpt lat="48.70458" lon="2.0184">
        <ele>63</ele>
        <time>2012-04-08T11:55:05Z</time>
      </trkpt>
      <trkpt lat="48.70456" lon="2.01832">
        <ele>67</ele>
        <time>2012-04-08T11:55:08Z</time>
      </trkpt>
      <trkpt lat="48.70455" lon="2.01825">
        <ele>67</ele>
        <time>2012-04-08T11:55:11Z</time>
      </trkpt>
      <trkpt lat="48.70458" lon="2.01796">
        <ele>79</ele>
        <time>2012-04-08T11:55:26Z</time>
      </trkpt>
      <trkpt lat="48.70459" lon="2.01789">
        <ele>79</ele>
        <time>2012-04-08T11:55:29Z</time>
      </trkpt>
      <trkpt lat="48.70463" lon="2.01783">
        <ele>76</ele>
        <time>2012-04-08T11:55:33Z</time>
      </trkpt>
      <trkpt lat="48.70472" lon="2.01774">
        <ele>82</ele>
        <time>2012-04-08T11:55:40Z</time>
      </trkpt>
      <trkpt lat="48.70482" lon="2.01765">
        <ele>82</ele>
        <time>2012-04-08T11:55:48Z</time>
      </trkpt>
      <trkpt lat="48.70485" lon="2.01759">
        <ele>81</ele>
        <time>2012-04-08T11:55:51Z</time>
      </trkpt>
      <trkpt lat="48.70488" lon="2.01754">
        <ele>86</ele>
        <time>2012-04-08T11:55:55Z</time>
      </trkpt>
      <trkpt lat="48.70487" lon="2.01746">
        <ele>88</ele>
        <time>2012-04-08T11:55:59Z</time>
      </trkpt>
      <trkpt lat="48.7049" lon="2.0174">
        <ele>89</ele>
        <time>2012-04-08T11:56:03Z</time>
      </trkpt>
      <trkpt lat="48.70494" lon="2.01736">
        <ele>89</ele>
        <time>2012-04-08T11:56:06Z</time>
      </trkpt>
      <trkpt lat="48.70498" lon="2.01733">
        <ele>91</ele>
        <time>2012-04-08T11:56:09Z</time>
      </trkpt>
      <trkpt lat="48.70508" lon="2.01729">
        <ele>87</ele>
        <time>2012-04-08T11:56:17Z</time>
      </trkpt>
      <trkpt lat="48.70514" lon="2.01731">
        <ele>86</ele>
        <time>2012-04-08T11:56:21Z</time>
      </trkpt>
      <trkpt lat="48.70517" lon="2.01724">
        <ele>87</ele>
        <time>2012-04-08T11:56:25Z</time>
      </trkpt>
      <trkpt lat="48.70521" lon="2.01719">
        <ele>83</ele>
        <time>2012-04-08T11:56:28Z</time>
      </trkpt>
      <trkpt lat="48.70526" lon="2.01716">
        <ele>86</ele>
        <time>2012-04-08T11:56:34Z</time>
      </trkpt>
      <trkpt lat="48.70529" lon="2.0171">
        <ele>89</ele>
        <time>2012-04-08T11:56:38Z</time>
      </trkpt>
      <trkpt lat="48.70534" lon="2.01695">
        <ele>89</ele>
        <time>2012-04-08T11:56:47Z</time>
      </trkpt>
      <trkpt lat="48.70534" lon="2.01688">
        <ele>94</ele>
        <time>2012-04-08T11:56:50Z</time>
      </trkpt>
      <trkpt lat="48.70533" lon="2.01681">
        <ele>94</ele>
        <time>2012-04-08T11:56:54Z</time>
      </trkpt>
      <trkpt lat="48.70532" lon="2.01672">
        <ele>98</ele>
        <time>2012-04-08T11:56:59Z</time>
      </trkpt>
      <trkpt lat="48.70535" lon="2.01658">
        <ele>96</ele>
        <time>2012-04-08T11:57:06Z</time>
      </trkpt>
      <trkpt lat="48.70537" lon="2.01651">
        <ele>98</ele>
        <time>2012-04-08T11:57:10Z</time>
      </trkpt>
      <trkpt lat="48.7054" lon="2.01635">
        <ele>95</ele>
        <time>2012-04-08T11:57:19Z</time>
      </trkpt>
      <trkpt lat="48.70541" lon="2.01628">
        <ele>97</ele>
        <time>2012-04-08T11:57:22Z</time>
      </trkpt>
      <trkpt lat="48.70547" lon="2.016">
        <ele>97</ele>
        <time>2012-04-08T11:57:35Z</time>
      </trkpt>
      <trkpt lat="48.70549" lon="2.01593">
        <ele>99</ele>
        <time>2012-04-08T11:57:39Z</time>
      </trkpt>
      <trkpt lat="48.7055" lon="2.01587">
        <ele>99</ele>
        <time>2012-04-08T11:57:44Z</time>
      </trkpt>
      <trkpt lat="48.70554" lon="2.01583">
        <ele>100</ele>
        <time>2012-04-08T11:57:48Z</time>
      </trkpt>
      <trkpt lat="48.70558" lon="2.01579">
        <ele>99</ele>
        <time>2012-04-08T11:57:52Z</time>
      </trkpt>
      <trkpt lat="48.7056" lon="2.01572">
        <ele>99</ele>
        <time>2012-04-08T11:57:57Z</time>
      </trkpt>
      <trkpt lat="48.70564" lon="2.01571">
        <ele>89</ele>
        <time>2012-04-08T11:58:02Z</time>
      </trkpt>
      <trkpt lat="48.70568" lon="2.01568">
        <ele>91</ele>
        <time>2012-04-08T11:58:07Z</time>
      </trkpt>
      <trkpt lat="48.70569" lon="2.01561">
        <ele>93</ele>
        <time>2012-04-08T11:58:09Z</time>
      </trkpt>
      <trkpt lat="48.70571" lon="2.01555">
        <ele>92</ele>
        <time>2012-04-08T11:58:12Z</time>
      </trkpt>
      <trkpt lat="48.70577" lon="2.01541">
        <ele>92</ele>
        <time>2012-04-08T11:58:20Z</time>
      </trkpt>
      <trkpt lat="48.70583" lon="2.01539">
        <ele>93</ele>
        <time>2012-04-08T11:58:23Z</time>
      </trkpt>
      <trkpt lat="48.70585" lon="2.01532">
        <ele>99</ele>
        <time>2012-04-08T11:58:27Z</time>
      </trkpt>
      <trkpt lat="48.70589" lon="2.01539">
        <ele>94</ele>
        <time>2012-04-08T11:58:34Z</time>
      </trkpt>
      <trkpt lat="48.7059" lon="2.01548">
        <ele>99</ele>
        <time>2012-04-08T11:58:38Z</time>
      </trkpt>
      <trkpt lat="48.70587" lon="2.01563">
        <ele>102</ele>
        <time>2012-04-08T11:58:45Z</time>
      </trkpt>
      <trkpt lat="48.70584" lon="2.01572">
        <ele>102</ele>
        <time>2012-04-08T11:58:49Z</time>
      </trkpt>
      <trkpt lat="48.7058" lon="2.01593">
        <ele>107</ele>
        <time>2012-04-08T11:59:02Z</time>
      </trkpt>
      <trkpt lat="48.70575" lon="2.01604">
        <ele>99</ele>
        <time>2012-04-08T11:59:10Z</time>
      </trkpt>
      <trkpt lat="48.70574" lon="2.01618">
        <ele>101</ele>
        <time>2012-04-08T11:59:19Z</time>
      </trkpt>
      <trkpt lat="48.70581" lon="2.01655">
        <ele>113</ele>
        <time>2012-04-08T11:59:36Z</time>
      </trkpt>
      <trkpt lat="48.70584" lon="2.0166">
        <ele>113</ele>
        <time>2012-04-08T11:59:42Z</time>
      </trkpt>
      <trkpt lat="48.70587" lon="2.01667">
        <ele>112</ele>
        <time>2012-04-08T11:59:47Z</time>
      </trkpt>
      <trkpt lat="48.70592" lon="2.01681">
        <ele>114</ele>
        <time>2012-04-08T11:59:55Z</time>
      </trkpt>
      <trkpt lat="48.70594" lon="2.01687">
        <ele>112</ele>
        <time>2012-04-08T12:00:00Z</time>
      </trkpt>
      <trkpt lat="48.70604" lon="2.01694">
        <ele>112</ele>
        <time>2012-04-08T12:00:07Z</time>
      </trkpt>
      <trkpt lat="48.70614" lon="2.01694">
        <ele>118</ele>
        <time>2012-04-08T12:00:15Z</time>
      </trkpt>
      <trkpt lat="48.70629" lon="2.01704">
        <ele>115</ele>
        <time>2012-04-08T12:00:27Z</time>
      </trkpt>
      <trkpt lat="48.70633" lon="2.01706">
        <ele>115</ele>
        <time>2012-04-08T12:00:31Z</time>
      </trkpt>
      <trkpt lat="48.70641" lon="2.01713">
        <ele>112</ele>
        <time>2012-04-08T12:00:40Z</time>
      </trkpt>
      <trkpt lat="48.70645" lon="2.01718">
        <ele>113</ele>
        <time>2012-04-08T12:00:45Z</time>
      </trkpt>
      <trkpt lat="48.70654" lon="2.01721">
        <ele>115</ele>
        <time>2012-04-08T12:00:51Z</time>
      </trkpt>
      <trkpt lat="48.7066" lon="2.0172">
        <ele>116</ele>
        <time>2012-04-08T12:00:54Z</time>
      </trkpt>
      <trkpt lat="48.70666" lon="2.0172">
        <ele>115</ele>
        <time>2012-04-08T12:00:57Z</time>
      </trkpt>
      <trkpt lat="48.7067" lon="2.01719">
        <ele>115</ele>
        <time>2012-04-08T12:01:01Z</time>
      </trkpt>
      <trkpt lat="48.70674" lon="2.01724">
        <ele>115</ele>
        <time>2012-04-08T12:01:09Z</time>
      </trkpt>
      <trkpt lat="48.70678" lon="2.01726">
        <ele>116</ele>
        <time>2012-04-08T12:01:13Z</time>
      </trkpt>
      <trkpt lat="48.7069" lon="2.01726">
        <ele>116</ele>
        <time>2012-04-08T12:01:18Z</time>
      </trkpt>
      <trkpt lat="48.70694" lon="2.01728">
        <ele>114</ele>
        <time>2012-04-08T12:01:22Z</time>
      </trkpt>
      <trkpt lat="48.70699" lon="2.01731">
        <ele>116</ele>
        <time>2012-04-08T12:01:27Z</time>
      </trkpt>
      <trkpt lat="48.70701" lon="2.01737">
        <ele>117</ele>
        <time>2012-04-08T12:01:33Z</time>
      </trkpt>
      <trkpt lat="48.70705" lon="2.01741">
        <ele>117</ele>
        <time>2012-04-08T12:01:39Z</time>
      </trkpt>
      <trkpt lat="48.70716" lon="2.01744">
        <ele>119</ele>
        <time>2012-04-08T12:01:45Z</time>
      </trkpt>
      <trkpt lat="48.70722" lon="2.01745">
        <ele>113</ele>
        <time>2012-04-08T12:01:48Z</time>
      </trkpt>
      <trkpt lat="48.70726" lon="2.01751">
        <ele>116</ele>
        <time>2012-04-08T12:02:01Z</time>
      </trkpt>
      <trkpt lat="48.70731" lon="2.01753">
        <ele>120</ele>
        <time>2012-04-08T12:02:03Z</time>
      </trkpt>
      <trkpt lat="48.70737" lon="2.01755">
        <ele>118</ele>
        <time>2012-04-08T12:02:06Z</time>
      </trkpt>
      <trkpt lat="48.70742" lon="2.01756">
        <ele>118</ele>
        <time>2012-04-08T12:02:11Z</time>
      </trkpt>
      <trkpt lat="48.70738" lon="2.01759">
        <ele>123</ele>
        <time>2012-04-08T12:02:54Z</time>
      </trkpt>
      <trkpt lat="48.70738" lon="2.01767">
        <ele>119</ele>
        <time>2012-04-08T12:03:07Z</time>
      </trkpt>
      <trkpt lat="48.70738" lon="2.01771">
        <ele>119</ele>
        <time>2012-04-08T12:03:37Z</time>
      </trkpt>
      <trkpt lat="48.70738" lon="2.01766">
        <ele>115</ele>
        <time>2012-04-08T12:04:36Z</time>
      </trkpt>
      <trkpt lat="48.70735" lon="2.01764">
        <ele>112</ele>
        <time>2012-04-08T12:05:37Z</time>
      </trkpt>
      <trkpt lat="48.70732" lon="2.01769">
        <ele>107</ele>
        <time>2012-04-08T12:06:06Z</time>
      </trkpt>
      <trkpt lat="48.70724" lon="2.01775">
        <ele>100</ele>
        <time>2012-04-08T12:06:39Z</time>
      </trkpt>
      <trkpt lat="48.70728" lon="2.01774">
        <ele>111</ele>
        <time>2012-04-08T12:06:59Z</time>
      </trkpt>
      <trkpt lat="48.70732" lon="2.01771">
        <ele>112</ele>
        <time>2012-04-08T12:07:04Z</time>
      </trkpt>
      <trkpt lat="48.70736" lon="2.01774">
        <ele>113</ele>
        <time>2012-04-08T12:07:07Z</time>
      </trkpt>
      <trkpt lat="48.70732" lon="2.01781">
        <ele>108</ele>
        <time>2012-04-08T12:07:13Z</time>
      </trkpt>
      <trkpt lat="48.70728" lon="2.01782">
        <ele>106</ele>
        <time>2012-04-08T12:07:16Z</time>
      </trkpt>
      <trkpt lat="48.70728" lon="2.01792">
        <ele>112</ele>
        <time>2012-04-08T12:07:21Z</time>
      </trkpt>
      <trkpt lat="48.70729" lon="2.01799">
        <ele>112</ele>
        <time>2012-04-08T12:07:23Z</time>
      </trkpt>
      <trkpt lat="48.70732" lon="2.01806">
        <ele>114</ele>
        <time>2012-04-08T12:07:26Z</time>
      </trkpt>
      <trkpt lat="48.70732" lon="2.01813">
        <ele>114</ele>
        <time>2012-04-08T12:07:31Z</time>
      </trkpt>
      <trkpt lat="48.70729" lon="2.01818">
        <ele>113</ele>
        <time>2012-04-08T12:07:34Z</time>
      </trkpt>
      <trkpt lat="48.70725" lon="2.01822">
        <ele>114</ele>
        <time>2012-04-08T12:07:40Z</time>
      </trkpt>
      <trkpt lat="48.70726" lon="2.0183">
        <ele>113</ele>
        <time>2012-04-08T12:07:48Z</time>
      </trkpt>
      <trkpt lat="48.70729" lon="2.01844">
        <ele>109</ele>
        <time>2012-04-08T12:07:53Z</time>
      </trkpt>
      <trkpt lat="48.70727" lon="2.01852">
        <ele>106</ele>
        <time>2012-04-08T12:07:56Z</time>
      </trkpt>
      <trkpt lat="48.70724" lon="2.01857">
        <ele>107</ele>
        <time>2012-04-08T12:07:58Z</time>
      </trkpt>
      <trkpt lat="48.7072" lon="2.01863">
        <ele>106</ele>
        <time>2012-04-08T12:08:01Z</time>
      </trkpt>
      <trkpt lat="48.70717" lon="2.01867">
        <ele>108</ele>
        <time>2012-04-08T12:08:04Z</time>
      </trkpt>
      <trkpt lat="48.70713" lon="2.01875">
        <ele>108</ele>
        <time>2012-04-08T12:08:13Z</time>
      </trkpt>
      <trkpt lat="48.7071" lon="2.01881">
        <ele>105</ele>
        <time>2012-04-08T12:08:16Z</time>
      </trkpt>
      <trkpt lat="48.70709" lon="2.01888">
        <ele>107</ele>
        <time>2012-04-08T12:08:25Z</time>
      </trkpt>
      <trkpt lat="48.70709" lon="2.01896">
        <ele>106</ele>
        <time>2012-04-08T12:08:28Z</time>
      </trkpt>
      <trkpt lat="48.70708" lon="2.01903">
        <ele>106</ele>
        <time>2012-04-08T12:08:31Z</time>
      </trkpt>
      <trkpt lat="48.70708" lon="2.0191">
        <ele>105</ele>
        <time>2012-04-08T12:08:33Z</time>
      </trkpt>
      <trkpt lat="48.70707" lon="2.01917">
        <ele>105</ele>
        <time>2012-04-08T12:08:36Z</time>
      </trkpt>
      <trkpt lat="48.70706" lon="2.01925">
        <ele>106</ele>
        <time>2012-04-08T12:08:41Z</time>
      </trkpt>
      <trkpt lat="48.70703" lon="2.01939">
        <ele>98</ele>
        <time>2012-04-08T12:08:51Z</time>
      </trkpt>
      <trkpt lat="48.707" lon="2.01945">
        <ele>99</ele>
        <time>2012-04-08T12:08:57Z</time>
      </trkpt>
      <trkpt lat="48.70699" lon="2.01952">
        <ele>99</ele>
        <time>2012-04-08T12:09:01Z</time>
      </trkpt>
      <trkpt lat="48.70698" lon="2.01959">
        <ele>103</ele>
        <time>2012-04-08T12:09:05Z</time>
      </trkpt>
      <trkpt lat="48.70699" lon="2.01966">
        <ele>105</ele>
        <time>2012-04-08T12:09:10Z</time>
      </trkpt>
      <trkpt lat="48.70702" lon="2.01973">
        <ele>105</ele>
        <time>2012-04-08T12:09:14Z</time>
      </trkpt>
      <trkpt lat="48.70703" lon="2.0198">
        <ele>107</ele>
        <time>2012-04-08T12:09:18Z</time>
      </trkpt>
      <trkpt lat="48.70704" lon="2.01987">
        <ele>103</ele>
        <time>2012-04-08T12:09:24Z</time>
      </trkpt>
      <trkpt lat="48.70702" lon="2.02004">
        <ele>108</ele>
        <time>2012-04-08T12:09:33Z</time>
      </trkpt>
      <trkpt lat="48.707" lon="2.02012">
        <ele>109</ele>
        <time>2012-04-08T12:09:37Z</time>
      </trkpt>
      <trkpt lat="48.707" lon="2.02018">
        <ele>112</ele>
        <time>2012-04-08T12:09:40Z</time>
      </trkpt>
      <trkpt lat="48.70702" lon="2.02027">
        <ele>113</ele>
        <time>2012-04-08T12:09:43Z</time>
      </trkpt>
      <trkpt lat="48.70705" lon="2.02034">
        <ele>117</ele>
        <time>2012-04-08T12:09:46Z</time>
      </trkpt>
      <trkpt lat="48.7071" lon="2.02042">
        <ele>118</ele>
        <time>2012-04-08T12:09:49Z</time>
      </trkpt>
      <trkpt lat="48.70713" lon="2.02057">
        <ele>113</ele>
        <time>2012-04-08T12:09:58Z</time>
      </trkpt>
      <trkpt lat="48.70713" lon="2.02065">
        <ele>113</ele>
        <time>2012-04-08T12:10:01Z</time>
      </trkpt>
      <trkpt lat="48.70709" lon="2.02086">
        <ele>117</ele>
        <time>2012-04-08T12:10:11Z</time>
      </trkpt>
      <trkpt lat="48.70709" lon="2.02094">
        <ele>116</ele>
        <time>2012-04-08T12:10:14Z</time>
      </trkpt>
      <trkpt lat="48.70709" lon="2.02102">
        <ele>116</ele>
        <time>2012-04-08T12:10:19Z</time>
      </trkpt>
      <trkpt lat="48.70712" lon="2.02108">
        <ele>115</ele>
        <time>2012-04-08T12:10:22Z</time>
      </trkpt>
      <trkpt lat="48.70712" lon="2.02115">
        <ele>116</ele>
        <time>2012-04-08T12:10:26Z</time>
      </trkpt>
      <trkpt lat="48.70713" lon="2.02122">
        <ele>115</ele>
        <time>2012-04-08T12:10:29Z</time>
      </trkpt>
      <trkpt lat="48.70712" lon="2.02136">
        <ele>121</ele>
        <time>2012-04-08T12:10:38Z</time>
      </trkpt>
      <trkpt lat="48.70708" lon="2.02144">
        <ele>119</ele>
        <time>2012-04-08T12:10:41Z</time>
      </trkpt>
      <trkpt lat="48.70707" lon="2.02153">
        <ele>119</ele>
        <time>2012-04-08T12:10:44Z</time>
      </trkpt>
      <trkpt lat="48.70708" lon="2.0216">
        <ele>121</ele>
        <time>2012-04-08T12:10:47Z</time>
      </trkpt>
      <trkpt lat="48.7071" lon="2.02168">
        <ele>121</ele>
        <time>2012-04-08T12:10:50Z</time>
      </trkpt>
      <trkpt lat="48.7071" lon="2.02175">
        <ele>120</ele>
        <time>2012-04-08T12:10:54Z</time>
      </trkpt>
      <trkpt lat="48.70707" lon="2.02183">
        <ele>120</ele>
        <time>2012-04-08T12:10:59Z</time>
      </trkpt>
      <trkpt lat="48.70709" lon="2.022">
        <ele>118</ele>
        <time>2012-04-08T12:11:06Z</time>
      </trkpt>
      <trkpt lat="48.70709" lon="2.02209">
        <ele>119</ele>
        <time>2012-04-08T12:11:09Z</time>
      </trkpt>
      <trkpt lat="48.70709" lon="2.02216">
        <ele>119</ele>
        <time>2012-04-08T12:11:13Z</time>
      </trkpt>
      <trkpt lat="48.70708" lon="2.02223">
        <ele>121</ele>
        <time>2012-04-08T12:11:19Z</time>
      </trkpt>
      <trkpt lat="48.70705" lon="2.02247">
        <ele>105</ele>
        <time>2012-04-08T12:11:39Z</time>
      </trkpt>
      <trkpt lat="48.70703" lon="2.02255">
        <ele>107</ele>
        <time>2012-04-08T12:11:43Z</time>
      </trkpt>
      <trkpt lat="48.70702" lon="2.02262">
        <ele>107</ele>
        <time>2012-04-08T12:11:47Z</time>
      </trkpt>
      <trkpt lat="48.707" lon="2.02269">
        <ele>105</ele>
        <time>2012-04-08T12:11:50Z</time>
      </trkpt>
      <trkpt lat="48.70698" lon="2.02282">
        <ele>104</ele>
        <time>2012-04-08T12:11:55Z</time>
      </trkpt>
      <trkpt lat="48.70696" lon="2.02289">
        <ele>102</ele>
        <time>2012-04-08T12:11:58Z</time>
      </trkpt>
      <trkpt lat="48.70696" lon="2.02304">
        <ele>102</ele>
        <time>2012-04-08T12:12:05Z</time>
      </trkpt>
      <trkpt lat="48.70696" lon="2.02311">
        <ele>101</ele>
        <time>2012-04-08T12:12:10Z</time>
      </trkpt>
      <trkpt lat="48.70694" lon="2.02318">
        <ele>98</ele>
        <time>2012-04-08T12:12:14Z</time>
      </trkpt>
      <trkpt lat="48.70694" lon="2.02326">
        <ele>101</ele>
        <time>2012-04-08T12:12:17Z</time>
      </trkpt>
      <trkpt lat="48.70694" lon="2.02334">
        <ele>101</ele>
        <time>2012-04-08T12:12:20Z</time>
      </trkpt>
      <trkpt lat="48.70694" lon="2.02342">
        <ele>97</ele>
        <time>2012-04-08T12:12:24Z</time>
      </trkpt>
      <trkpt lat="48.70694" lon="2.02358">
        <ele>100</ele>
        <time>2012-04-08T12:12:36Z</time>
      </trkpt>
      <trkpt lat="48.70691" lon="2.02364">
        <ele>99</ele>
        <time>2012-04-08T12:12:38Z</time>
      </trkpt>
      <trkpt lat="48.70688" lon="2.02408">
        <ele>109</ele>
        <time>2012-04-08T12:13:04Z</time>
      </trkpt>
      <trkpt lat="48.7069" lon="2.02416">
        <ele>109</ele>
        <time>2012-04-08T12:13:08Z</time>
      </trkpt>
      <trkpt lat="48.70692" lon="2.02423">
        <ele>108</ele>
        <time>2012-04-08T12:13:10Z</time>
      </trkpt>
      <trkpt lat="48.70693" lon="2.0243">
        <ele>108</ele>
        <time>2012-04-08T12:13:13Z</time>
      </trkpt>
      <trkpt lat="48.70686" lon="2.02451">
        <ele>98</ele>
        <time>2012-04-08T12:13:24Z</time>
      </trkpt>
      <trkpt lat="48.70688" lon="2.02458">
        <ele>98</ele>
        <time>2012-04-08T12:13:28Z</time>
      </trkpt>
      <trkpt lat="48.7069" lon="2.02467">
        <ele>96</ele>
        <time>2012-04-08T12:13:36Z</time>
      </trkpt>
      <trkpt lat="48.70699" lon="2.02476">
        <ele>101</ele>
        <time>2012-04-08T12:13:42Z</time>
      </trkpt>
      <trkpt lat="48.70702" lon="2.02483">
        <ele>103</ele>
        <time>2012-04-08T12:13:45Z</time>
      </trkpt>
      <trkpt lat="48.70705" lon="2.02491">
        <ele>102</ele>
        <time>2012-04-08T12:13:48Z</time>
      </trkpt>
      <trkpt lat="48.70707" lon="2.02497">
        <ele>102</ele>
        <time>2012-04-08T12:13:50Z</time>
      </trkpt>
      <trkpt lat="48.70724" lon="2.02543">
        <ele>120</ele>
        <time>2012-04-08T12:14:13Z</time>
      </trkpt>
      <trkpt lat="48.70726" lon="2.02557">
        <ele>118</ele>
        <time>2012-04-08T12:14:18Z</time>
      </trkpt>
      <trkpt lat="48.70731" lon="2.02566">
        <ele>117</ele>
        <time>2012-04-08T12:14:22Z</time>
      </trkpt>
      <trkpt lat="48.70732" lon="2.02574">
        <ele>115</ele>
        <time>2012-04-08T12:14:28Z</time>
      </trkpt>
      <trkpt lat="48.70726" lon="2.02588">
        <ele>110</ele>
        <time>2012-04-08T12:14:36Z</time>
      </trkpt>
      <trkpt lat="48.70728" lon="2.02596">
        <ele>112</ele>
        <time>2012-04-08T12:14:41Z</time>
      </trkpt>
      <trkpt lat="48.70727" lon="2.02603">
        <ele>111</ele>
        <time>2012-04-08T12:14:46Z</time>
      </trkpt>
      <trkpt lat="48.70725" lon="2.0261">
        <ele>113</ele>
        <time>2012-04-08T12:14:50Z</time>
      </trkpt>
      <trkpt lat="48.70722" lon="2.02619">
        <ele>113</ele>
        <time>2012-04-08T12:14:53Z</time>
      </trkpt>
      <trkpt lat="48.70723" lon="2.02627">
        <ele>115</ele>
        <time>2012-04-08T12:14:57Z</time>
      </trkpt>
      <trkpt lat="48.70725" lon="2.02634">
        <ele>115</ele>
        <time>2012-04-08T12:15:01Z</time>
      </trkpt>
      <trkpt lat="48.70728" lon="2.02639">
        <ele>116</ele>
        <time>2012-04-08T12:15:05Z</time>
      </trkpt>
      <trkpt lat="48.70732" lon="2.02692">
        <ele>96</ele>
        <time>2012-04-08T12:15:37Z</time>
      </trkpt>
      <trkpt lat="48.70733" lon="2.02699">
        <ele>97</ele>
        <time>2012-04-08T12:15:41Z</time>
      </trkpt>
      <trkpt lat="48.70734" lon="2.02707">
        <ele>96</ele>
        <time>2012-04-08T12:15:44Z</time>
      </trkpt>
      <trkpt lat="48.70736" lon="2.02715">
        <ele>96</ele>
        <time>2012-04-08T12:15:47Z</time>
      </trkpt>
      <trkpt lat="48.70737" lon="2.02723">
        <ele>98</ele>
        <time>2012-04-08T12:15:50Z</time>
      </trkpt>
      <trkpt lat="48.70738" lon="2.02731">
        <ele>97</ele>
        <time>2012-04-08T12:15:54Z</time>
      </trkpt>
      <trkpt lat="48.70736" lon="2.02738">
        <ele>96</ele>
        <time>2012-04-08T12:15:58Z</time>
      </trkpt>
      <trkpt lat="48.70735" lon="2.02745">
        <ele>96</ele>
        <time>2012-04-08T12:16:02Z</time>
      </trkpt>
      <trkpt lat="48.70737" lon="2.02752">
        <ele>94</ele>
        <time>2012-04-08T12:16:05Z</time>
      </trkpt>
      <trkpt lat="48.70739" lon="2.02761">
        <ele>94</ele>
        <time>2012-04-08T12:16:08Z</time>
      </trkpt>
      <trkpt lat="48.7074" lon="2.02768">
        <ele>93</ele>
        <time>2012-04-08T12:16:12Z</time>
      </trkpt>
      <trkpt lat="48.70745" lon="2.02788">
        <ele>93</ele>
        <time>2012-04-08T12:16:23Z</time>
      </trkpt>
      <trkpt lat="48.70748" lon="2.02796">
        <ele>94</ele>
        <time>2012-04-08T12:16:28Z</time>
      </trkpt>
      <trkpt lat="48.7075" lon="2.02802">
        <ele>92</ele>
        <time>2012-04-08T12:16:32Z</time>
      </trkpt>
      <trkpt lat="48.70752" lon="2.02809">
        <ele>94</ele>
        <time>2012-04-08T12:16:39Z</time>
      </trkpt>
      <trkpt lat="48.70756" lon="2.02813">
        <ele>94</ele>
        <time>2012-04-08T12:16:43Z</time>
      </trkpt>
      <trkpt lat="48.70763" lon="2.02826">
        <ele>92</ele>
        <time>2012-04-08T12:16:49Z</time>
      </trkpt>
      <trkpt lat="48.70782" lon="2.02877">
        <ele>74</ele>
        <time>2012-04-08T12:17:16Z</time>
      </trkpt>
      <trkpt lat="48.70783" lon="2.02883">
        <ele>77</ele>
        <time>2012-04-08T12:17:20Z</time>
      </trkpt>
      <trkpt lat="48.70784" lon="2.02889">
        <ele>76</ele>
        <time>2012-04-08T12:17:23Z</time>
      </trkpt>
      <trkpt lat="48.70788" lon="2.02895">
        <ele>73</ele>
        <time>2012-04-08T12:17:28Z</time>
      </trkpt>
      <trkpt lat="48.70798" lon="2.02929">
        <ele>65</ele>
        <time>2012-04-08T12:17:48Z</time>
      </trkpt>
      <trkpt lat="48.708" lon="2.02935">
        <ele>65</ele>
        <time>2012-04-08T12:17:51Z</time>
      </trkpt>
      <trkpt lat="48.70802" lon="2.02942">
        <ele>64</ele>
        <time>2012-04-08T12:17:55Z</time>
      </trkpt>
      <trkpt lat="48.70803" lon="2.0295">
        <ele>65</ele>
        <time>2012-04-08T12:17:59Z</time>
      </trkpt>
      <trkpt lat="48.70804" lon="2.02965">
        <ele>62</ele>
        <time>2012-04-08T12:18:07Z</time>
      </trkpt>
      <trkpt lat="48.70803" lon="2.02974">
        <ele>64</ele>
        <time>2012-04-08T12:18:11Z</time>
      </trkpt>
      <trkpt lat="48.708" lon="2.02981">
        <ele>64</ele>
        <time>2012-04-08T12:18:14Z</time>
      </trkpt>
      <trkpt lat="48.70797" lon="2.02987">
        <ele>65</ele>
        <time>2012-04-08T12:18:17Z</time>
      </trkpt>
      <trkpt lat="48.70794" lon="2.02993">
        <ele>63</ele>
        <time>2012-04-08T12:18:20Z</time>
      </trkpt>
      <trkpt lat="48.7079" lon="2.02999">
        <ele>64</ele>
        <time>2012-04-08T12:18:24Z</time>
      </trkpt>
      <trkpt lat="48.70786" lon="2.03002">
        <ele>64</ele>
        <time>2012-04-08T12:18:28Z</time>
      </trkpt>
      <trkpt lat="48.70784" lon="2.03011">
        <ele>65</ele>
        <time>2012-04-08T12:18:32Z</time>
      </trkpt>
      <trkpt lat="48.7078" lon="2.03024">
        <ele>63</ele>
        <time>2012-04-08T12:18:38Z</time>
      </trkpt>
      <trkpt lat="48.70778" lon="2.0303">
        <ele>63</ele>
        <time>2012-04-08T12:18:41Z</time>
      </trkpt>
      <trkpt lat="48.7076" lon="2.03068">
        <ele>52</ele>
        <time>2012-04-08T12:19:06Z</time>
      </trkpt>
      <trkpt lat="48.70755" lon="2.03067">
        <ele>51</ele>
        <time>2012-04-08T12:19:13Z</time>
      </trkpt>
      <trkpt lat="48.70753" lon="2.0306">
        <ele>51</ele>
        <time>2012-04-08T12:19:19Z</time>
      </trkpt>
      <trkpt lat="48.70752" lon="2.03064">
        <ele>57</ele>
        <time>2012-04-08T12:20:00Z</time>
      </trkpt>
      <trkpt lat="48.70755" lon="2.03069">
        <ele>57</ele>
        <time>2012-04-08T12:20:05Z</time>
      </trkpt>
      <trkpt lat="48.7076" lon="2.03073">
        <ele>56</ele>
        <time>2012-04-08T12:20:09Z</time>
      </trkpt>
      <trkpt lat="48.70759" lon="2.03081">
        <ele>52</ele>
        <time>2012-04-08T12:20:13Z</time>
      </trkpt>
      <trkpt lat="48.70754" lon="2.03092">
        <ele>54</ele>
        <time>2012-04-08T12:20:19Z</time>
      </trkpt>
      <trkpt lat="48.70751" lon="2.03097">
        <ele>52</ele>
        <time>2012-04-08T12:20:22Z</time>
      </trkpt>
      <trkpt lat="48.70743" lon="2.0311">
        <ele>54</ele>
        <time>2012-04-08T12:20:28Z</time>
      </trkpt>
      <trkpt lat="48.70741" lon="2.03117">
        <ele>53</ele>
        <time>2012-04-08T12:20:31Z</time>
      </trkpt>
      <trkpt lat="48.70739" lon="2.03123">
        <ele>53</ele>
        <time>2012-04-08T12:20:35Z</time>
      </trkpt>
      <trkpt lat="48.70737" lon="2.03118">
        <ele>53</ele>
        <time>2012-04-08T12:20:43Z</time>
      </trkpt>
      <trkpt lat="48.70741" lon="2.03114">
        <ele>54</ele>
        <time>2012-04-08T12:21:04Z</time>
      </trkpt>
      <trkpt lat="48.70744" lon="2.03122">
        <ele>52</ele>
        <time>2012-04-08T12:21:13Z</time>
      </trkpt>
      <trkpt lat="48.70747" lon="2.03127">
        <ele>48</ele>
        <time>2012-04-08T12:21:17Z</time>
      </trkpt>
      <trkpt lat="48.70753" lon="2.03131">
        <ele>49</ele>
        <time>2012-04-08T12:21:21Z</time>
      </trkpt>
      <trkpt lat="48.70755" lon="2.03137">
        <ele>48</ele>
        <time>2012-04-08T12:21:24Z</time>
      </trkpt>
      <trkpt lat="48.70762" lon="2.03164">
        <ele>53</ele>
        <time>2012-04-08T12:21:43Z</time>
      </trkpt>
      <trkpt lat="48.70772" lon="2.03179">
        <ele>50</ele>
        <time>2012-04-08T12:21:56Z</time>
      </trkpt>
      <trkpt lat="48.70774" lon="2.03186">
        <ele>50</ele>
        <time>2012-04-08T12:22:00Z</time>
      </trkpt>
      <trkpt lat="48.70776" lon="2.03193">
        <ele>49</ele>
        <time>2012-04-08T12:22:03Z</time>
      </trkpt>
      <trkpt lat="48.70783" lon="2.03205">
        <ele>52</ele>
        <time>2012-04-08T12:22:11Z</time>
      </trkpt>
      <trkpt lat="48.70787" lon="2.03206">
        <ele>51</ele>
        <time>2012-04-08T12:22:16Z</time>
      </trkpt>
      <trkpt lat="48.70788" lon="2.03215">
        <ele>49</ele>
        <time>2012-04-08T12:22:22Z</time>
      </trkpt>
      <trkpt lat="48.7079" lon="2.03221">
        <ele>48</ele>
        <time>2012-04-08T12:22:26Z</time>
      </trkpt>
      <trkpt lat="48.70793" lon="2.03228">
        <ele>51</ele>
        <time>2012-04-08T12:22:31Z</time>
      </trkpt>
      <trkpt lat="48.70797" lon="2.03234">
        <ele>51</ele>
        <time>2012-04-08T12:22:34Z</time>
      </trkpt>
      <trkpt lat="48.70802" lon="2.03245">
        <ele>46</ele>
        <time>2012-04-08T12:22:41Z</time>
      </trkpt>
      <trkpt lat="48.70803" lon="2.03252">
        <ele>46</ele>
        <time>2012-04-08T12:22:44Z</time>
      </trkpt>
      <trkpt lat="48.70803" lon="2.03261">
        <ele>45</ele>
        <time>2012-04-08T12:22:47Z</time>
      </trkpt>
      <trkpt lat="48.70804" lon="2.03267">
        <ele>47</ele>
        <time>2012-04-08T12:22:52Z</time>
      </trkpt>
      <trkpt lat="48.70808" lon="2.03271">
        <ele>47</ele>
        <time>2012-04-08T12:22:57Z</time>
      </trkpt>
      <trkpt lat="48.7081" lon="2.03278">
        <ele>47</ele>
        <time>2012-04-08T12:23:01Z</time>
      </trkpt>
      <trkpt lat="48.7081" lon="2.03285">
        <ele>47</ele>
        <time>2012-04-08T12:23:05Z</time>
      </trkpt>
      <trkpt lat="48.70806" lon="2.03291">
        <ele>46</ele>
        <time>2012-04-08T12:23:10Z</time>
      </trkpt>
      <trkpt lat="48.70805" lon="2.03297">
        <ele>43</ele>
        <time>2012-04-08T12:23:14Z</time>
      </trkpt>
      <trkpt lat="48.70802" lon="2.03304">
        <ele>43</ele>
        <time>2012-04-08T12:23:17Z</time>
      </trkpt>
      <trkpt lat="48.70795" lon="2.03309">
        <ele>39</ele>
        <time>2012-04-08T12:23:21Z</time>
      </trkpt>
      <trkpt lat="48.70791" lon="2.03306">
        <ele>39</ele>
        <time>2012-04-08T12:23:25Z</time>
      </trkpt>
      <trkpt lat="48.70786" lon="2.03305">
        <ele>40</ele>
        <time>2012-04-08T12:23:30Z</time>
      </trkpt>
      <trkpt lat="48.70782" lon="2.03309">
        <ele>41</ele>
        <time>2012-04-08T12:23:34Z</time>
      </trkpt>
      <trkpt lat="48.70778" lon="2.03313">
        <ele>41</ele>
        <time>2012-04-08T12:23:37Z</time>
      </trkpt>
      <trkpt lat="48.70773" lon="2.03314">
        <ele>40</ele>
        <time>2012-04-08T12:23:42Z</time>
      </trkpt>
      <trkpt lat="48.70767" lon="2.03317">
        <ele>41</ele>
        <time>2012-04-08T12:23:47Z</time>
      </trkpt>
      <trkpt lat="48.70762" lon="2.03321">
        <ele>40</ele>
        <time>2012-04-08T12:23:51Z</time>
      </trkpt>
      <trkpt lat="48.70759" lon="2.03325">
        <ele>41</ele>
        <time>2012-04-08T12:23:57Z</time>
      </trkpt>
      <trkpt lat="48.70753" lon="2.03326">
        <ele>39</ele>
        <time>2012-04-08T12:24:03Z</time>
      </trkpt>
      <trkpt lat="48.70749" lon="2.03324">
        <ele>40</ele>
        <time>2012-04-08T12:24:06Z</time>
      </trkpt>
      <trkpt lat="48.70745" lon="2.03328">
        <ele>40</ele>
        <time>2012-04-08T12:24:10Z</time>
      </trkpt>
      <trkpt lat="48.70739" lon="2.03331">
        <ele>41</ele>
        <time>2012-04-08T12:24:15Z</time>
      </trkpt>
      <trkpt lat="48.70733" lon="2.03335">
        <ele>40</ele>
        <time>2012-04-08T12:24:18Z</time>
      </trkpt>
      <trkpt lat="48.70728" lon="2.03337">
        <ele>40</ele>
        <time>2012-04-08T12:24:20Z</time>
      </trkpt>
      <trkpt lat="48.70724" lon="2.03339">
        <ele>37</ele>
        <time>2012-04-08T12:24:25Z</time>
      </trkpt>
      <trkpt lat="48.70719" lon="2.03343">
        <ele>37</ele>
        <time>2012-04-08T12:24:31Z</time>
      </trkpt>
      <trkpt lat="48.70715" lon="2.03348">
        <ele>39</ele>
        <time>2012-04-08T12:24:36Z</time>
      </trkpt>
      <trkpt lat="48.70715" lon="2.03355">
        <ele>38</ele>
        <time>2012-04-08T12:24:40Z</time>
      </trkpt>
      <trkpt lat="48.70718" lon="2.03363">
        <ele>39</ele>
        <time>2012-04-08T12:24:44Z</time>
      </trkpt>
      <trkpt lat="48.70726" lon="2.03372">
        <ele>39</ele>
        <time>2012-04-08T12:24:50Z</time>
      </trkpt>
      <trkpt lat="48.7073" lon="2.03376">
        <ele>38</ele>
        <time>2012-04-08T12:24:54Z</time>
      </trkpt>
      <trkpt lat="48.70734" lon="2.03381">
        <ele>39</ele>
        <time>2012-04-08T12:25:00Z</time>
      </trkpt>
      <trkpt lat="48.70736" lon="2.03387">
        <ele>36</ele>
        <time>2012-04-08T12:25:05Z</time>
      </trkpt>
      <trkpt lat="48.7074" lon="2.03391">
        <ele>37</ele>
        <time>2012-04-08T12:25:10Z</time>
      </trkpt>
      <trkpt lat="48.70746" lon="2.03404">
        <ele>35</ele>
        <time>2012-04-08T12:25:18Z</time>
      </trkpt>
      <trkpt lat="48.70747" lon="2.0341">
        <ele>35</ele>
        <time>2012-04-08T12:25:21Z</time>
      </trkpt>
      <trkpt lat="48.70751" lon="2.03415">
        <ele>35</ele>
        <time>2012-04-08T12:25:25Z</time>
      </trkpt>
      <trkpt lat="48.70756" lon="2.03427">
        <ele>40</ele>
        <time>2012-04-08T12:25:34Z</time>
      </trkpt>
      <trkpt lat="48.70761" lon="2.03439">
        <ele>41</ele>
        <time>2012-04-08T12:25:41Z</time>
      </trkpt>
      <trkpt lat="48.70763" lon="2.03446">
        <ele>41</ele>
        <time>2012-04-08T12:25:45Z</time>
      </trkpt>
      <trkpt lat="48.70765" lon="2.03453">
        <ele>40</ele>
        <time>2012-04-08T12:25:51Z</time>
      </trkpt>
      <trkpt lat="48.70786" lon="2.03481">
        <ele>33</ele>
        <time>2012-04-08T12:26:14Z</time>
      </trkpt>
      <trkpt lat="48.70793" lon="2.035">
        <ele>35</ele>
        <time>2012-04-08T12:26:25Z</time>
      </trkpt>
      <trkpt lat="48.70799" lon="2.03511">
        <ele>35</ele>
        <time>2012-04-08T12:26:32Z</time>
      </trkpt>
      <trkpt lat="48.70802" lon="2.03523">
        <ele>32</ele>
        <time>2012-04-08T12:26:39Z</time>
      </trkpt>
      <trkpt lat="48.70806" lon="2.03546">
        <ele>36</ele>
        <time>2012-04-08T12:26:53Z</time>
      </trkpt>
      <trkpt lat="48.70812" lon="2.03549">
        <ele>31</ele>
        <time>2012-04-08T12:26:56Z</time>
      </trkpt>
      <trkpt lat="48.70824" lon="2.0355">
        <ele>29</ele>
        <time>2012-04-08T12:27:00Z</time>
      </trkpt>
      <trkpt lat="48.70827" lon="2.03556">
        <ele>30</ele>
        <time>2012-04-08T12:27:05Z</time>
      </trkpt>
      <trkpt lat="48.70826" lon="2.03562">
        <ele>33</ele>
        <time>2012-04-08T12:27:08Z</time>
      </trkpt>
      <trkpt lat="48.70824" lon="2.03569">
        <ele>34</ele>
        <time>2012-04-08T12:27:11Z</time>
      </trkpt>
      <trkpt lat="48.70824" lon="2.03577">
        <ele>34</ele>
        <time>2012-04-08T12:27:14Z</time>
      </trkpt>
      <trkpt lat="48.70823" lon="2.03585">
        <ele>36</ele>
        <time>2012-04-08T12:27:17Z</time>
      </trkpt>
      <trkpt lat="48.7082" lon="2.036">
        <ele>33</ele>
        <time>2012-04-08T12:27:23Z</time>
      </trkpt>
      <trkpt lat="48.70823" lon="2.03606">
        <ele>30</ele>
        <time>2012-04-08T12:27:28Z</time>
      </trkpt>
      <trkpt lat="48.70826" lon="2.03612">
        <ele>30</ele>
        <time>2012-04-08T12:27:32Z</time>
      </trkpt>
      <trkpt lat="48.70833" lon="2.03624">
        <ele>28</ele>
        <time>2012-04-08T12:27:41Z</time>
      </trkpt>
      <trkpt lat="48.70843" lon="2.03628">
        <ele>25</ele>
        <time>2012-04-08T12:27:50Z</time>
      </trkpt>
      <trkpt lat="48.70846" lon="2.03636">
        <ele>24</ele>
        <time>2012-04-08T12:27:54Z</time>
      </trkpt>
      <trkpt lat="48.70848" lon="2.03643">
        <ele>31</ele>
        <time>2012-04-08T12:27:58Z</time>
      </trkpt>
      <trkpt lat="48.70852" lon="2.03658">
        <ele>29</ele>
        <time>2012-04-08T12:28:05Z</time>
      </trkpt>
      <trkpt lat="48.70854" lon="2.03674">
        <ele>32</ele>
        <time>2012-04-08T12:28:13Z</time>
      </trkpt>
      <trkpt lat="48.70857" lon="2.03678">
        <ele>33</ele>
        <time>2012-04-08T12:28:18Z</time>
      </trkpt>
      <trkpt lat="48.70862" lon="2.03679">
        <ele>31</ele>
        <time>2012-04-08T12:28:22Z</time>
      </trkpt>
      <trkpt lat="48.70867" lon="2.03676">
        <ele>31</ele>
        <time>2012-04-08T12:28:25Z</time>
      </trkpt>
      <trkpt lat="48.70873" lon="2.03675">
        <ele>32</ele>
        <time>2012-04-08T12:28:28Z</time>
      </trkpt>
      <trkpt lat="48.70883" lon="2.03676">
        <ele>32</ele>
        <time>2012-04-08T12:28:37Z</time>
      </trkpt>
      <trkpt lat="48.70889" lon="2.03679">
        <ele>30</ele>
        <time>2012-04-08T12:28:43Z</time>
      </trkpt>
      <trkpt lat="48.70892" lon="2.03684">
        <ele>28</ele>
        <time>2012-04-08T12:28:46Z</time>
      </trkpt>
      <trkpt lat="48.70896" lon="2.03698">
        <ele>30</ele>
        <time>2012-04-08T12:28:52Z</time>
      </trkpt>
      <trkpt lat="48.70898" lon="2.03704">
        <ele>30</ele>
        <time>2012-04-08T12:28:56Z</time>
      </trkpt>
      <trkpt lat="48.70907" lon="2.03704">
        <ele>41</ele>
        <time>2012-04-08T12:29:00Z</time>
      </trkpt>
      <trkpt lat="48.70912" lon="2.03705">
        <ele>42</ele>
        <time>2012-04-08T12:29:03Z</time>
      </trkpt>
      <trkpt lat="48.70916" lon="2.03711">
        <ele>41</ele>
        <time>2012-04-08T12:29:06Z</time>
      </trkpt>
      <trkpt lat="48.70917" lon="2.03717">
        <ele>40</ele>
        <time>2012-04-08T12:29:09Z</time>
      </trkpt>
      <trkpt lat="48.70925" lon="2.03751">
        <ele>40</ele>
        <time>2012-04-08T12:29:28Z</time>
      </trkpt>
      <trkpt lat="48.70924" lon="2.03758">
        <ele>37</ele>
        <time>2012-04-08T12:29:31Z</time>
      </trkpt>
      <trkpt lat="48.70924" lon="2.03766">
        <ele>38</ele>
        <time>2012-04-08T12:29:34Z</time>
      </trkpt>
      <trkpt lat="48.70927" lon="2.03772">
        <ele>38</ele>
        <time>2012-04-08T12:29:38Z</time>
      </trkpt>
      <trkpt lat="48.70928" lon="2.03779">
        <ele>40</ele>
        <time>2012-04-08T12:29:42Z</time>
      </trkpt>
      <trkpt lat="48.70927" lon="2.03786">
        <ele>38</ele>
        <time>2012-04-08T12:29:46Z</time>
      </trkpt>
      <trkpt lat="48.7093" lon="2.03792">
        <ele>37</ele>
        <time>2012-04-08T12:29:50Z</time>
      </trkpt>
      <trkpt lat="48.70933" lon="2.03798">
        <ele>38</ele>
        <time>2012-04-08T12:29:54Z</time>
      </trkpt>
      <trkpt lat="48.70934" lon="2.03805">
        <ele>38</ele>
        <time>2012-04-08T12:29:59Z</time>
      </trkpt>
      <trkpt lat="48.70929" lon="2.03809">
        <ele>35</ele>
        <time>2012-04-08T12:30:02Z</time>
      </trkpt>
      <trkpt lat="48.70925" lon="2.03811">
        <ele>34</ele>
        <time>2012-04-08T12:30:05Z</time>
      </trkpt>
      <trkpt lat="48.7092" lon="2.03814">
        <ele>34</ele>
        <time>2012-04-08T12:30:08Z</time>
      </trkpt>
      <trkpt lat="48.70916" lon="2.03818">
        <ele>32</ele>
        <time>2012-04-08T12:30:12Z</time>
      </trkpt>
      <trkpt lat="48.70912" lon="2.03823">
        <ele>33</ele>
        <time>2012-04-08T12:30:16Z</time>
      </trkpt>
      <trkpt lat="48.70908" lon="2.03827">
        <ele>33</ele>
        <time>2012-04-08T12:30:20Z</time>
      </trkpt>
      <trkpt lat="48.70903" lon="2.03831">
        <ele>31</ele>
        <time>2012-04-08T12:30:25Z</time>
      </trkpt>
      <trkpt lat="48.70899" lon="2.03836">
        <ele>31</ele>
        <time>2012-04-08T12:30:30Z</time>
      </trkpt>
      <trkpt lat="48.70895" lon="2.03841">
        <ele>32</ele>
        <time>2012-04-08T12:30:35Z</time>
      </trkpt>
      <trkpt lat="48.70892" lon="2.03855">
        <ele>37</ele>
        <time>2012-04-08T12:30:41Z</time>
      </trkpt>
      <trkpt lat="48.70893" lon="2.03862">
        <ele>37</ele>
        <time>2012-04-08T12:30:47Z</time>
      </trkpt>
      <trkpt lat="48.70898" lon="2.03863">
        <ele>38</ele>
        <time>2012-04-08T12:30:52Z</time>
      </trkpt>
      <trkpt lat="48.70903" lon="2.03865">
        <ele>38</ele>
        <time>2012-04-08T12:30:56Z</time>
      </trkpt>
      <trkpt lat="48.70908" lon="2.03868">
        <ele>41</ele>
        <time>2012-04-08T12:31:08Z</time>
      </trkpt>
      <trkpt lat="48.70912" lon="2.03874">
        <ele>41</ele>
        <time>2012-04-08T12:31:11Z</time>
      </trkpt>
      <trkpt lat="48.70915" lon="2.03878">
        <ele>44</ele>
        <time>2012-04-08T12:31:15Z</time>
      </trkpt>
      <trkpt lat="48.70921" lon="2.0388">
        <ele>44</ele>
        <time>2012-04-08T12:31:21Z</time>
      </trkpt>
      <trkpt lat="48.70925" lon="2.03878">
        <ele>46</ele>
        <time>2012-04-08T12:31:25Z</time>
      </trkpt>
      <trkpt lat="48.7093" lon="2.03877">
        <ele>44</ele>
        <time>2012-04-08T12:31:29Z</time>
      </trkpt>
      <trkpt lat="48.70936" lon="2.03881">
        <ele>39</ele>
        <time>2012-04-08T12:31:32Z</time>
      </trkpt>
      <trkpt lat="48.70941" lon="2.03883">
        <ele>39</ele>
        <time>2012-04-08T12:31:36Z</time>
      </trkpt>
      <trkpt lat="48.70952" lon="2.03879">
        <ele>42</ele>
        <time>2012-04-08T12:31:45Z</time>
      </trkpt>
      <trkpt lat="48.70966" lon="2.03887">
        <ele>51</ele>
        <time>2012-04-08T12:31:57Z</time>
      </trkpt>
      <trkpt lat="48.70971" lon="2.03891">
        <ele>52</ele>
        <time>2012-04-08T12:32:01Z</time>
      </trkpt>
      <trkpt lat="48.70981" lon="2.03896">
        <ele>52</ele>
        <time>2012-04-08T12:32:08Z</time>
      </trkpt>
      <trkpt lat="48.70984" lon="2.03901">
        <ele>50</ele>
        <time>2012-04-08T12:32:12Z</time>
      </trkpt>
      <trkpt lat="48.70987" lon="2.03907">
        <ele>53</ele>
        <time>2012-04-08T12:32:16Z</time>
      </trkpt>
      <trkpt lat="48.70989" lon="2.03913">
        <ele>52</ele>
        <time>2012-04-08T12:32:20Z</time>
      </trkpt>
      <trkpt lat="48.70991" lon="2.03919">
        <ele>52</ele>
        <time>2012-04-08T12:32:25Z</time>
      </trkpt>
      <trkpt lat="48.70995" lon="2.03923">
        <ele>54</ele>
        <time>2012-04-08T12:32:31Z</time>
      </trkpt>
      <trkpt lat="48.70997" lon="2.03929">
        <ele>54</ele>
        <time>2012-04-08T12:32:37Z</time>
      </trkpt>
      <trkpt lat="48.70994" lon="2.03949">
        <ele>54</ele>
        <time>2012-04-08T12:32:49Z</time>
      </trkpt>
      <trkpt lat="48.70993" lon="2.03957">
        <ele>51</ele>
        <time>2012-04-08T12:32:53Z</time>
      </trkpt>
      <trkpt lat="48.70993" lon="2.03968">
        <ele>60</ele>
        <time>2012-04-08T12:33:03Z</time>
      </trkpt>
      <trkpt lat="48.70996" lon="2.03969">
        <ele>58</ele>
        <time>2012-04-08T12:33:10Z</time>
      </trkpt>
      <trkpt lat="48.70997" lon="2.0396">
        <ele>64</ele>
        <time>2012-04-08T12:33:32Z</time>
      </trkpt>
      <trkpt lat="48.70994" lon="2.03957">
        <ele>69</ele>
        <time>2012-04-08T12:33:44Z</time>
      </trkpt>
      <trkpt lat="48.70994" lon="2.03966">
        <ele>70</ele>
        <time>2012-04-08T12:34:02Z</time>
      </trkpt>
      <trkpt lat="48.70997" lon="2.03972">
        <ele>68</ele>
        <time>2012-04-08T12:34:05Z</time>
      </trkpt>
      <trkpt lat="48.71003" lon="2.03986">
        <ele>68</ele>
        <time>2012-04-08T12:34:12Z</time>
      </trkpt>
      <trkpt lat="48.71014" lon="2.04012">
        <ele>64</ele>
        <time>2012-04-08T12:34:30Z</time>
      </trkpt>
      <trkpt lat="48.71017" lon="2.04018">
        <ele>64</ele>
        <time>2012-04-08T12:34:35Z</time>
      </trkpt>
      <trkpt lat="48.71019" lon="2.04025">
        <ele>64</ele>
        <time>2012-04-08T12:34:42Z</time>
      </trkpt>
      <trkpt lat="48.71018" lon="2.04039">
        <ele>67</ele>
        <time>2012-04-08T12:34:50Z</time>
      </trkpt>
      <trkpt lat="48.71016" lon="2.04045">
        <ele>67</ele>
        <time>2012-04-08T12:34:56Z</time>
      </trkpt>
      <trkpt lat="48.71015" lon="2.04052">
        <ele>69</ele>
        <time>2012-04-08T12:35:04Z</time>
      </trkpt>
      <trkpt lat="48.71019" lon="2.04059">
        <ele>69</ele>
        <time>2012-04-08T12:35:09Z</time>
      </trkpt>
      <trkpt lat="48.71022" lon="2.04064">
        <ele>70</ele>
        <time>2012-04-08T12:35:15Z</time>
      </trkpt>
      <trkpt lat="48.71021" lon="2.04079">
        <ele>74</ele>
        <time>2012-04-08T12:35:27Z</time>
      </trkpt>
      <trkpt lat="48.71019" lon="2.04092">
        <ele>82</ele>
        <time>2012-04-08T12:35:42Z</time>
      </trkpt>
      <trkpt lat="48.71019" lon="2.04099">
        <ele>82</ele>
        <time>2012-04-08T12:35:50Z</time>
      </trkpt>
      <trkpt lat="48.71021" lon="2.04106">
        <ele>81</ele>
        <time>2012-04-08T12:35:56Z</time>
      </trkpt>
      <trkpt lat="48.71022" lon="2.04109">
        <ele>81</ele>
        <time>2012-04-08T12:36:02Z</time>
      </trkpt>
      <trkpt lat="48.71026" lon="2.04109">
        <ele>83</ele>
        <time>2012-04-08T12:36:17Z</time>
      </trkpt>
      <trkpt lat="48.71028" lon="2.04115">
        <ele>86</ele>
        <time>2012-04-08T12:36:26Z</time>
      </trkpt>
      <trkpt lat="48.71034" lon="2.04117">
        <ele>90</ele>
        <time>2012-04-08T12:36:31Z</time>
      </trkpt>
      <trkpt lat="48.71039" lon="2.04115">
        <ele>91</ele>
        <time>2012-04-08T12:36:36Z</time>
      </trkpt>
      <trkpt lat="48.71043" lon="2.04113">
        <ele>90</ele>
        <time>2012-04-08T12:36:40Z</time>
      </trkpt>
      <trkpt lat="48.71042" lon="2.04118">
        <ele>93</ele>
        <time>2012-04-08T12:36:52Z</time>
      </trkpt>
      <trkpt lat="48.71033" lon="2.04122">
        <ele>93</ele>
        <time>2012-04-08T12:37:03Z</time>
      </trkpt>
      <trkpt lat="48.71028" lon="2.04128">
        <ele>92</ele>
        <time>2012-04-08T12:37:07Z</time>
      </trkpt>
      <trkpt lat="48.71021" lon="2.0414">
        <ele>98</ele>
        <time>2012-04-08T12:37:15Z</time>
      </trkpt>
      <trkpt lat="48.71017" lon="2.04143">
        <ele>98</ele>
        <time>2012-04-08T12:37:22Z</time>
      </trkpt>
      <trkpt lat="48.71014" lon="2.04137">
        <ele>94</ele>
        <time>2012-04-08T12:37:28Z</time>
      </trkpt>
      <trkpt lat="48.71011" lon="2.0414">
        <ele>97</ele>
        <time>2012-04-08T12:38:55Z</time>
      </trkpt>
      <trkpt lat="48.71012" lon="2.04138">
        <ele>99</ele>
        <time>2012-04-08T12:39:17Z</time>
      </trkpt>
      <trkpt lat="48.71008" lon="2.04136">
        <ele>99</ele>
        <time>2012-04-08T12:39:23Z</time>
      </trkpt>
      <trkpt lat="48.71011" lon="2.04134">
        <ele>96</ele>
        <time>2012-04-08T12:39:44Z</time>
      </trkpt>
      <trkpt lat="48.71014" lon="2.04132">
        <ele>92</ele>
        <time>2012-04-08T12:40:29Z</time>
      </trkpt>
      <trkpt lat="48.71014" lon="2.04135">
        <ele>95</ele>
        <time>2012-04-08T12:40:45Z</time>
      </trkpt>
      <trkpt lat="48.71014" lon="2.04137">
        <ele>95</ele>
        <time>2012-04-08T12:45:35Z</time>
      </trkpt>
      <trkpt lat="48.71009" lon="2.04142">
        <ele>94</ele>
        <time>2012-04-08T12:45:51Z</time>
      </trkpt>
      <trkpt lat="48.71008" lon="2.04148">
        <ele>94</ele>
        <time>2012-04-08T12:45:55Z</time>
      </trkpt>
      <trkpt lat="48.71011" lon="2.04151">
        <ele>94</ele>
        <time>2012-04-08T12:46:07Z</time>
      </trkpt>
      <trkpt lat="48.71013" lon="2.04153">
        <ele>95</ele>
        <time>2012-04-08T12:46:13Z</time>
      </trkpt>
      <trkpt lat="48.71013" lon="2.04161">
        <ele>95</ele>
        <time>2012-04-08T12:46:18Z</time>
      </trkpt>
      <trkpt lat="48.71014" lon="2.04167">
        <ele>94</ele>
        <time>2012-04-08T12:46:22Z</time>
      </trkpt>
      <trkpt lat="48.7101" lon="2.04172">
        <ele>100</ele>
        <time>2012-04-08T12:46:27Z</time>
      </trkpt>
      <trkpt lat="48.71009" lon="2.04178">
        <ele>99</ele>
        <time>2012-04-08T12:46:32Z</time>
      </trkpt>
      <trkpt lat="48.71011" lon="2.04181">
        <ele>100</ele>
        <time>2012-04-08T12:46:39Z</time>
      </trkpt>
      <trkpt lat="48.71008" lon="2.04192">
        <ele>100</ele>
        <time>2012-04-08T12:47:39Z</time>
      </trkpt>
      <trkpt lat="48.71012" lon="2.04195">
        <ele>100</ele>
        <time>2012-04-08T12:47:45Z</time>
      </trkpt>
      <trkpt lat="48.71009" lon="2.04202">
        <ele>103</ele>
        <time>2012-04-08T12:47:49Z</time>
      </trkpt>
      <trkpt lat="48.71007" lon="2.04208">
        <ele>101</ele>
        <time>2012-04-08T12:47:54Z</time>
      </trkpt>
      <trkpt lat="48.71002" lon="2.04216">
        <ele>100</ele>
        <time>2012-04-08T12:47:59Z</time>
      </trkpt>
      <trkpt lat="48.70998" lon="2.04214">
        <ele>95</ele>
        <time>2012-04-08T12:48:05Z</time>
      </trkpt>
      <trkpt lat="48.70994" lon="2.04212">
        <ele>97</ele>
        <time>2012-04-08T12:48:13Z</time>
      </trkpt>
      <trkpt lat="48.70989" lon="2.04214">
        <ele>98</ele>
        <time>2012-04-08T12:48:22Z</time>
      </trkpt>
      <trkpt lat="48.70985" lon="2.04218">
        <ele>97</ele>
        <time>2012-04-08T12:48:28Z</time>
      </trkpt>
      <trkpt lat="48.70981" lon="2.04213">
        <ele>97</ele>
        <time>2012-04-08T12:48:32Z</time>
      </trkpt>
      <trkpt lat="48.7098" lon="2.04206">
        <ele>97</ele>
        <time>2012-04-08T12:48:35Z</time>
      </trkpt>
      <trkpt lat="48.70982" lon="2.0419">
        <ele>97</ele>
        <time>2012-04-08T12:48:43Z</time>
      </trkpt>
      <trkpt lat="48.70979" lon="2.04192">
        <ele>94</ele>
        <time>2012-04-08T12:49:06Z</time>
      </trkpt>
      <trkpt lat="48.70981" lon="2.04195">
        <ele>98</ele>
        <time>2012-04-08T12:49:48Z</time>
      </trkpt>
      <trkpt lat="48.70982" lon="2.04191">
        <ele>98</ele>
        <time>2012-04-08T12:50:04Z</time>
      </trkpt>
      <trkpt lat="48.70982" lon="2.04187">
        <ele>96</ele>
        <time>2012-04-08T12:50:10Z</time>
      </trkpt>
      <trkpt lat="48.70978" lon="2.04182">
        <ele>98</ele>
        <time>2012-04-08T12:50:16Z</time>
      </trkpt>
      <trkpt lat="48.70974" lon="2.04179">
        <ele>97</ele>
        <time>2012-04-08T12:50:23Z</time>
      </trkpt>
      <trkpt lat="48.7097" lon="2.04184">
        <ele>95</ele>
        <time>2012-04-08T12:50:31Z</time>
      </trkpt>
      <trkpt lat="48.70961" lon="2.04199">
        <ele>87</ele>
        <time>2012-04-08T12:50:43Z</time>
      </trkpt>
      <trkpt lat="48.70964" lon="2.04205">
        <ele>96</ele>
        <time>2012-04-08T12:50:52Z</time>
      </trkpt>
      <trkpt lat="48.70967" lon="2.04211">
        <ele>96</ele>
        <time>2012-04-08T12:50:58Z</time>
      </trkpt>
      <trkpt lat="48.70969" lon="2.04217">
        <ele>99</ele>
        <time>2012-04-08T12:51:05Z</time>
      </trkpt>
      <trkpt lat="48.70972" lon="2.04213">
        <ele>99</ele>
        <time>2012-04-08T12:51:11Z</time>
      </trkpt>
      <trkpt lat="48.70975" lon="2.04209">
        <ele>98</ele>
        <time>2012-04-08T12:52:03Z</time>
      </trkpt>
      <trkpt lat="48.70974" lon="2.04208">
        <ele>101</ele>
        <time>2012-04-08T12:52:39Z</time>
      </trkpt>
      <trkpt lat="48.70971" lon="2.04213">
        <ele>102</ele>
        <time>2012-04-08T12:55:22Z</time>
      </trkpt>
      <trkpt lat="48.70973" lon="2.04208">
        <ele>91</ele>
        <time>2012-04-08T13:03:04Z</time>
      </trkpt>
      <trkpt lat="48.70972" lon="2.04201">
        <ele>93</ele>
        <time>2012-04-08T13:03:12Z</time>
      </trkpt>
      <trkpt lat="48.70969" lon="2.04195">
        <ele>95</ele>
        <time>2012-04-08T13:03:15Z</time>
      </trkpt>
      <trkpt lat="48.70969" lon="2.04188">
        <ele>97</ele>
        <time>2012-04-08T13:03:19Z</time>
      </trkpt>
      <trkpt lat="48.70972" lon="2.04174">
        <ele>99</ele>
        <time>2012-04-08T13:03:29Z</time>
      </trkpt>
      <trkpt lat="48.70976" lon="2.04177">
        <ele>95</ele>
        <time>2012-04-08T13:03:36Z</time>
      </trkpt>
      <trkpt lat="48.70983" lon="2.04195">
        <ele>91</ele>
        <time>2012-04-08T13:03:51Z</time>
      </trkpt>
      <trkpt lat="48.70987" lon="2.04198">
        <ele>94</ele>
        <time>2012-04-08T13:03:56Z</time>
      </trkpt>
      <trkpt lat="48.70999" lon="2.04206">
        <ele>98</ele>
        <time>2012-04-08T13:04:11Z</time>
      </trkpt>
      <trkpt lat="48.71004" lon="2.04209">
        <ele>96</ele>
        <time>2012-04-08T13:04:16Z</time>
      </trkpt>
      <trkpt lat="48.71009" lon="2.04205">
        <ele>92</ele>
        <time>2012-04-08T13:04:23Z</time>
      </trkpt>
      <trkpt lat="48.7101" lon="2.04198">
        <ele>93</ele>
        <time>2012-04-08T13:04:27Z</time>
      </trkpt>
      <trkpt lat="48.71007" lon="2.04192">
        <ele>89</ele>
        <time>2012-04-08T13:04:32Z</time>
      </trkpt>
      <trkpt lat="48.71011" lon="2.04175">
        <ele>96</ele>
        <time>2012-04-08T13:04:57Z</time>
      </trkpt>
      <trkpt lat="48.71009" lon="2.04165">
        <ele>102</ele>
        <time>2012-04-08T13:05:03Z</time>
      </trkpt>
      <trkpt lat="48.7101" lon="2.04158">
        <ele>99</ele>
        <time>2012-04-08T13:05:09Z</time>
      </trkpt>
      <trkpt lat="48.71007" lon="2.04156">
        <ele>99</ele>
        <time>2012-04-08T13:05:18Z</time>
      </trkpt>
      <trkpt lat="48.71012" lon="2.04151">
        <ele>100</ele>
        <time>2012-04-08T13:05:27Z</time>
      </trkpt>
      <trkpt lat="48.71016" lon="2.04148">
        <ele>100</ele>
        <time>2012-04-08T13:05:30Z</time>
      </trkpt>
      <trkpt lat="48.71021" lon="2.04149">
        <ele>101</ele>
        <time>2012-04-08T13:05:34Z</time>
      </trkpt>
      <trkpt lat="48.71021" lon="2.04156">
        <ele>101</ele>
        <time>2012-04-08T13:05:38Z</time>
      </trkpt>
      <trkpt lat="48.71014" lon="2.04158">
        <ele>102</ele>
        <time>2012-04-08T13:05:42Z</time>
      </trkpt>
      <trkpt lat="48.71009" lon="2.04159">
        <ele>101</ele>
        <time>2012-04-08T13:05:45Z</time>
      </trkpt>
      <trkpt lat="48.71004" lon="2.04159">
        <ele>101</ele>
        <time>2012-04-08T13:05:48Z</time>
      </trkpt>
      <trkpt lat="48.70999" lon="2.04158">
        <ele>99</ele>
        <time>2012-04-08T13:05:52Z</time>
      </trkpt>
      <trkpt lat="48.70995" lon="2.04161">
        <ele>97</ele>
        <time>2012-04-08T13:05:57Z</time>
      </trkpt>
      <trkpt lat="48.70991" lon="2.04165">
        <ele>97</ele>
        <time>2012-04-08T13:06:00Z</time>
      </trkpt>
      <trkpt lat="48.70986" lon="2.04163">
        <ele>96</ele>
        <time>2012-04-08T13:06:06Z</time>
      </trkpt>
      <trkpt lat="48.70967" lon="2.04167">
        <ele>96</ele>
        <time>2012-04-08T13:06:25Z</time>
      </trkpt>
      <trkpt lat="48.70958" lon="2.04177">
        <ele>94</ele>
        <time>2012-04-08T13:06:35Z</time>
      </trkpt>
      <trkpt lat="48.70948" lon="2.04198">
        <ele>94</ele>
        <time>2012-04-08T13:06:53Z</time>
      </trkpt>
      <trkpt lat="48.70949" lon="2.04214">
        <ele>92</ele>
        <time>2012-04-08T13:06:59Z</time>
      </trkpt>
      <trkpt lat="48.70944" lon="2.04217">
        <ele>90</ele>
        <time>2012-04-08T13:07:11Z</time>
      </trkpt>
      <trkpt lat="48.70944" lon="2.0421">
        <ele>88</ele>
        <time>2012-04-08T13:07:15Z</time>
      </trkpt>
      <trkpt lat="48.70948" lon="2.04205">
        <ele>87</ele>
        <time>2012-04-08T13:07:28Z</time>
      </trkpt>
      <trkpt lat="48.70939" lon="2.04197">
        <ele>87</ele>
        <time>2012-04-08T13:07:36Z</time>
      </trkpt>
      <trkpt lat="48.70933" lon="2.04187">
        <ele>85</ele>
        <time>2012-04-08T13:07:42Z</time>
      </trkpt>
      <trkpt lat="48.70933" lon="2.04174">
        <ele>84</ele>
        <time>2012-04-08T13:07:47Z</time>
      </trkpt>
      <trkpt lat="48.70937" lon="2.0417">
        <ele>83</ele>
        <time>2012-04-08T13:07:50Z</time>
      </trkpt>
      <trkpt lat="48.7094" lon="2.04164">
        <ele>84</ele>
        <time>2012-04-08T13:07:54Z</time>
      </trkpt>
      <trkpt lat="48.70939" lon="2.04163">
        <ele>78</ele>
        <time>2012-04-08T13:08:05Z</time>
      </trkpt>
      <trkpt lat="48.70936" lon="2.04178">
        <ele>74</ele>
        <time>2012-04-08T13:08:15Z</time>
      </trkpt>
      <trkpt lat="48.70932" lon="2.04184">
        <ele>75</ele>
        <time>2012-04-08T13:08:19Z</time>
      </trkpt>
      <trkpt lat="48.70929" lon="2.04189">
        <ele>73</ele>
        <time>2012-04-08T13:08:22Z</time>
      </trkpt>
      <trkpt lat="48.70924" lon="2.04188">
        <ele>75</ele>
        <time>2012-04-08T13:08:28Z</time>
      </trkpt>
      <trkpt lat="48.70922" lon="2.04185">
        <ele>72</ele>
        <time>2012-04-08T13:08:35Z</time>
      </trkpt>
      <trkpt lat="48.70921" lon="2.04182">
        <ele>74</ele>
        <time>2012-04-08T13:08:41Z</time>
      </trkpt>
      <trkpt lat="48.70917" lon="2.04178">
        <ele>74</ele>
        <time>2012-04-08T13:08:48Z</time>
      </trkpt>
      <trkpt lat="48.70921" lon="2.04173">
        <ele>74</ele>
        <time>2012-04-08T13:08:57Z</time>
      </trkpt>
      <trkpt lat="48.70925" lon="2.04158">
        <ele>72</ele>
        <time>2012-04-08T13:09:03Z</time>
      </trkpt>
      <trkpt lat="48.70926" lon="2.0415">
        <ele>72</ele>
        <time>2012-04-08T13:09:06Z</time>
      </trkpt>
      <trkpt lat="48.70927" lon="2.04142">
        <ele>69</ele>
        <time>2012-04-08T13:09:09Z</time>
      </trkpt>
      <trkpt lat="48.70931" lon="2.04139">
        <ele>64</ele>
        <time>2012-04-08T13:09:19Z</time>
      </trkpt>
      <trkpt lat="48.70931" lon="2.04132">
        <ele>64</ele>
        <time>2012-04-08T13:09:56Z</time>
      </trkpt>
      <trkpt lat="48.70933" lon="2.0413">
        <ele>64</ele>
        <time>2012-04-08T13:10:03Z</time>
      </trkpt>
      <trkpt lat="48.70935" lon="2.04136">
        <ele>62</ele>
        <time>2012-04-08T13:10:15Z</time>
      </trkpt>
      <trkpt lat="48.70931" lon="2.0414">
        <ele>62</ele>
        <time>2012-04-08T13:10:51Z</time>
      </trkpt>
      <trkpt lat="48.70923" lon="2.04134">
        <ele>64</ele>
        <time>2012-04-08T13:18:23Z</time>
      </trkpt>
      <trkpt lat="48.70921" lon="2.04137">
        <ele>63</ele>
        <time>2012-04-08T13:18:33Z</time>
      </trkpt>
      <trkpt lat="48.70926" lon="2.0414">
        <ele>64</ele>
        <time>2012-04-08T13:19:07Z</time>
      </trkpt>
      <trkpt lat="48.70928" lon="2.04143">
        <ele>66</ele>
        <time>2012-04-08T13:20:34Z</time>
      </trkpt>
      <trkpt lat="48.70928" lon="2.04143">
        <ele>60</ele>
        <time>2012-04-08T13:20:52Z</time>
      </trkpt>
      <trkpt lat="48.70929" lon="2.04136">
        <ele>60</ele>
        <time>2012-04-08T13:21:00Z</time>
      </trkpt>
      <trkpt lat="48.70933" lon="2.04135">
        <ele>63</ele>
        <time>2012-04-08T13:22:07Z</time>
      </trkpt>
      <trkpt lat="48.70937" lon="2.04135">
        <ele>65</ele>
        <time>2012-04-08T13:22:11Z</time>
      </trkpt>
      <trkpt lat="48.70933" lon="2.04143">
        <ele>62</ele>
        <time>2012-04-08T13:22:18Z</time>
      </trkpt>
      <trkpt lat="48.70931" lon="2.04149">
        <ele>66</ele>
        <time>2012-04-08T13:22:32Z</time>
      </trkpt>
      <trkpt lat="48.70926" lon="2.04163">
        <ele>67</ele>
        <time>2012-04-08T13:22:53Z</time>
      </trkpt>
      <trkpt lat="48.70919" lon="2.04172">
        <ele>66</ele>
        <time>2012-04-08T13:22:58Z</time>
      </trkpt>
      <trkpt lat="48.70922" lon="2.04169">
        <ele>66</ele>
        <time>2012-04-08T13:23:34Z</time>
      </trkpt>
      <trkpt lat="48.7092" lon="2.04155">
        <ele>65</ele>
        <time>2012-04-08T13:23:43Z</time>
      </trkpt>
      <trkpt lat="48.70919" lon="2.04141">
        <ele>65</ele>
        <time>2012-04-08T13:23:52Z</time>
      </trkpt>
      <trkpt lat="48.70907" lon="2.0412">
        <ele>62</ele>
        <time>2012-04-08T13:24:06Z</time>
      </trkpt>
      <trkpt lat="48.70905" lon="2.04106">
        <ele>61</ele>
        <time>2012-04-08T13:24:22Z</time>
      </trkpt>
      <trkpt lat="48.709" lon="2.04092">
        <ele>62</ele>
        <time>2012-04-08T13:24:28Z</time>
      </trkpt>
      <trkpt lat="48.70897" lon="2.04091">
        <ele>62</ele>
        <time>2012-04-08T13:24:36Z</time>
      </trkpt>
      <trkpt lat="48.70887" lon="2.04097">
        <ele>63</ele>
        <time>2012-04-08T13:24:47Z</time>
      </trkpt>
      <trkpt lat="48.70881" lon="2.04106">
        <ele>62</ele>
        <time>2012-04-08T13:24:53Z</time>
      </trkpt>
      <trkpt lat="48.70873" lon="2.04112">
        <ele>59</ele>
        <time>2012-04-08T13:25:05Z</time>
      </trkpt>
      <trkpt lat="48.70866" lon="2.04122">
        <ele>59</ele>
        <time>2012-04-08T13:25:19Z</time>
      </trkpt>
      <trkpt lat="48.70857" lon="2.04116">
        <ele>62</ele>
        <time>2012-04-08T13:25:28Z</time>
      </trkpt>
      <trkpt lat="48.7085" lon="2.04106">
        <ele>62</ele>
        <time>2012-04-08T13:25:35Z</time>
      </trkpt>
      <trkpt lat="48.70831" lon="2.04114">
        <ele>57</ele>
        <time>2012-04-08T13:26:11Z</time>
      </trkpt>
      <trkpt lat="48.70823" lon="2.04108">
        <ele>55</ele>
        <time>2012-04-08T13:26:17Z</time>
      </trkpt>
      <trkpt lat="48.70818" lon="2.04095">
        <ele>54</ele>
        <time>2012-04-08T13:26:25Z</time>
      </trkpt>
      <trkpt lat="48.70815" lon="2.04081">
        <ele>55</ele>
        <time>2012-04-08T13:26:29Z</time>
      </trkpt>
      <trkpt lat="48.70818" lon="2.04067">
        <ele>57</ele>
        <time>2012-04-08T13:26:34Z</time>
      </trkpt>
      <trkpt lat="48.70821" lon="2.04053">
        <ele>54</ele>
        <time>2012-04-08T13:26:48Z</time>
      </trkpt>
      <trkpt lat="48.70818" lon="2.04046">
        <ele>52</ele>
        <time>2012-04-08T13:26:54Z</time>
      </trkpt>
      <trkpt lat="48.70808" lon="2.04044">
        <ele>52</ele>
        <time>2012-04-08T13:27:00Z</time>
      </trkpt>
      <trkpt lat="48.70798" lon="2.04046">
        <ele>51</ele>
        <time>2012-04-08T13:27:08Z</time>
      </trkpt>
      <trkpt lat="48.70789" lon="2.04042">
        <ele>49</ele>
        <time>2012-04-08T13:27:15Z</time>
      </trkpt>
      <trkpt lat="48.70785" lon="2.0403">
        <ele>49</ele>
        <time>2012-04-08T13:27:19Z</time>
      </trkpt>
      <trkpt lat="48.70786" lon="2.04015">
        <ele>47</ele>
        <time>2012-04-08T13:27:23Z</time>
      </trkpt>
      <trkpt lat="48.70781" lon="2.04001">
        <ele>46</ele>
        <time>2012-04-08T13:27:28Z</time>
      </trkpt>
      <trkpt lat="48.70774" lon="2.03991">
        <ele>47</ele>
        <time>2012-04-08T13:27:34Z</time>
      </trkpt>
      <trkpt lat="48.70765" lon="2.03996">
        <ele>45</ele>
        <time>2012-04-08T13:27:43Z</time>
      </trkpt>
      <trkpt lat="48.70761" lon="2.03993">
        <ele>44</ele>
        <time>2012-04-08T13:27:52Z</time>
      </trkpt>
      <trkpt lat="48.70756" lon="2.0399">
        <ele>45</ele>
        <time>2012-04-08T13:27:58Z</time>
      </trkpt>
      <trkpt lat="48.70757" lon="2.03984">
        <ele>44</ele>
        <time>2012-04-08T13:28:06Z</time>
      </trkpt>
      <trkpt lat="48.70756" lon="2.03978">
        <ele>43</ele>
        <time>2012-04-08T13:28:13Z</time>
      </trkpt>
      <trkpt lat="48.70758" lon="2.03964">
        <ele>42</ele>
        <time>2012-04-08T13:28:21Z</time>
      </trkpt>
      <trkpt lat="48.70754" lon="2.03937">
        <ele>40</ele>
        <time>2012-04-08T13:28:36Z</time>
      </trkpt>
      <trkpt lat="48.70743" lon="2.0394">
        <ele>40</ele>
        <time>2012-04-08T13:28:40Z</time>
      </trkpt>
      <trkpt lat="48.70734" lon="2.03942">
        <ele>39</ele>
        <time>2012-04-08T13:28:46Z</time>
      </trkpt>
      <trkpt lat="48.70726" lon="2.03949">
        <ele>37</ele>
        <time>2012-04-08T13:28:52Z</time>
      </trkpt>
      <trkpt lat="48.7072" lon="2.0396">
        <ele>37</ele>
        <time>2012-04-08T13:28:59Z</time>
      </trkpt>
      <trkpt lat="48.70713" lon="2.03969">
        <ele>38</ele>
        <time>2012-04-08T13:29:11Z</time>
      </trkpt>
      <trkpt lat="48.70704" lon="2.03965">
        <ele>35</ele>
        <time>2012-04-08T13:29:18Z</time>
      </trkpt>
      <trkpt lat="48.70699" lon="2.03967">
        <ele>35</ele>
        <time>2012-04-08T13:29:22Z</time>
      </trkpt>
      <trkpt lat="48.70693" lon="2.03971">
        <ele>34</ele>
        <time>2012-04-08T13:29:26Z</time>
      </trkpt>
      <trkpt lat="48.70689" lon="2.03974">
        <ele>34</ele>
        <time>2012-04-08T13:29:29Z</time>
      </trkpt>
      <trkpt lat="48.70685" lon="2.03981">
        <ele>33</ele>
        <time>2012-04-08T13:29:32Z</time>
      </trkpt>
      <trkpt lat="48.7068" lon="2.03984">
        <ele>34</ele>
        <time>2012-04-08T13:29:35Z</time>
      </trkpt>
      <trkpt lat="48.70671" lon="2.03991">
        <ele>31</ele>
        <time>2012-04-08T13:29:45Z</time>
      </trkpt>
      <trkpt lat="48.70667" lon="2.03994">
        <ele>35</ele>
        <time>2012-04-08T13:29:49Z</time>
      </trkpt>
      <trkpt lat="48.70662" lon="2.03995">
        <ele>32</ele>
        <time>2012-04-08T13:29:53Z</time>
      </trkpt>
      <trkpt lat="48.70657" lon="2.0399">
        <ele>32</ele>
        <time>2012-04-08T13:29:58Z</time>
      </trkpt>
      <trkpt lat="48.70653" lon="2.03973">
        <ele>23</ele>
        <time>2012-04-08T13:30:02Z</time>
      </trkpt>
      <trkpt lat="48.70652" lon="2.03966">
        <ele>23</ele>
        <time>2012-04-08T13:30:04Z</time>
      </trkpt>
      <trkpt lat="48.70651" lon="2.03952">
        <ele>27</ele>
        <time>2012-04-08T13:30:13Z</time>
      </trkpt>
      <trkpt lat="48.70648" lon="2.03945">
        <ele>26</ele>
        <time>2012-04-08T13:30:17Z</time>
      </trkpt>
      <trkpt lat="48.70643" lon="2.03942">
        <ele>26</ele>
        <time>2012-04-08T13:30:22Z</time>
      </trkpt>
      <trkpt lat="48.70639" lon="2.03939">
        <ele>24</ele>
        <time>2012-04-08T13:30:29Z</time>
      </trkpt>
      <trkpt lat="48.70633" lon="2.0394">
        <ele>25</ele>
        <time>2012-04-08T13:30:34Z</time>
      </trkpt>
      <trkpt lat="48.70624" lon="2.03946">
        <ele>25</ele>
        <time>2012-04-08T13:30:40Z</time>
      </trkpt>
      <trkpt lat="48.70619" lon="2.03951">
        <ele>26</ele>
        <time>2012-04-08T13:30:44Z</time>
      </trkpt>
      <trkpt lat="48.70618" lon="2.03958">
        <ele>25</ele>
        <time>2012-04-08T13:30:51Z</time>
      </trkpt>
    </trkseg>
  </trk>
</gpx>